[[{"header":{"parameterUnit":"m.s-1","parameterCategory":1,"la1":30.6,"la2":28.766,"lo1":-90.7593,"lo2":-88.6598,"dy":0.0162,"dx":0.0183,"nx":116,"ny":114,"refTime":"2024-03-26T12:00:00:Z","depth":0,"parameterNumber":2,"parameterNumberName":"U-component_of_WINDS"},"data":[0.0,0.0,0.0,0.0,0.0,0.0,0.0,0.0,0.0,0.0,0.0,0.0,0.0,0.0,0.0,0.0,0.0,0.0,0.0,0.0,0.0,0.0,0.0,0.0,0.0,0.0,0.0,0.0,0.0,0.0,0.0,0.0,0.0,0.0,0.0,0.0,0.0,0.0,0.0,0.0,0.0,0.0,0.0,0.0,0.0,0.0,0.0,0.0,0.0,0.0,0.0,0.0,0.0,0.0,0.0,0.0,0.0,0.0,0.0,0.0,0.0,0.0,0.0,0.0,0.0,0.0,0.0,0.0,0.0,0.0,0.0,0.0,0.0,0.0,0.0,0.0,0.0,0.0,0.0,0.0,0.0,0.0,0.0,0.0,0.0,0.0,0.0,0.0,0.0,0.0,0.0,0.0,0.0,0.0,0.0,0.0,0.0,0.0,0.0,0.0,0.0,0.0,0.0,0.0,0.0,0.0,0.0,0.0,0.0,0.0,0.0,0.0,0.0,0.0,0.0,0.0,0.0,0.0,0.0,0.0,0.0,0.0,0.0,0.0,0.0,0.0,0.0,0.0,0.0,0.0,0.0,0.0,0.0,0.0,0.0,0.0,0.0,0.0,0.0,0.0,0.0,0.0,0.0,0.0,0.0,0.0,0.0,0.0,0.0,0.0,0.0,0.0,0.0,0.0,0.0,0.0,0.0,0.0,0.0,0.0,0.0,0.0,0.0,0.0,0.0,0.0,0.0,0.0,0.0,0.0,0.0,0.0,0.0,0.0,0.0,0.0,0.0,0.0,0.0,0.0,0.0,0.0,0.0,0.0,0.0,0.0,0.0,0.0,0.0,0.0,0.0,0.0,0.0,0.0,0.0,0.0,0.0,0.0,0.0,0.0,0.0,0.0,0.0,0.0,0.0,0.0,0.0,0.0,0.0,0.0,0.0,0.0,0.0,0.0,0.0,0.0,0.0,0.0,0.0,0.0,0.0,0.0,0.0,0.0,0.0,0.0,0.0,0.0,0.0,0.0,0.0,0.0,0.0,0.0,0.0,0.0,0.0,0.0,0.0,0.0,0.0,0.0,0.0,0.0,0.0,0.0,0.0,0.0,0.0,0.0,0.0,0.0,0.0,0.0,0.0,0.0,0.0,0.0,0.0,0.0,0.0,0.0,0.0,0.0,0.0,0.0,0.0,0.0,0.0,0.0,0.0,0.0,0.0,0.0,0.0,0.0,0.0,0.0,0.0,0.0,0.0,0.0,0.0,0.0,0.0,0.0,0.0,0.0,0.0,0.0,0.0,0.0,0.0,0.0,0.0,0.0,0.0,0.0,0.0,0.0,0.0,0.0,0.0,0.0,0.0,0.0,0.0,0.0,0.0,0.0,0.0,0.0,0.0,0.0,0.0,0.0,0.0,0.0,0.0,0.0,0.0,0.0,0.0,0.0,0.0,0.0,0.0,0.0,0.0,0.0,0.0,0.0,0.0,0.0,0.0,0.0,0.0,0.0,0.0,0.0,0.0,0.0,0.0,0.0,0.0,0.0,0.0,0.0,0.0,0.0,0.0,0.0,0.0,0.0,0.0,0.0,0.0,0.0,0.0,0.0,0.0,0.0,0.0,0.0,0.0,0.0,0.0,0.0,0.0,0.0,0.0,0.0,0.0,0.0,0.0,0.0,0.0,0.0,0.0,0.0,0.0,0.0,0.0,0.0,0.0,0.0,0.0,0.0,0.0,0.0,0.0,0.0,0.0,0.0,0.0,0.0,0.0,0.0,0.0,0.0,0.0,0.0,0.0,0.0,0.0,0.0,0.0,0.0,0.0,0.0,0.0,0.0,0.0,0.0,0.0,0.0,0.0,0.0,0.0,0.0,0.0,0.0,0.0,0.0,0.0,0.0,0.0,0.0,0.0,0.0,0.0,0.0,0.0,0.0,0.0,0.0,0.0,0.0,0.0,0.0,0.0,0.0,0.0,0.0,0.0,0.0,0.0,0.0,0.0,0.0,0.0,0.0,0.0,0.0,0.0,0.0,0.0,0.0,0.0,0.0,0.0,0.0,0.0,0.0,0.0,0.0,0.0,0.0,0.0,0.0,0.0,0.0,0.0,0.0,0.0,0.0,0.0,0.0,0.0,0.0,0.0,0.0,0.0,0.0,0.0,0.0,0.0,0.0,0.0,0.0,0.0,0.0,0.0,0.0,0.0,0.0,0.0,0.0,0.0,0.0,0.0,0.0,0.0,0.0,0.0,0.0,0.0,0.0,0.0,0.0,0.0,0.0,0.0,0.0,0.0,0.0,0.0,0.0,0.0,0.0,0.0,0.0,0.0,0.0,0.0,0.0,0.0,0.0,0.0,0.0,0.0,0.0,0.0,0.0,0.0,0.0,0.0,0.0,0.0,0.0,0.0,0.0,0.0,0.0,0.0,0.0,0.0,0.0,0.0,0.0,0.0,0.0,0.0,0.0,0.0,0.0,0.0,0.0,0.0,0.0,0.0,0.0,0.0,0.0,0.0,0.0,0.0,0.0,0.0,0.0,0.0,0.0,0.0,0.0,0.0,0.0,0.0,0.0,0.0,0.0,0.0,0.0,0.0,0.0,0.0,0.0,0.0,0.0,0.0,0.0,0.0,0.0,0.0,0.0,0.0,0.0,0.0,0.0,0.0,0.0,0.0,0.0,0.0,0.0,0.0,0.0,0.0,0.0,0.0,0.0,0.0,0.0,0.0,0.0,0.0,0.0,0.0,0.0,0.0,0.0,0.0,0.0,0.0,0.0,0.0,0.0,0.0,0.0,0.0,0.0,0.0,0.0,0.0,0.0,0.0,0.0,0.0,0.0,0.0,0.0,0.0,0.0,0.0,0.0,0.0,0.0,0.0,0.0,0.0,0.0,0.0,0.0,0.0,0.0,0.0,0.0,0.0,0.0,0.0,0.0,0.0,0.0,0.0,0.0,0.0,0.0,0.0,0.0,0.0,0.0,0.0,0.0,0.0,0.0,0.0,0.0,0.0,0.0,0.0,0.0,0.0,0.0,0.0,0.0,0.0,0.0,0.0,0.0,0.0,0.0,0.0,0.0,0.0,0.0,0.0,0.0,0.0,0.0,0.0,0.0,0.0,0.0,0.0,0.0,0.0,0.0,0.0,0.0,0.0,0.0,0.0,0.0,0.0,0.0,0.0,0.0,0.0,0.0,0.0,0.0,0.0,0.0,0.0,0.0,0.0,0.0,0.0,0.0,0.0,0.0,0.0,0.0,0.0,0.0,0.0,0.0,0.0,0.0,0.0,0.0,0.0,0.0,0.0,0.0,0.0,0.0,0.0,0.0,0.0,0.0,0.0,0.0,0.0,0.0,0.0,0.0,0.0,0.0,0.0,0.0,0.0,0.0,0.0,0.0,0.0,0.0,0.0,0.0,0.0,0.0,0.0,0.0,0.0,0.0,0.0,0.0,0.0,0.0,0.0,0.0,0.0,0.0,0.0,0.0,0.0,0.0,0.0,0.0,0.0,0.0,0.0,0.0,0.0,0.0,0.0,0.0,0.0,0.0,0.0,0.0,0.0,0.0,0.0,0.0,0.0,0.0,0.0,0.0,0.0,0.0,0.0,0.0,0.0,0.0,0.0,0.0,0.0,0.0,0.0,0.0,0.0,0.0,0.0,0.0,0.0,0.0,0.0,0.0,0.0,0.0,0.0,0.0,0.0,0.0,0.0,0.0,0.0,0.0,0.0,0.0,0.0,0.0,0.0,0.0,0.0,0.0,0.0,0.0,0.0,0.0,0.0,0.0,0.0,0.0,0.0,0.0,0.0,0.0,0.0,0.0,0.0,0.0,0.0,0.0,0.0,0.0,0.0,0.0,0.0,0.0,0.0,0.0,0.0,0.0,0.0,0.0,0.0,0.0,0.0,0.0,0.0,0.0,0.0,0.0,0.0,0.0,0.0,0.0,0.0,0.0,0.0,0.0,0.0,0.0,0.0,0.0,0.0,0.0,0.0,0.0,0.0,0.0,0.0,0.0,0.0,0.0,0.0,0.0,0.0,0.0,0.0,0.0,0.0,0.0,0.0,0.0,0.0,0.0,0.0,0.0,0.0,0.0,0.0,0.0,0.0,0.0,0.0,0.0,0.0,0.0,0.0,0.0,0.0,0.0,0.0,0.0,0.0,0.0,0.0,0.0,0.0,0.0,0.0,0.0,0.0,0.0,0.0,0.0,0.0,0.0,0.0,0.0,0.0,0.0,0.0,0.0,0.0,0.0,0.0,0.0,0.0,0.0,0.0,0.0,0.0,0.0,0.0,0.0,0.0,0.0,0.0,0.0,0.0,0.0,0.0,0.0,0.0,0.0,0.0,0.0,0.0,0.0,0.0,0.0,0.0,0.0,0.0,0.0,0.0,0.0,0.0,0.0,0.0,0.0,0.0,0.0,0.0,0.0,0.0,0.0,0.0,0.0,0.0,0.0,0.0,0.0,0.0,0.0,0.0,0.0,0.0,0.0,0.0,0.0,0.0,0.0,0.0,0.0,0.0,0.0,0.0,0.0,0.0,0.0,0.0,0.0,0.0,0.0,0.0,0.0,0.0,0.0,0.0,0.0,0.0,0.0,0.0,0.0,0.0,0.0,0.0,0.0,0.0,0.0,0.0,0.0,0.0,0.0,0.0,0.0,0.0,0.0,0.0,0.0,0.0,0.0,0.0,0.0,0.0,0.0,0.0,0.0,0.0,0.0,0.0,0.0,0.0,0.0,0.0,0.0,0.0,0.0,0.0,0.0,0.0,0.0,0.0,0.0,0.0,0.0,0.0,0.0,0.0,0.0,0.0,0.0,0.0,0.0,0.0,0.0,0.0,0.0,0.0,0.0,0.0,0.0,0.0,0.0,0.0,0.0,0.0,0.0,0.0,0.0,0.0,0.0,0.0,0.0,0.0,0.0,0.0,0.0,0.0,0.0,0.0,0.0,0.0,0.0,0.0,0.0,0.0,0.0,0.0,0.0,0.0,0.0,0.0,0.0,0.0,0.0,0.0,0.0,0.0,0.0,0.0,0.0,0.0,0.0,0.0,0.0,0.0,0.0,0.0,0.0,0.0,0.0,0.0,0.0,0.0,0.0,0.0,0.0,0.0,0.0,0.0,0.0,0.0,0.0,0.0,0.0,0.0,0.0,0.0,0.0,0.0,0.0,0.0,0.0,0.0,0.0,0.0,0.0,0.0,0.0,0.0,0.0,0.0,0.0,0.0,0.0,0.0,0.0,0.0,0.0,0.0,0.0,0.0,0.0,0.0,0.0,0.0,0.0,0.0,0.0,0.0,0.0,0.0,0.0,0.0,0.0,0.0,0.0,0.0,0.0,0.0,0.0,0.0,0.0,0.0,0.0,0.0,0.0,0.0,0.0,0.0,0.0,0.0,0.0,0.0,0.0,0.0,0.0,0.0,0.0,0.0,0.0,0.0,0.0,0.0,0.0,0.0,0.0,0.0,0.0,0.0,0.0,0.0,0.0,0.0,0.0,0.0,0.0,0.0,0.0,0.0,0.0,0.0,0.0,0.0,0.0,0.0,0.0,0.0,0.0,0.0,0.0,0.0,0.0,0.0,0.0,0.0,0.0,0.0,0.0,0.0,0.0,0.0,0.0,0.0,0.0,0.0,0.0,0.0,0.0,0.0,0.0,0.0,0.0,0.0,0.0,0.0,0.0,0.0,0.0,0.0,0.0,0.0,0.0,0.0,0.0,0.0,0.0,0.0,0.0,0.0,0.0,0.0,0.0,0.0,0.0,0.0,0.0,0.0,0.0,0.0,0.0,0.0,0.0,0.0,0.0,0.0,0.0,0.0,0.0,0.0,0.0,0.0,0.0,0.0,0.0,0.0,0.0,0.0,0.0,0.0,0.0,0.0,0.0,0.0,0.0,0.0,0.0,0.0,0.0,0.0,0.0,0.0,0.0,0.0,0.0,0.0,0.0,0.0,0.0,0.0,0.0,0.0,0.0,0.0,0.0,0.0,0.0,0.0,0.0,0.0,0.0,0.0,0.0,0.0,0.0,0.0,0.0,0.0,0.0,0.0,0.0,0.0,0.0,0.0,0.0,0.0,0.0,0.0,0.0,0.0,0.0,0.0,0.0,0.0,0.0,-2.8781,-2.8439,0.0,0.0,0.0,0.0,0.0,0.0,0.0,0.0,0.0,0.0,0.0,0.0,0.0,0.0,0.0,0.0,0.0,0.0,0.0,0.0,0.0,0.0,0.0,-3.2583,-3.2583,-3.2583,-3.2583,-3.2583,-3.2583,0.0,0.0,0.0,0.0,0.0,-3.3582,-3.3582,-3.3582,-3.3582,-3.3582,-3.3582,-3.3624,-3.4301,-3.479,-3.5084,0.0,0.0,0.0,0.0,0.0,0.0,0.0,0.0,0.0,0.0,0.0,0.0,0.0,0.0,0.0,0.0,0.0,0.0,0.0,0.0,0.0,0.0,0.0,0.0,0.0,0.0,0.0,0.0,0.0,0.0,0.0,0.0,0.0,0.0,0.0,0.0,0.0,0.0,0.0,0.0,0.0,0.0,0.0,0.0,0.0,0.0,0.0,0.0,0.0,0.0,0.0,0.0,0.0,0.0,0.0,0.0,0.0,0.0,0.0,0.0,0.0,0.0,0.0,0.0,0.0,0.0,0.0,0.0,0.0,0.0,-2.765,-2.7378,0.0,0.0,0.0,0.0,0.0,0.0,0.0,0.0,0.0,0.0,0.0,0.0,0.0,0.0,0.0,0.0,0.0,0.0,0.0,0.0,0.0,-3.1511,-3.1511,-3.1511,-3.1511,-3.1511,-3.1511,-3.1511,-3.1511,-3.2064,0.0,0.0,-3.2933,-3.3219,-3.3219,-3.3219,-3.3166,-3.3029,-3.3029,-3.3098,-3.3219,-3.3219,-3.3219,-3.3271,-3.4087,0.0,0.0,0.0,0.0,0.0,0.0,0.0,0.0,0.0,0.0,0.0,0.0,0.0,0.0,0.0,0.0,0.0,0.0,0.0,0.0,0.0,0.0,0.0,0.0,0.0,0.0,0.0,0.0,0.0,0.0,0.0,0.0,0.0,0.0,0.0,0.0,0.0,0.0,0.0,0.0,0.0,0.0,0.0,0.0,0.0,0.0,0.0,0.0,0.0,0.0,0.0,0.0,0.0,0.0,0.0,0.0,0.0,0.0,0.0,0.0,0.0,0.0,0.0,-2.8695,-2.864,-2.8626,-2.8068,-2.7572,-2.7138,-2.6624,-2.6375,-2.631,-2.631,0.0,0.0,0.0,0.0,0.0,0.0,0.0,0.0,0.0,0.0,0.0,0.0,0.0,0.0,0.0,0.0,0.0,0.0,0.0,-3.1511,-3.1511,-3.1511,-3.1511,-3.1511,-3.1511,-3.1511,-3.1511,-3.1582,-3.164,-3.164,-3.1739,-3.1796,-3.1796,-3.1796,-3.1436,-3.0748,-3.0748,-3.1087,-3.1796,-3.1796,-3.1796,-3.1838,-3.3156,-3.3735,-3.3735,0.0,0.0,0.0,0.0,0.0,0.0,0.0,0.0,0.0,0.0,0.0,0.0,0.0,0.0,0.0,0.0,0.0,0.0,0.0,0.0,0.0,0.0,0.0,0.0,0.0,0.0,0.0,0.0,0.0,0.0,0.0,0.0,0.0,0.0,0.0,0.0,0.0,0.0,0.0,0.0,0.0,-2.916,-2.916,0.0,0.0,0.0,0.0,0.0,0.0,0.0,0.0,0.0,0.0,0.0,0.0,0.0,-2.9386,-2.9289,-2.8605,-2.8232,-2.8123,-2.7528,-2.7267,-2.7267,-2.7154,-2.7086,-2.7003,-2.6284,0.0,-2.5536,-2.5536,0.0,0.0,0.0,0.0,0.0,0.0,0.0,0.0,0.0,0.0,0.0,0.0,0.0,0.0,0.0,0.0,0.0,0.0,0.0,0.0,0.0,-3.0072,-3.0072,-3.0072,-3.0072,-3.0072,-3.0072,-3.0072,-3.0072,-3.0072,-3.0072,-3.0072,-3.0072,-3.0072,-2.9919,-2.9566,-2.9566,-2.9766,-3.0072,-3.0072,-3.0072,-3.0133,-3.126,-3.2235,-3.3066,-3.3443,0.0,0.0,0.0,0.0,0.0,0.0,0.0,0.0,0.0,0.0,0.0,0.0,0.0,0.0,0.0,0.0,0.0,0.0,0.0,0.0,0.0,0.0,0.0,0.0,0.0,0.0,0.0,0.0,0.0,0.0,0.0,0.0,0.0,0.0,0.0,0.0,0.0,0.0,0.0,-2.8939,-2.8812,-2.833,-2.9034,-2.9566,0.0,0.0,0.0,0.0,0.0,0.0,0.0,0.0,0.0,-2.9002,-2.8524,-2.8266,-2.8266,-2.7518,-2.7171,-2.7171,-2.6876,-2.6713,-2.6713,-2.6713,-2.6517,-2.6216,-2.5878,-2.549,-2.5088,-2.5498,-2.5679,-2.5767,0.0,0.0,0.0,0.0,-2.5063,-2.4681,0.0,0.0,0.0,0.0,0.0,0.0,0.0,0.0,0.0,0.0,0.0,0.0,-2.9002,-2.9002,-2.9002,-2.9002,-2.9002,-2.9002,-2.9002,-2.9002,-2.9002,-2.9002,-2.9002,-2.9002,-2.9002,-2.878,-2.878,-2.9002,-2.878,-2.878,-2.9002,-2.9002,-2.9002,-2.9034,-2.9659,-3.0719,-3.2074,-3.2756,-3.305,0.0,0.0,0.0,0.0,0.0,0.0,0.0,0.0,0.0,0.0,0.0,0.0,0.0,0.0,0.0,0.0,0.0,0.0,0.0,0.0,0.0,0.0,0.0,0.0,0.0,0.0,0.0,0.0,0.0,0.0,0.0,0.0,0.0,0.0,0.0,0.0,0.0,0.0,-2.7953,-2.8117,-2.7484,-2.8149,-2.8684,0.0,0.0,0.0,0.0,0.0,0.0,-2.8684,-2.8684,-2.8556,-2.8363,-2.7736,-2.7384,-2.7384,-2.6816,-2.6499,-2.6499,-2.6499,-2.6499,-2.6499,-2.6499,-2.626,-2.5824,-2.5824,-2.5453,-2.4901,-2.5416,-2.5497,-2.5361,-2.5916,-2.5736,-2.507,-2.4528,-2.3974,-2.3414,0.0,0.0,0.0,0.0,0.0,0.0,0.0,0.0,0.0,0.0,0.0,-2.9002,-2.9002,-2.9002,-2.9002,-2.9002,-2.9002,-2.9002,-2.9002,-2.9002,-2.9002,-2.9002,-2.9002,-2.9002,-2.9002,-2.8182,-2.8182,-2.9002,-2.8182,-2.8182,-2.9002,-2.9002,-2.9002,-2.9002,-2.9066,-2.9566,-3.048,-3.1263,-3.1611,-3.1611,0.0,0.0,0.0,0.0,0.0,0.0,0.0,0.0,0.0,0.0,0.0,0.0,0.0,0.0,0.0,0.0,0.0,0.0,0.0,0.0,0.0,0.0,0.0,0.0,0.0,0.0,0.0,0.0,0.0,0.0,0.0,0.0,0.0,0.0,0.0,0.0,0.0,0.0,0.0,-2.6555,-2.7263,0.0,0.0,0.0,0.0,-2.9002,-2.9002,-2.8652,-2.7802,-2.7769,-2.7417,-2.6658,-2.6589,-2.6555,-2.6555,-2.6521,-2.6499,-2.6499,-2.6499,-2.6499,-2.6499,-2.6499,-2.6474,-2.6449,-2.6449,-2.5894,-2.4968,-2.4892,-2.5256,-2.5867,-2.5897,-2.5303,-2.4467,-2.4404,-2.3098,-2.1362,0.0,0.0,0.0,0.0,0.0,-2.916,-2.8298,-2.8149,-2.7986,-2.7451,-2.6841,-2.6442,-2.6442,-2.5842,-2.547,-2.547,-2.547,-2.547,-2.547,-2.6074,-2.6442,-2.6442,-2.7056,-2.709,-2.6442,-2.5484,-2.5449,-2.6442,-2.5449,-2.581,-2.7384,-2.6727,-2.6761,-2.7417,-2.792,-2.833,-2.8684,-2.9535,-2.9889,-2.9889,-2.9889,-3.0238,0.0,0.0,0.0,0.0,0.0,0.0,0.0,0.0,0.0,0.0,0.0,0.0,0.0,0.0,0.0,0.0,0.0,0.0,0.0,0.0,0.0,0.0,0.0,0.0,0.0,0.0,0.0,0.0,0.0,0.0,0.0,0.0,0.0,0.0,0.0,0.0,0.0,-2.5511,-2.6358,0.0,-2.6939,-2.7196,-2.7136,-2.6476,-2.6442,-2.6017,-2.5063,-2.4992,-2.4874,-2.4576,-2.4868,-2.5006,-2.5006,-2.5284,-2.541,-2.541,-2.5121,-2.5006,-2.4995,-2.4704,-2.4576,-2.4576,-2.4576,-2.4361,-2.4013,-2.3978,-2.392,-2.3851,-2.3851,-2.3413,-2.2783,-2.2783,-2.232,-2.1653,0.0,0.0,0.0,0.0,-2.8556,-2.8266,-2.7417,-2.7284,-2.6994,-2.6117,-2.5406,-2.4862,-2.4528,-2.3891,-2.3514,-2.3514,-2.3514,-2.3514,-2.3514,-2.4108,-2.4492,-2.4492,-2.5134,-2.5182,-2.4528,-2.3854,-2.3818,-2.4492,-2.3818,-2.4181,-2.5464,-2.4814,-2.485,-2.5499,-2.6042,-2.6476,-2.682,-2.7419,-2.816,-2.9002,-2.9002,-2.9348,-2.9858,0.0,0.0,0.0,0.0,0.0,0.0,0.0,0.0,0.0,0.0,0.0,0.0,0.0,0.0,0.0,0.0,0.0,0.0,0.0,0.0,0.0,0.0,0.0,0.0,0.0,0.0,0.0,0.0,0.0,0.0,0.0,0.0,0.0,0.0,-2.4492,-2.4492,-2.4492,-2.523,-2.573,-2.573,-2.5852,-2.566,-2.4993,-2.492,-2.465,-2.397,-2.3932,-2.3932,-2.3932,-2.4256,-2.4386,-2.4386,-2.467,-2.4787,-2.4815,-2.4542,-2.4386,-2.4374,-2.4089,-2.3932,-2.3932,-2.3932,-2.3656,-2.324,-2.324,-2.2744,-2.2065,-2.2709,-2.2546,-2.1939,-2.1939,-2.1628,-2.1229,0.0,0.0,0.0,-2.7953,-2.767,-2.7384,-2.6624,-2.6452,-2.6094,-2.5123,-2.4933,-2.4528,-2.3551,-2.3441,-2.3404,-2.3404,-2.3404,-2.3404,-2.3404,-2.3441,-2.3478,-2.3514,-2.3478,-2.3441,-2.3441,-2.3404,-2.3404,-2.3441,-2.3404,-2.3441,-2.3514,-2.3478,-2.3478,-2.3514,-2.3514,-2.4036,-2.4933,-2.4933,-2.6429,-2.883,-2.8907,-2.8939,-2.8971,0.0,0.0,0.0,0.0,0.0,0.0,0.0,0.0,0.0,0.0,0.0,0.0,0.0,0.0,0.0,0.0,0.0,0.0,0.0,0.0,0.0,0.0,0.0,0.0,0.0,0.0,0.0,0.0,0.0,0.0,0.0,0.0,0.0,-2.3353,-2.3475,-2.3475,-2.3486,-2.391,-2.4212,-2.4212,-2.4548,-2.4787,-2.4748,-2.4748,-2.4748,-2.4709,-2.4709,-2.4709,-2.4709,-2.472,-2.4731,-2.4731,-2.4742,-2.4753,-2.4753,-2.4731,-2.4731,-2.4731,-2.472,-2.4709,-2.4709,-2.4709,-2.3937,-2.2684,-2.2684,-2.1841,-2.0809,-2.2675,-2.2813,-2.1952,-2.1952,-2.109,-1.9873,0.0,0.0,-2.8812,-2.7129,-2.685,-2.6748,-2.6521,-2.5873,-2.53,-2.504,-2.3745,-2.2739,-2.244,-2.1821,-2.1423,-2.1423,-2.1423,-2.1423,-2.1423,-2.2038,-2.2739,-2.3478,-2.2813,-2.2403,-2.2403,-2.1745,-2.1745,-2.2403,-2.1745,-2.2113,-2.3478,-2.2739,-2.2813,-2.3514,-2.3514,-2.3672,-2.3891,-2.3891,-2.4326,-2.5144,-2.6603,-2.7537,-2.8051,0.0,0.0,0.0,0.0,0.0,0.0,0.0,0.0,0.0,0.0,0.0,0.0,0.0,0.0,0.0,0.0,0.0,0.0,0.0,0.0,0.0,0.0,0.0,0.0,0.0,0.0,0.0,0.0,0.0,0.0,0.0,-2.2888,-2.2608,-2.2877,-2.2915,-2.3043,-2.3335,-2.411,-2.4637,-2.4637,-2.4748,-2.4513,-2.3761,-2.3722,-2.3423,-2.2737,-2.2696,-2.2696,-2.2696,-2.297,-2.3132,-2.3132,-2.3404,-2.3566,-2.3556,-2.3284,-2.3132,-2.3122,-2.2849,-2.2696,-2.2696,-2.2696,-2.2473,-2.2129,-2.2129,-2.1678,-2.1055,-2.1286,-2.1231,-2.0972,-2.0972,-2.0749,-2.0322,0.0,-2.9002,-2.846,-2.6782,-2.6499,-2.6499,-2.6499,-2.5664,-2.4862,-2.4409,-2.2999,-2.1849,-2.1451,-2.0934,-2.0605,-2.0605,-2.0605,-2.0605,-2.0605,-2.0682,-2.0787,-2.0891,0.0,-2.0032,-2.0032,-1.9483,-1.9483,-2.0032,-1.9483,-1.9788,-2.0891,-2.0294,-2.0613,-2.1618,-2.1618,-2.2081,-2.2888,-2.2888,-2.311,-2.3588,-2.4767,-2.5533,-2.5936,-2.5936,-2.6267,-2.6739,-2.7159,-2.7306,-2.7372,-2.7808,0.0,0.0,0.0,0.0,0.0,0.0,0.0,0.0,0.0,0.0,0.0,0.0,0.0,0.0,0.0,0.0,0.0,0.0,0.0,0.0,0.0,0.0,0.0,0.0,-2.2515,-2.2402,-2.2585,-2.2463,-2.2432,-2.2686,-2.3358,-2.3838,-2.3838,-2.4007,-2.3835,-2.3266,-2.3224,-2.2994,-2.2454,-2.2412,-2.2412,-2.2412,-2.2646,-2.273,-2.273,-2.2974,-2.3091,-2.3091,-2.2847,-2.273,-2.2721,-2.2519,-2.2412,-2.2412,-2.2412,-2.2314,-2.2148,-2.2148,-2.1894,-2.1465,0.0,0.0,0.0,0.0,-1.9923,-1.9806,0.0,-2.9002,-2.846,-2.6782,-2.6499,-2.6499,-2.6499,-2.5546,-2.4528,-2.3635,-2.2515,-2.1517,-2.0683,-2.0605,-2.0557,-2.044,-2.0401,-2.0362,-2.0245,-1.9362,-1.835,-1.7334,-1.7302,-1.7302,-1.7302,-1.7302,-1.7302,-1.7302,-1.7302,-1.7302,-1.7302,-1.7302,-1.7827,-1.8798,-1.8798,-1.9797,-2.1486,-2.1611,-2.2167,-2.2988,-2.311,-2.3294,-2.3514,-2.3514,-2.3514,-2.3635,-2.4528,-2.4826,-2.4969,-2.5873,0.0,0.0,0.0,0.0,0.0,0.0,0.0,0.0,0.0,0.0,0.0,0.0,0.0,0.0,0.0,0.0,0.0,0.0,0.0,0.0,0.0,0.0,0.0,0.0,-2.2281,-2.21,-2.2519,-2.2266,-2.2031,-2.2031,-2.2353,-2.2578,-2.2578,-2.2877,-2.3091,-2.3091,-2.3091,-2.3091,-2.3091,-2.3091,0.0,0.0,0.0,-2.3091,-2.3091,-2.3091,-2.3091,-2.3091,-2.3091,-2.3047,-2.2906,-2.2906,-2.2818,-2.2677,-2.2677,-2.2476,-2.2141,-2.2141,-2.1934,-2.1521,-2.1173,-2.0749,-2.0284,-1.9195,-1.8798,-1.8678,0.0,-2.9002,-2.846,-2.6782,-2.6499,-2.6499,-2.6499,-2.4957,-2.3708,-2.3514,-2.1973,-2.0789,-2.0605,-2.0605,-2.0245,-1.9362,-1.9323,-1.8917,-1.798,-1.7738,-1.7536,-1.7302,-1.7302,-1.7302,-1.7302,-1.7302,-1.7302,-1.7302,-1.7302,-1.7302,-1.7302,-1.7302,-1.7415,-1.7626,-1.7626,-1.7851,-1.8284,-1.9177,-1.9689,-1.9953,-2.0798,-2.2086,-2.3514,-2.3514,-2.3514,-2.3514,-2.3708,-2.3781,-2.3818,-2.3988,-2.4061,-2.4061,-2.4061,0.0,0.0,0.0,0.0,0.0,0.0,0.0,0.0,0.0,0.0,0.0,0.0,0.0,0.0,0.0,0.0,0.0,0.0,0.0,0.0,-2.249,-2.2451,-2.2539,-2.2916,-2.2906,-2.2847,-2.2847,-2.2925,-2.2974,-2.2974,-2.3052,-2.3091,-2.3091,-2.3091,-2.3091,-2.3091,-2.3091,-2.3091,-2.3091,-2.3091,-2.3091,-2.3091,-2.3091,-2.3091,-2.3091,-2.3091,0.0,-2.1667,-2.1667,-2.1123,-2.0223,-2.0223,-2.0135,-2.0067,-2.0067,-1.98,-1.9435,-1.9781,-1.9672,-1.9155,-1.8029,-1.7626,-1.7585,0.0,-2.9002,-2.846,-2.6782,-2.6499,-2.6499,-2.6499,-2.4803,-2.3514,-2.3514,-2.1821,-2.0605,-2.0605,-2.0605,-2.0362,-1.9844,-1.9323,-1.831,-1.6601,-1.6519,-1.6281,-1.5718,-1.5718,-1.5718,-1.5718,-1.5718,-1.5718,-1.5718,-1.5718,-1.5718,-1.5718,-1.5718,-1.6,-1.6519,-1.6519,-1.6805,-1.7334,-1.7908,-1.8149,-1.8189,-1.8749,-1.9543,-2.0507,-2.1638,-2.2048,-2.2124,-2.259,-2.2739,-2.2813,-2.3331,-2.3514,-2.3514,-2.3514,-2.3514,-2.3514,0.0,0.0,0.0,0.0,0.0,0.0,0.0,0.0,0.0,0.0,0.0,0.0,0.0,0.0,-2.2201,-2.196,0.0,-2.2266,-2.248,-2.2141,-2.1983,-2.2189,-2.1676,-2.1774,-2.296,-2.3091,-2.3091,-2.3091,-2.3091,-2.3091,-2.3091,-2.2536,-2.2217,-2.2217,-2.1632,-2.1311,-2.1311,-2.1311,-2.1311,-2.1311,-2.1311,-2.1311,-2.1311,-2.1311,-2.0989,-2.0395,-2.0395,-2.0079,-1.9497,-1.9497,-1.9497,-1.9497,-1.9497,-1.9237,-1.8778,-1.8496,-1.8414,-1.8245,-1.6951,-1.6519,-1.6437,0.0,-2.9129,-2.846,-2.6782,-2.6499,-2.6499,-2.6499,-2.4803,-2.3514,-2.3514,-2.1821,-2.0605,-2.0605,-2.0605,-2.044,-2.0001,-1.8988,-1.7496,-1.5504,-1.5379,-1.5019,-1.413,-1.4088,-1.4088,-1.4088,-1.4088,-1.4088,-1.4088,-1.4088,-1.4088,-1.4088,-1.4088,-1.4573,-1.5379,-1.5379,-1.5869,-1.669,-1.6887,-1.6968,-1.7009,-1.722,-1.7302,-1.7496,-1.9274,-2.0079,-2.0391,-2.1163,-2.1535,-2.1849,-2.2664,-2.2936,-2.2936,-2.2936,-2.2936,-2.2936,-2.2936,-2.2936,0.0,0.0,0.0,0.0,0.0,0.0,0.0,0.0,-2.1457,-2.178,-2.1379,-2.1482,-2.1636,-2.1461,-2.1693,-2.1921,-2.1921,-2.1368,-2.0935,-2.0935,-2.0124,-2.0223,-2.2183,-2.2403,-2.2403,-2.2403,-2.2403,-2.2403,-2.2403,-2.1489,-2.0935,-2.0935,-2.0034,-1.9497,-1.9497,-1.9497,-1.9497,-1.9497,-1.9497,-1.9497,-1.9497,-1.9497,-1.936,-1.9131,-1.9131,-1.9039,-1.8764,-1.8764,-1.8764,-1.8764,-1.8764,-1.8551,-1.811,-1.7191,-1.7031,-1.7101,-1.5928,-1.5431,-1.5262,0.0,-2.9535,-2.846,-2.6782,-2.6499,-2.6499,-2.6499,-2.4803,-2.3514,-2.3514,-2.1821,-2.0605,-2.0605,-2.0605,-1.9795,-1.7819,-1.6683,-1.5538,-1.437,-1.4292,-1.4208,-1.413,-1.4088,-1.4088,-1.4088,-1.4088,-1.4088,-1.4088,-1.4088,-1.4088,-1.4088,-1.4088,-1.4166,-1.4292,-1.4292,-1.4334,-1.4538,-1.5462,-1.5861,-1.5944,-1.6927,-1.7302,-1.7342,-1.7577,-1.831,-1.9195,-1.9313,-1.9943,-2.0789,-2.0905,-2.0934,-2.0934,-2.0934,-2.0934,-2.0934,-2.0934,-2.0934,-2.0934,-2.0934,-2.1115,-2.1272,-2.1162,-2.1494,-2.1549,0.0,-2.1051,-2.1379,-1.953,-2.0035,-2.063,-1.99,-1.9813,-1.9847,-1.9847,-1.9736,-1.9716,-1.9716,-1.9588,-1.9579,-1.9852,-1.9906,-1.9906,-1.9906,-1.9906,-1.9906,-1.9906,-1.977,-1.9716,-1.9716,-1.9579,-1.9497,-1.9497,-1.9497,-1.9497,-1.9497,-1.9497,-1.9497,-1.9497,-1.9497,-1.8956,-1.7917,-1.7917,-1.7264,-1.6197,-1.6197,-1.6197,-1.6197,-1.6197,-1.6177,-1.6122,-1.5723,-1.5463,-1.527,-1.4787,-1.4473,-1.425,0.0,0.0,-2.862,-2.7417,-2.6816,-2.6499,-2.6499,-2.4803,-2.3514,-2.3514,-2.1821,-2.0605,-2.0605,-2.0605,-1.9717,-1.7496,-1.6887,-1.5918,-1.4208,-1.4088,-1.4088,-1.4088,-1.4088,-1.4088,-1.4088,-1.4088,-1.4088,-1.4088,-1.4088,-1.4088,-1.4088,-1.4088,-1.4088,-1.4088,-1.4088,-1.4088,-1.413,-1.4573,-1.4776,-1.4817,-1.5269,-1.5428,-1.5428,-1.5428,-1.6116,-1.7163,-1.7779,-1.8709,0.0,0.0,-2.0079,-2.0605,-2.0605,-2.0605,-2.0605,-2.0605,-2.0605,-2.0498,-2.0047,-1.9589,-1.9277,-1.9415,-1.9759,-1.9955,-1.9418,-1.9904,-2.0254,-1.9367,-1.9625,-1.99,-1.9555,-1.9497,-1.9497,-1.9497,-1.891,-1.8457,-1.8457,-1.7809,-1.7343,-1.7343,-1.7343,-1.7894,-1.9351,-1.9497,-1.9497,-1.9497,-1.8864,-1.8457,-1.8457,-1.7762,-1.7343,-1.7343,-1.7343,-1.7343,-1.7343,-1.7343,-1.7343,-1.7343,-1.7343,-1.707,-1.6574,-1.6574,-1.6292,-1.5784,-1.5784,-1.5784,-1.5784,-1.5784,-1.5784,-1.5771,-1.5698,-1.5471,-1.5157,-1.4689,-1.4335,-1.4088,0.0,0.0,0.0,-2.8182,-2.7196,-2.6499,-2.6499,-2.4803,-2.3514,-2.3514,-2.1821,-2.0605,-2.0605,-2.0605,-1.9835,-1.7948,-1.7404,-1.6417,-1.465,-1.4169,-1.4001,-1.4082,-1.4088,-1.4088,-1.4088,-1.3779,-1.3603,-1.3603,-1.33,-1.313,-1.313,-1.347,-1.3603,-1.3603,-1.3955,-1.4088,-1.4088,-1.4088,-1.4088,-1.4088,-1.4088,-1.4088,-1.4088,-1.4088,-1.4573,-1.5379,-1.6478,-1.7577,0.0,0.0,-1.9036,-1.9678,-1.9678,-1.9678,-1.9678,-1.9678,-1.9762,-1.9703,-1.9135,-1.8523,-1.8114,-1.8333,-1.8704,-1.8921,-1.8563,-1.9035,-1.9314,-1.8626,-1.8764,-1.8902,-1.8534,-1.8488,-1.8488,-1.8488,-1.777,-1.7178,-1.7178,-1.6386,-1.5784,-1.5784,-1.5905,-1.6646,-1.8443,-1.8542,-1.8488,-1.8488,-1.7677,-1.7221,-1.7308,-1.6422,-1.5985,-1.6066,-1.6072,-1.6072,-1.6072,-1.6072,-1.6072,-1.6072,-1.5992,-1.5952,-1.5945,-1.5818,-1.5784,-1.5784,-1.5784,-1.5784,-1.5784,-1.5784,-1.5784,-1.5784,-1.5784,-1.5651,-1.5298,-1.4501,-1.4211,-1.4153,0.0,0.0,0.0,0.0,-2.7604,-2.6499,-2.6499,-2.4803,-2.3514,-2.3514,-2.1821,-2.0605,-2.0605,-2.0605,-2.0157,-1.9045,-1.7716,-1.654,-1.5722,-1.4371,-1.374,-1.4075,-1.4088,-1.4088,-1.4088,-1.2942,-1.237,-1.237,-1.1252,-1.0697,-1.074,-1.1858,-1.237,-1.2413,-1.3561,-1.4088,-1.4088,-1.4088,-1.4088,-1.4088,-1.4088,-1.4088,-1.4088,-1.4088,-1.413,-1.4292,-1.5379,0.0,0.0,0.0,-1.7374,-1.7415,-1.7415,-1.7415,0.0,-1.7415,-1.7631,-1.787,-1.7837,-1.8304,-1.8786,-1.8855,-1.9171,-1.916,-1.7994,-1.8626,-1.881,-1.6426,-1.6897,-1.7365,-1.615,-1.592,-1.592,-1.592,-1.5872,-1.5879,-1.5879,-1.5825,-1.5784,-1.5784,-1.6086,-1.6308,-1.6405,-1.6095,-1.592,-1.592,-1.5879,-1.6,-1.6343,-1.6308,-1.6386,-1.6667,-1.668,-1.668,-1.668,-1.668,-1.668,-1.6673,-1.6393,-1.6259,-1.6253,-1.5965,-1.5784,-1.5784,-1.5784,-1.5784,-1.5784,-1.5784,-1.5784,-1.5784,-1.5784,-1.5651,-1.5246,-1.3898,-1.3882,-1.4282,0.0,0.0,0.0,0.0,0.0,-2.7129,-2.6589,-2.4803,-2.3514,-2.3514,-2.1821,0.0,0.0,0.0,0.0,0.0,-1.7107,-1.6042,-1.5046,-1.3947,-1.34,-1.35,-1.3507,-1.3507,-1.3507,-1.2459,-1.2334,-1.3147,-1.2129,-1.1663,-1.1729,-1.2109,-1.1895,-1.1209,-1.2376,-1.2899,-1.2942,-1.3779,-1.4088,-1.4088,-1.4088,-1.4088,-1.4088,-1.4088,-1.4088,-1.413,0.0,0.0,0.0,0.0,0.0,-1.7302,-1.7302,-1.7302,-1.7302,-1.7302,-1.7012,-1.6703,-1.6926,-1.6803,-1.6605,-1.6814,-1.6944,-1.6929,-1.652,-1.6749,-1.6796,-1.5967,-1.6157,-1.6298,-1.5879,-1.5784,-1.5784,-1.5784,-1.5784,-1.5784,-1.5784,-1.5784,-1.5905,-1.6099,-1.6213,-1.6346,-1.654,-1.6466,-1.6413,-1.6413,-1.6413,-1.6453,-1.6553,-1.656,-1.6607,-1.67,-1.6707,-1.6707,-1.6707,-1.6707,-1.6707,-1.67,-1.6413,-1.6321,-1.6308,-1.5965,-1.5784,-1.5784,-1.5784,-1.5784,-1.573,-1.4902,-1.4555,-1.4459,-1.3547,-1.3154,-1.3017,-1.2367,-1.23,-1.2385,0.0,0.0,0.0,0.0,0.0,0.0,0.0,0.0,0.0,0.0,0.0,0.0,0.0,0.0,0.0,0.0,0.0,-1.5832,-1.5204,-1.386,-1.3093,-1.3206,-1.3213,-1.3213,-1.3213,-1.1782,-1.1451,-1.2278,-1.0867,-1.0235,-1.0361,-1.083,-1.0658,-1.0053,-1.1595,-1.2285,-1.237,-1.3597,-1.4088,-1.4088,-1.4088,-1.4088,-1.4088,-1.4088,-1.4088,0.0,0.0,0.0,0.0,0.0,-1.5587,-1.6165,-1.6165,-1.6165,-1.6165,-1.6165,-1.594,-1.5734,-1.5985,-1.5777,-1.5591,-1.5785,-1.5784,-1.5784,-1.5784,-1.5784,-1.5784,-1.5784,-1.5784,-1.5784,-1.5784,-1.5784,-1.5784,-1.5784,-1.5784,-1.5784,-1.5784,-1.5919,-1.6059,-1.6253,-1.6509,-1.671,-1.6847,-1.6961,-1.6934,-1.672,-1.6707,-1.6754,-1.6854,-1.6867,-1.6914,-1.7014,-1.7021,-1.7021,-1.7021,-1.7021,-1.6967,-1.686,-1.6723,-1.6529,-1.6266,-1.5577,-1.5188,-1.5099,-1.4609,-1.4418,-1.4322,-1.3542,-1.3199,-1.3102,-1.2237,-1.1896,-1.1833,-1.1202,-1.091,-1.0834,0.0,0.0,0.0,0.0,0.0,0.0,0.0,0.0,0.0,0.0,0.0,0.0,0.0,0.0,0.0,0.0,0.0,0.0,-1.6145,-1.407,-1.2929,-1.3153,-1.316,-1.316,-1.316,-1.1038,-0.9994,-1.0044,-0.7947,-0.7014,-0.7168,-0.8302,-0.8858,-0.9035,-1.1262,-1.225,-1.2353,-1.3578,-1.4075,-1.4088,-1.4088,-1.4088,-1.4088,-1.4088,0.0,0.0,0.0,0.0,0.0,-1.4088,-1.4088,-1.4088,-1.4088,-1.4088,-1.4088,-1.4108,-1.4559,-1.5015,-1.5028,-1.5398,-1.5784,-1.5784,-1.5784,-1.5784,-1.5784,-1.5784,-1.5784,-1.5784,-1.5784,-1.5784,-1.5784,-1.5791,-1.5852,-1.5852,-1.5818,-1.5872,-1.5872,-1.6119,-1.6348,-1.6319,-1.6857,-1.7206,-1.7226,-1.7474,-1.7355,-1.6794,-1.6747,-1.6874,-1.7206,-1.7226,-1.7347,-1.7575,-1.7582,-1.7582,-1.7582,-1.7582,-1.7442,-1.7226,-1.7154,-1.6803,-1.6215,-1.4838,-1.4039,-1.3746,-1.2446,-1.1912,-1.1896,-1.1848,-1.1804,-1.1804,-1.175,-1.1702,-1.1556,-1.0342,-0.9835,-0.9629,0.0,0.0,0.0,0.0,0.0,0.0,0.0,0.0,0.0,0.0,0.0,0.0,0.0,0.0,0.0,0.0,0.0,0.0,-1.5499,-1.4202,-1.3181,-1.2563,-1.2532,-1.2532,-1.2532,-1.1254,-1.1077,-1.2067,-1.0729,-1.0141,-1.032,-1.0646,-1.031,-0.9542,-1.1018,-1.1823,-1.2087,-1.3239,-1.3881,-1.4088,0.0,-1.4088,-1.4088,0.0,0.0,0.0,0.0,0.0,-1.4088,-1.4088,-1.4088,-1.4088,-1.4088,-1.4088,-1.4128,-1.4349,-1.4669,-1.5055,-1.5224,-1.5551,-1.5784,-1.5784,-1.5784,-1.5784,-1.5784,-1.5784,-1.5784,-1.5784,-1.5784,-1.5784,-1.5784,-1.6012,-1.6159,-1.6159,-1.6339,-1.648,-1.648,-1.6547,-1.668,-1.6951,-1.7112,-1.7286,-1.7507,-1.7542,-1.7522,-1.7368,-1.7361,-1.7395,-1.7468,-1.7521,-1.7508,-1.7582,-1.7582,-1.7582,-1.7582,-1.7582,-1.7549,-1.7468,-1.6185,-1.5494,-1.5303,-1.3614,-1.2798,-1.2628,-1.2282,-1.2042,-1.1848,-1.0877,-1.0485,-1.0391,-0.9361,-0.897,-0.897,-0.8627,-0.8502,-0.8441,0.0,0.0,0.0,0.0,0.0,0.0,0.0,0.0,0.0,0.0,0.0,0.0,0.0,0.0,0.0,0.0,0.0,0.0,0.0,-1.4486,-1.3455,-1.2952,-1.2519,-1.2305,-1.2305,-1.1316,-1.116,-1.1929,-1.0865,-1.0451,-1.0637,-1.0637,-1.0293,-0.9751,-1.0957,-1.1566,-1.1782,-1.2949,0.0,0.0,0.0,0.0,0.0,0.0,0.0,0.0,0.0,0.0,-1.4088,-1.4088,-1.4088,-1.4088,-1.4088,-1.4175,-1.4309,-1.4476,-1.4823,-1.519,-1.5351,-1.5611,-1.5784,-1.5784,-1.5784,-1.5784,-1.5784,-1.5784,-1.5784,-1.5784,-1.5784,-1.5784,-1.5784,-1.6072,-1.6321,-1.6321,-1.652,-1.6707,-1.6707,-1.682,-1.7012,-1.7186,-1.7313,-1.7454,-1.7569,-1.7582,-1.7582,-1.7582,-1.7582,-1.7582,-1.7582,-1.7582,-1.7582,-1.7582,-1.7582,-1.7582,-1.7582,-1.7582,-1.7259,-1.6605,-1.5646,-1.4774,-1.398,-1.2439,-1.1596,-1.1397,-1.0758,-1.0414,-1.0265,-0.9442,-0.9118,-0.9069,-0.8283,-0.7988,-0.7988,-0.7988,-0.7988,-0.7978,0.0,0.0,0.0,0.0,0.0,0.0,0.0,0.0,0.0,0.0,-2.1919,0.0,0.0,0.0,0.0,0.0,0.0,0.0,0.0,0.0,0.0,-1.3882,-1.2989,-1.2482,-1.2482,-1.1502,-1.1013,-1.1013,-1.0121,-0.9769,-0.9875,0.0,0.0,0.0,0.0,0.0,0.0,0.0,0.0,0.0,0.0,0.0,0.0,0.0,0.0,0.0,0.0,-1.4088,-1.4088,-1.4088,-1.4088,-1.4088,-1.4088,-1.4282,-1.4529,-1.4569,-1.4963,-1.5404,-1.5444,-1.5638,-1.5784,-1.5784,-1.5784,-1.5784,-1.5784,-1.5784,-1.5784,-1.5784,-1.5784,-1.5791,-1.5879,-1.6132,-1.6388,-1.6429,-1.6633,-1.682,-1.682,-1.7048,-1.7259,-1.7259,-1.7481,-1.7582,-1.7582,-1.7417,-1.7312,-1.7312,-1.7147,-1.7199,-1.7582,-1.7582,-1.7523,-1.7312,-1.7312,-1.7206,-1.7041,-1.7041,-1.6387,-1.5097,-1.4931,-1.4019,-1.2553,-1.1234,-1.0445,-1.0112,-0.8895,-0.8306,-0.831,-0.8126,-0.8008,-0.7988,-0.7988,-0.7988,-0.7988,-0.7988,-0.7988,-0.7988,0.0,0.0,0.0,0.0,0.0,0.0,0.0,0.0,0.0,0.0,-2.3181,-2.2173,0.0,0.0,0.0,0.0,0.0,0.0,0.0,0.0,0.0,-1.4985,-1.3991,-1.3455,-1.3455,-1.2549,-1.2033,-1.2033,-1.1885,-1.18,-1.1807,0.0,0.0,0.0,0.0,0.0,0.0,0.0,0.0,0.0,0.0,0.0,0.0,0.0,0.0,0.0,0.0,-1.4088,-1.4088,0.0,-1.4088,-1.4088,-1.4088,-1.4282,-1.4569,-1.4816,-1.513,-1.5451,-1.5691,-1.5744,-1.5784,-1.5784,-1.5784,-1.5784,-1.5784,-1.5784,-1.5784,-1.5784,-1.5784,-1.5905,-1.6152,-1.6433,-1.6714,-1.7012,-1.7293,-1.7428,-1.7428,-1.7475,-1.7508,-1.7508,-1.7555,-1.7582,-1.7582,-1.6499,-1.5796,-1.5796,-1.4716,-1.5097,-1.7477,-1.7582,-1.7041,-1.5796,-1.5796,-1.5204,-1.4073,-1.4073,-1.3911,-1.3642,-1.2457,-1.1683,-1.1326,-0.9925,-0.9138,-0.8987,-0.8749,-0.8496,-0.832,-0.8241,-0.8153,-0.7988,-0.7988,-0.7988,-0.7988,-0.7988,-0.7988,-0.7988,0.0,0.0,0.0,0.0,0.0,0.0,0.0,-2.767,-2.6583,-2.5064,-2.4466,-2.3171,-2.0555,-1.969,-1.9144,0.0,0.0,0.0,0.0,0.0,0.0,0.0,-1.4985,-1.4494,-1.4494,-1.4055,-1.3803,-1.3803,0.0,-1.3025,-1.3025,-1.2519,-1.2305,-1.2305,-1.2305,-1.2378,-1.2556,-1.2556,-1.2599,-1.2752,-1.2906,-1.3153,0.0,0.0,0.0,0.0,0.0,0.0,-1.4088,0.0,-1.4088,-1.4115,-1.4262,-1.4516,-1.481,-1.5104,-1.5391,-1.5651,-1.5792,-1.5784,-1.5784,-1.5784,-1.5784,-1.5784,-1.5784,-1.5784,-1.5784,-1.5784,-1.5784,-1.5919,-1.6219,-1.6513,-1.68,-1.7152,-1.7447,-1.7582,-1.7582,-1.7582,-1.7582,-1.7582,-1.6929,-1.6446,-1.6446,-1.515,-1.4288,-1.4288,-1.3696,-1.3911,-1.5316,-1.5364,-1.5043,-1.4341,-1.4288,-1.3965,-1.3318,-1.3318,-1.2891,-1.2132,-1.1433,-1.0672,-0.9915,-0.921,-0.8844,-0.8825,-0.8747,-0.8584,-0.8374,-0.835,-0.818,-0.7988,-0.7988,-0.7988,-0.7988,-0.7988,-0.7988,-0.7988,0.0,0.0,0.0,0.0,0.0,0.0,-2.9129,-2.8279,-2.7301,-2.6149,-2.5409,-2.405,-2.16,-2.0464,-1.9726,0.0,0.0,0.0,0.0,0.0,0.0,0.0,0.0,-1.5517,-1.5517,0.0,0.0,-1.5199,-1.4422,0.0,0.0,0.0,0.0,0.0,-1.2908,-1.2908,-1.2915,-1.2696,-1.2592,0.0,0.0,-1.2918,0.0,0.0,0.0,0.0,0.0,0.0,-1.4088,-1.4088,-1.4088,-1.4148,-1.4502,-1.4776,-1.5068,-1.5311,-1.5605,-1.5784,-1.5784,-1.5784,-1.5784,-1.5784,-1.5784,-1.5784,-1.5784,-1.5784,-1.5784,-1.5784,-1.5784,-1.5939,-1.6299,-1.6553,-1.682,-1.7233,-1.7435,-1.7582,-1.7582,-1.7582,-1.747,-1.7147,-1.6121,-1.5257,-1.4984,-1.3642,-1.2837,-1.2837,-1.2566,-1.262,-1.3264,-1.3318,-1.3156,-1.2837,-1.2837,-1.2674,-1.2349,-1.2349,-1.1755,-1.0621,-1.0621,-1.0021,-0.8885,-0.8885,-0.8885,-0.8875,-0.8811,-0.8672,-0.852,-0.8374,-0.8225,-0.8035,-0.8002,-0.7988,-0.7988,-0.7988,-0.7988,-0.7988,0.0,0.0,0.0,0.0,0.0,0.0,-2.9129,-2.8279,-2.7216,-2.5831,-2.5589,-2.5043,-2.381,-2.2457,-2.1005,0.0,0.0,0.0,0.0,0.0,0.0,0.0,0.0,0.0,0.0,0.0,0.0,-1.5199,-1.5128,0.0,0.0,0.0,0.0,0.0,0.0,-1.4914,-1.4879,-1.3954,0.0,0.0,0.0,0.0,0.0,0.0,0.0,0.0,0.0,-1.4088,-1.4088,-1.4088,-1.4088,-1.4188,-1.4794,-1.4988,-1.5068,-1.5311,-1.5605,-1.5784,-1.5784,-1.5784,-1.5784,-1.5784,-1.5784,-1.5784,-1.5784,-1.5784,-1.5784,-1.5784,-1.5784,-1.5999,-1.6567,-1.6687,-1.6887,-1.7448,-1.7562,-1.7582,-1.7582,-1.7582,-1.7094,-1.5743,-1.547,-1.4877,-1.3642,-1.2186,-1.1324,-1.1324,-1.0076,-1.0457,-1.3156,-1.3318,-1.2674,-1.1324,-1.1324,-1.0676,-0.932,-0.932,-0.921,-0.9099,-0.9099,-0.9047,-0.8885,-0.8885,-0.8885,-0.8885,-0.8868,-0.8832,-0.8676,-0.8526,-0.8377,-0.8235,-0.8096,-0.7988,-0.7988,-0.7988,-0.7988,-0.7988,0.0,0.0,0.0,0.0,0.0,0.0,-2.9919,-2.9034,-2.7999,-2.6557,-2.5917,-2.531,-2.4569,-2.3697,-2.2549,-2.1008,0.0,0.0,0.0,0.0,0.0,0.0,0.0,0.0,0.0,0.0,-1.6906,-1.6906,-1.6324,0.0,0.0,0.0,0.0,0.0,0.0,-1.5199,-1.5163,-1.4772,0.0,0.0,0.0,0.0,0.0,0.0,0.0,0.0,0.0,0.0,-1.4088,-1.4088,-1.4088,-1.4162,-1.4569,-1.4823,0.0,-1.5518,-1.5738,-1.5784,-1.5784,-1.5784,-1.5784,-1.5784,-1.5784,-1.5784,-1.5784,-1.5784,-1.5784,-1.5784,-1.5784,-1.5957,-1.6593,-1.6707,-1.6901,-1.7488,-1.7582,-1.7582,-1.7582,-1.7582,-1.7041,-1.5577,-1.4663,-1.3588,-1.2132,-1.0621,-0.9754,-0.9754,-0.921,-0.9427,-1.0566,-1.0672,-1.0406,-0.9809,-0.9754,-0.9482,-0.8885,-0.8885,-0.8885,-0.8885,-0.8885,-0.8885,-0.8885,-0.8885,-0.8885,-0.8885,-0.8885,-0.8797,-0.8706,-0.8645,-0.853,-0.8384,-0.8238,-0.8177,-0.8167,-0.8022,-0.7487,-0.6783,0.0,0.0,0.0,0.0,0.0,-3.1219,-3.0419,-2.9566,-2.8566,-2.7298,-2.6391,-2.5649,-2.5109,-2.4707,-2.4009,-2.2856,-2.1666,0.0,0.0,0.0,0.0,0.0,0.0,0.0,0.0,0.0,-1.8008,-1.8008,-1.7354,-1.6991,0.0,0.0,-1.6018,-1.6018,0.0,0.0,0.0,0.0,0.0,0.0,0.0,0.0,0.0,0.0,0.0,0.0,0.0,0.0,0.0,0.0,0.0,-1.4135,0.0,0.0,0.0,0.0,-1.5758,-1.5784,-1.5784,-1.5784,-1.5784,-1.5784,-1.5784,-1.5784,-1.5784,-1.5784,-1.5784,-1.5784,-1.5784,-1.5957,-1.6593,-1.6707,-1.6901,-1.7488,-1.7582,-1.7582,-1.7582,-1.7199,-1.6393,-1.4931,-1.3534,-1.2082,-1.0566,-0.9537,-0.8885,-0.8885,-0.8885,-0.8885,-0.8885,-0.8885,-0.8885,-0.8885,-0.8885,-0.8885,-0.8885,-0.8885,-0.8885,-0.8885,-0.8885,-0.8885,-0.8885,-0.8885,-0.8885,-0.8885,-0.8885,-0.8821,-0.8774,-0.873,-0.8648,-0.8533,-0.8391,-0.8357,-0.8255,-0.7686,-0.6862,-0.5929,0.0,0.0,0.0,0.0,0.0,0.0,-3.0419,-2.9566,-2.8684,-2.7822,-2.6994,-2.626,-2.5649,-2.5586,-2.5372,-2.4813,-2.3004,0.0,0.0,0.0,0.0,0.0,0.0,0.0,0.0,0.0,-1.8008,-1.8008,-1.7974,-1.7974,-1.7974,-1.7974,-1.7974,-1.7974,0.0,0.0,0.0,0.0,0.0,0.0,0.0,0.0,-1.6149,0.0,0.0,0.0,0.0,0.0,0.0,0.0,0.0,0.0,0.0,-1.4479,-1.4643,0.0,-1.5605,-1.5784,-1.5784,-1.5784,-1.5784,-1.5784,-1.5784,-1.5784,-1.5784,-1.5784,-1.5784,-1.5784,-1.5784,-1.5957,-1.6593,-1.6707,-1.6901,-1.7488,-1.7582,-1.7582,-1.7582,-1.6333,-1.4877,-1.348,-1.2023,-1.0566,-0.9044,-0.8885,-0.8885,-0.8885,-0.8885,-0.8885,-0.8885,-0.8885,-0.8885,-0.8885,-0.8885,-0.8885,-0.8885,-0.8885,-0.8885,-0.8885,-0.8885,-0.8885,-0.8885,-0.8885,-0.8885,-0.8885,-0.8885,-0.8881,-0.8868,-0.8774,-0.871,-0.8693,-0.854,-0.8394,-0.8115,-0.6807,-0.6172,-0.5827,0.0,0.0,0.0,0.0,0.0,0.0,-3.0419,-3.0072,-2.9348,-2.7887,-2.7484,-2.7031,-2.6303,-2.5871,-2.5523,-2.536,-2.4121,0.0,0.0,0.0,0.0,0.0,0.0,0.0,0.0,0.0,-1.8008,-1.8008,-1.8008,-1.8008,-1.8008,-1.8008,-1.8008,-1.8008,-1.8008,-1.8008,0.0,0.0,0.0,0.0,0.0,-1.7234,-1.7095,0.0,0.0,0.0,0.0,0.0,0.0,0.0,0.0,0.0,0.0,0.0,0.0,-1.4743,-1.515,-1.5578,-1.5724,-1.5784,-1.5784,-1.5784,-1.5784,-1.5784,-1.5784,-1.5784,-1.5784,-1.5784,-1.5784,-1.5957,-1.6593,-1.6707,-1.6901,-1.7488,-1.7582,-1.7259,-1.6227,-1.5689,-1.4502,-1.2077,-1.0511,-0.9427,-0.8937,-0.8885,-0.8885,-0.8885,-0.8885,-0.8885,-0.8885,-0.8885,-0.8885,-0.8885,-0.8885,-0.8885,-0.8885,-0.8885,-0.8885,-0.8885,-0.8885,-0.8885,-0.8885,-0.8885,-0.8885,-0.8885,-0.8885,-0.8885,-0.8878,-0.8831,-0.8811,-0.8739,-0.7552,-0.7102,-0.6898,-0.5332,-0.4107,-0.3228,0.0,0.0,0.0,0.0,0.0,0.0,-3.0837,-3.0494,-2.9797,-2.8363,-2.7887,-2.7384,-2.6589,-2.6172,-2.5925,-2.5925,-2.5109,0.0,0.0,0.0,0.0,0.0,0.0,0.0,-2.0268,-1.9431,-1.8821,-1.8496,-1.8496,-1.8337,-1.8008,-1.8008,-1.8008,-1.8008,-1.8008,-1.8008,0.0,0.0,0.0,0.0,-1.8402,-1.8443,-1.8202,0.0,0.0,0.0,0.0,0.0,0.0,0.0,0.0,0.0,0.0,0.0,0.0,0.0,-1.4856,-1.5297,-1.5585,-1.5698,-1.5784,-1.5784,-1.5784,-1.5784,-1.5784,-1.5784,-1.5784,-1.5784,-1.5784,-1.5957,-1.6593,-1.6707,-1.6742,-1.6786,-1.677,-1.628,-1.4824,-1.4126,-1.2886,-1.0566,-0.9482,-0.8885,-0.8885,-0.8885,-0.8885,-0.8885,-0.8885,-0.8885,-0.8885,-0.8885,-0.8885,-0.8885,-0.8885,-0.8885,-0.8885,-0.8885,-0.8885,-0.8885,-0.8885,-0.8885,-0.8885,-0.8885,-0.8885,-0.8885,-0.8885,-0.8885,0.0,-0.8322,-0.8045,-0.7922,-0.6346,-0.5693,-0.5435,-0.3874,-0.2758,-0.1934,0.0,0.0,0.0,0.0,0.0,0.0,0.0,-3.0748,-2.9889,-2.9034,-2.8214,-2.7384,-2.6589,-2.6499,-2.6499,-2.6499,-2.5996,0.0,0.0,0.0,0.0,0.0,0.0,0.0,-2.1908,-2.1037,-2.0204,-1.9398,-1.9398,-1.8977,-1.8168,-1.811,-1.8076,-1.8076,-1.8042,-1.8008,0.0,0.0,0.0,0.0,-1.9365,-1.9639,0.0,0.0,0.0,0.0,0.0,0.0,0.0,0.0,0.0,0.0,0.0,0.0,0.0,0.0,0.0,0.0,0.0,-1.5591,-1.5784,-1.5784,-1.5784,-1.5784,-1.5784,-1.5784,0.0,-1.5784,-1.5798,-1.6032,-1.66,-1.662,-1.6298,-1.5553,-1.531,-1.477,-1.3318,-1.1864,-1.0457,-0.9047,-0.8885,-0.8885,-0.8885,-0.8885,-0.8885,-0.8885,-0.8885,-0.8885,-0.8885,-0.8885,-0.8885,-0.8885,-0.8885,-0.8885,-0.8885,-0.8885,-0.8885,-0.8885,-0.8885,-0.8885,-0.8885,-0.8885,-0.8885,-0.8885,-0.8885,-0.883,-0.8657,-0.726,-0.6647,-0.6422,-0.4916,-0.4205,-0.3875,-0.2568,-0.1947,-0.1705,0.0,0.0,0.0,0.0,0.0,0.0,0.0,0.0,0.0,0.0,-2.7835,-2.7384,-2.6589,-2.6499,-2.6499,0.0,0.0,0.0,0.0,0.0,0.0,0.0,0.0,0.0,-2.192,-2.1037,-2.0494,-2.0301,-2.0301,-2.0204,-1.9977,-1.9309,-1.8977,-1.8977,-1.8303,-1.8008,0.0,0.0,0.0,0.0,-1.9043,-1.9375,0.0,0.0,0.0,0.0,-1.7706,-1.6601,0.0,0.0,0.0,0.0,0.0,0.0,0.0,0.0,-1.4396,-1.4689,-1.5028,0.0,-1.5784,-1.5784,-1.5784,-1.5784,0.0,-1.5784,-1.5784,-1.5784,-1.6012,-1.6279,-1.664,-1.6005,-1.5417,-1.5417,-1.4502,-1.3264,-1.181,-1.0351,-0.9261,-0.8937,-0.8885,-0.8885,-0.8885,-0.8885,-0.8885,-0.8885,-0.8885,-0.8885,-0.8885,-0.8885,-0.8885,-0.8885,-0.8885,-0.8885,-0.8885,-0.8885,-0.8885,-0.8885,-0.8885,-0.8885,-0.8885,-0.8885,-0.8885,-0.8885,-0.8885,-0.8266,-0.7204,-0.6869,-0.6031,-0.486,-0.3352,-0.2731,-0.25,-0.1058,-0.0496,-0.0435,0.0,0.0,0.0,0.0,0.0,0.0,0.0,0.0,0.0,0.0,-2.7703,-2.7384,-2.6589,-2.6499,-2.6499,0.0,0.0,0.0,0.0,0.0,0.0,0.0,0.0,-2.3526,-2.3233,-2.2523,-2.1969,-2.1553,-2.1322,-2.1131,-2.0959,-1.9823,-1.9447,-1.9603,-1.8484,-1.8008,-1.8018,-1.8213,-1.8184,-1.8105,-1.915,0.0,0.0,0.0,0.0,0.0,-1.9027,-1.7779,0.0,-1.6437,-1.5387,-1.4088,0.0,0.0,0.0,0.0,-1.4295,-1.4583,-1.4928,-1.5291,-1.5665,-1.5751,-1.5784,-1.5784,-1.5784,-1.5784,-1.5784,-1.5784,0.0,-1.6157,-1.5777,-1.5327,-1.464,-1.36,-1.2778,-1.1755,-1.0296,-0.9427,-0.8885,-0.8885,-0.8885,-0.8885,-0.8885,-0.8885,-0.8885,-0.8885,-0.8885,-0.8885,-0.8885,-0.8885,-0.8885,-0.8885,-0.8885,-0.8885,-0.8885,-0.8885,-0.8885,-0.8885,-0.8885,-0.8885,-0.8885,-0.8885,-0.8885,-0.8881,-0.8211,-0.7426,-0.6589,-0.5192,-0.4188,-0.3297,-0.179,-0.1175,-0.1119,-0.028,0.0,0.0,0.0,0.0,0.0,0.0,0.0,0.0,0.0,0.0,0.0,0.0,0.0,0.0,0.0,0.0,0.0,0.0,0.0,0.0,0.0,0.0,0.0,0.0,-2.4983,-2.4863,-2.4788,-2.4356,-2.3758,-2.3019,-2.2563,-2.2106,-2.1652,-2.0478,-2.0055,-2.0144,-1.8798,-1.8203,-1.8232,-1.8549,-1.85,-1.8311,-1.9453,0.0,0.0,0.0,0.0,0.0,0.0,0.0,0.0,-1.7302,-1.5876,-1.4088,-1.4088,0.0,0.0,0.0,0.0,0.0,-1.4914,-1.5189,-1.5411,-1.5698,-1.5784,-1.5784,-1.5784,0.0,0.0,0.0,0.0,-1.571,-1.4713,-1.4424,-1.3683,-1.1457,-1.0891,-1.0351,-0.9103,-0.8885,-0.8885,-0.8885,-0.8885,-0.8885,-0.8885,-0.8885,-0.8885,-0.8885,-0.8885,-0.8885,-0.8885,-0.8885,-0.8885,-0.8885,-0.8885,-0.8885,-0.8885,-0.8885,-0.8885,-0.8885,-0.8885,-0.8885,-0.8885,-0.8885,-0.8771,-0.8491,-0.726,-0.6422,-0.5806,-0.3239,-0.2068,-0.1733,-0.0504,0.0,0.0,0.0,0.0,0.0,0.0,0.0,0.0,0.0,0.0,0.0,0.0,0.0,0.0,0.0,0.0,0.0,0.0,0.0,0.0,0.0,0.0,0.0,0.0,0.0,0.0,-2.6248,-2.5737,-2.5272,-2.48,-2.4713,-2.463,-2.4489,-2.4402,-2.388,-2.2993,-2.2889,-2.2083,-2.0649,-1.9569,-1.9092,-1.9092,-1.916,-1.915,-1.9141,-1.9687,0.0,0.0,0.0,0.0,0.0,0.0,0.0,0.0,-1.7302,-1.5876,-1.4088,-1.4088,0.0,0.0,0.0,0.0,0.0,-1.4861,-1.5042,-1.5157,-1.5698,-1.5784,-1.5784,-1.5784,0.0,0.0,0.0,0.0,0.0,-1.4597,-1.2989,-1.1557,-1.1156,-1.0025,-0.9154,-0.8937,-0.8885,-0.8885,-0.8885,-0.8885,-0.8885,-0.8885,-0.8885,-0.8885,-0.8885,-0.8885,-0.8885,-0.8885,-0.8885,-0.8885,-0.8885,-0.8885,-0.8885,-0.8885,-0.8885,-0.8885,-0.8885,-0.8885,-0.8885,-0.8885,-0.8885,-0.8211,-0.7035,-0.6813,-0.5248,-0.2849,-0.2403,-0.1454,-0.0336,-0.0112,0.0,0.0,0.0,0.0,0.0,0.0,0.0,0.0,0.0,0.0,0.0,0.0,0.0,0.0,0.0,0.0,0.0,0.0,0.0,0.0,0.0,0.0,0.0,0.0,0.0,-2.6499,-2.6499,-2.6235,-2.5984,-2.5711,-2.5398,-2.5247,-2.5247,-2.4926,-2.4718,-2.4523,-2.3601,-2.2316,-2.0755,-1.9739,-1.9287,-1.9287,-1.9287,-1.9287,-1.9326,0.0,0.0,0.0,0.0,0.0,0.0,0.0,0.0,0.0,0.0,-1.5387,-1.4088,-1.4088,0.0,0.0,0.0,0.0,0.0,-1.4847,-1.5008,-1.5149,-1.5685,-1.5784,-1.5635,-1.4949,-1.4752,0.0,0.0,0.0,0.0,-1.2495,-1.1646,-1.0836,-1.0025,-0.9316,-0.8885,-0.8885,-0.8885,-0.8885,-0.8885,-0.8885,-0.8885,-0.8885,-0.8885,-0.8885,-0.8885,-0.8885,-0.8885,-0.8885,-0.8885,-0.8885,-0.8885,-0.8885,-0.8844,-0.8815,-0.8815,-0.8815,-0.8815,-0.873,-0.8297,-0.7601,-0.7601,-0.6864,-0.5475,-0.4634,-0.3462,-0.2124,-0.1343,-0.0616,0.0,0.0,0.0,0.0,0.0,0.0,0.0,0.0,0.0,0.0,0.0,0.0,0.0,0.0,0.0,0.0,0.0,0.0,0.0,0.0,0.0,0.0,0.0,0.0,0.0,0.0,-2.6499,-2.6499,-2.6499,-2.6499,-2.6499,-2.6499,-2.6059,-2.5799,-2.5799,-2.5398,-2.5298,-2.5404,-2.3558,-2.2121,-2.1035,-2.0049,-1.959,-1.959,-1.959,-1.959,-1.9609,0.0,0.0,0.0,0.0,0.0,0.0,0.0,0.0,0.0,0.0,0.0,0.0,0.0,0.0,0.0,-1.4088,-1.4088,-1.4215,-1.4847,-1.5008,-1.5149,-1.5685,-1.5784,-1.5486,-1.4166,-1.3926,0.0,0.0,0.0,0.0,-1.0654,-1.051,-1.0186,-0.9103,-0.8885,-0.8885,-0.8885,-0.8885,-0.8885,-0.8885,-0.8885,-0.8885,-0.8885,-0.8885,-0.8885,-0.8885,-0.8885,-0.8885,-0.8885,-0.8885,-0.8885,-0.8885,-0.8885,-0.8811,-0.8713,-0.8676,-0.8659,-0.8655,-0.8216,-0.7472,-0.6491,-0.6192,-0.5263,-0.3892,-0.2734,-0.2012,-0.1622,-0.0448,0.0,0.0,0.0,0.0,0.0,0.0,0.0,0.0,0.0,0.0,0.0,0.0,0.0,0.0,0.0,0.0,0.0,0.0,0.0,0.0,0.0,0.0,0.0,0.0,0.0,0.0,0.0,-2.6499,-2.6499,-2.6499,-2.6499,-2.6499,-2.6499,-2.6449,-2.6436,-2.6436,-2.6399,-2.5926,-2.4992,-2.2981,-2.2002,-2.1858,-2.0911,-2.0507,-2.0507,-2.0507,-2.0507,-2.0517,-2.0546,0.0,0.0,0.0,0.0,0.0,0.0,0.0,0.0,0.0,0.0,0.0,0.0,0.0,-1.4088,-1.4088,-1.4088,-1.4215,-1.4847,-1.5008,-1.5149,-1.5685,-1.5784,-1.5486,-1.4166,-1.3926,0.0,-1.2401,0.0,0.0,-1.0674,-0.9798,-0.9047,-0.894,-0.8885,-0.8885,-0.8885,-0.8885,-0.8885,-0.8885,-0.8885,-0.8885,-0.8885,-0.8885,-0.8885,-0.8885,-0.8885,-0.8885,-0.8885,-0.8885,-0.8885,-0.8885,-0.8885,-0.8811,-0.8713,-0.857,-0.8499,-0.8496,-0.7267,-0.6577,-0.6484,-0.5188,-0.3817,-0.2353,-0.2221,-0.1399,-0.0168,-0.0056,0.0,0.0,0.0,0.0,0.0,0.0,0.0,0.0,0.0,0.0,0.0,0.0,0.0,0.0,0.0,0.0,0.0,0.0,0.0,-2.6499,-2.6499,0.0,0.0,0.0,0.0,0.0,0.0,-2.6499,-2.6499,-2.6499,-2.6499,-2.6499,-2.6499,-2.6499,-2.6499,-2.6499,-2.6499,-2.6314,-2.5873,-2.3879,-2.2925,-2.285,-2.1308,-2.0605,-2.0605,-2.0605,-2.0605,-2.0605,-2.0605,-2.0507,0.0,0.0,0.0,0.0,0.0,0.0,0.0,0.0,-1.4454,-1.4088,-1.4088,-1.4088,-1.4088,-1.4088,-1.4215,-1.4442,-1.4901,-1.5142,-1.5331,-1.5732,-1.5784,0.0,0.0,-1.2668,-1.2103,-1.0188,-0.9452,0.0,-0.9559,-0.9226,-0.8885,-0.8885,-0.8885,-0.8885,-0.8885,-0.8885,-0.8885,-0.8885,-0.8885,-0.8885,-0.8885,-0.8885,-0.8885,-0.8885,-0.8885,-0.8885,-0.8885,-0.8885,-0.8885,-0.8885,-0.8845,-0.8285,-0.7337,-0.7203,-0.6632,-0.5685,-0.605,-0.5313,-0.3707,-0.3192,-0.2161,-0.0821,-0.0834,-0.0504,0.0,0.0,0.0,0.0,0.0,0.0,0.0,0.0,0.0,0.0,0.0,0.0,0.0,0.0,0.0,0.0,0.0,0.0,-2.6499,0.0,0.0,0.0,0.0,-2.6499,0.0,0.0,0.0,0.0,-2.6499,-2.6499,-2.6499,-2.6499,-2.6499,-2.6499,-2.6499,-2.6499,-2.6499,-2.6499,-2.6499,-2.6349,-2.599,-2.4624,-2.3624,-2.2962,-2.1631,-2.0895,-2.0605,-2.0605,-2.0605,-2.0605,-2.0605,-2.0605,0.0,0.0,0.0,0.0,0.0,0.0,0.0,0.0,-1.4088,-1.4088,-1.4088,-1.4088,-1.4088,-1.4088,-1.4295,-1.4495,-1.4372,-1.4565,-1.4748,-1.4595,0.0,0.0,-1.1799,-1.1658,-1.1321,-0.8863,-0.8489,-0.8689,-0.8844,-0.8885,-0.8885,-0.8885,-0.8885,-0.8885,-0.8885,-0.8885,-0.8885,-0.8885,-0.8885,-0.8885,-0.8885,-0.8885,-0.8885,-0.8885,-0.8885,-0.8885,-0.8885,-0.8838,-0.8811,-0.8811,-0.8281,-0.7493,-0.6466,-0.5918,-0.4857,-0.3366,-0.432,-0.3794,-0.2002,-0.1578,-0.0858,0.0,0.0,0.0,0.0,0.0,0.0,0.0,0.0,0.0,0.0,0.0,0.0,0.0,0.0,0.0,0.0,0.0,0.0,0.0,0.0,0.0,-2.6499,-2.6499,-2.6499,0.0,0.0,0.0,0.0,0.0,0.0,0.0,-2.6499,-2.6499,-2.6499,-2.6499,-2.6499,-2.6499,-2.6499,-2.6499,-2.6499,-2.6499,-2.6499,-2.599,-2.5004,-2.5004,-2.3927,-2.2027,-2.1989,-2.1479,-2.0605,-2.0605,-2.0605,-2.0605,-2.0605,-2.0605,-2.0605,0.0,0.0,0.0,0.0,0.0,0.0,0.0,-1.4088,-1.4088,-1.4088,-1.4088,-1.4088,-1.4088,-1.4295,-1.427,-1.327,-1.3199,-1.3174,-1.2131,0.0,0.0,-1.0288,-1.1123,-1.1474,-0.9015,-0.8726,-0.8885,-0.8885,-0.8885,-0.8885,-0.8885,-0.8885,-0.8885,-0.8885,-0.8885,-0.8885,-0.8885,-0.8885,-0.8885,-0.8885,-0.8885,-0.8885,-0.8885,-0.8881,-0.8881,-0.8881,-0.8791,-0.871,-0.8656,-0.7272,-0.6409,-0.6241,-0.4901,-0.3429,-0.1962,-0.1962,-0.1962,-0.1915,-0.0629,0.0,0.0,0.0,0.0,0.0,0.0,0.0,0.0,0.0,0.0,0.0,0.0,0.0,0.0,0.0,0.0,0.0,0.0,0.0,0.0,0.0,0.0,-2.6499,-2.6499,-2.6499,0.0,0.0,0.0,0.0,0.0,0.0,0.0,-2.6499,-2.6499,-2.6499,-2.6499,-2.6499,-2.6499,-2.6499,-2.6499,-2.6499,-2.6499,-2.6499,-2.6349,-2.6025,-2.4624,-2.3635,-2.2999,-2.1631,-2.0857,-2.0605,-2.0605,-2.0605,-2.0605,-2.0605,-2.0605,-2.0605,0.0,0.0,0.0,0.0,0.0,0.0,0.0,0.0,0.0,-1.4088,-1.4088,-1.4088,-1.4088,-1.4442,-1.4576,-1.3363,-1.338,-1.3444,-1.2221,-1.1896,0.0,0.0,-1.0336,0.0,0.0,-0.8726,-0.8885,-0.8885,-0.8885,-0.8885,-0.8885,-0.8885,-0.8885,-0.8885,-0.8885,-0.8885,-0.8885,-0.8885,-0.8885,-0.8885,-0.8885,-0.8885,-0.8885,-0.8838,-0.8777,-0.8777,-0.8632,-0.812,-0.7157,-0.6615,-0.5395,-0.341,-0.2908,-0.1974,-0.0605,-0.0605,-0.0605,-0.0555,-0.0207,0.0,0.0,0.0,0.0,0.0,0.0,0.0,0.0,0.0,0.0,0.0,0.0,0.0,0.0,0.0,0.0,0.0,0.0,0.0,0.0,-2.7484,-2.6939,-2.6499,-2.6499,-2.6499,-2.6499,0.0,0.0,0.0,-2.6499,-2.6499,0.0,-2.6499,-2.6499,-2.6499,-2.6499,-2.6499,-2.6499,-2.6499,-2.6499,-2.6499,-2.6499,-2.6499,-2.6499,-2.6452,-2.485,-2.3891,-2.3441,-2.1859,-2.0934,-2.0605,-2.0605,-2.0605,-2.0605,-2.0605,-2.0605,-2.0605,0.0,0.0,0.0,0.0,0.0,0.0,0.0,0.0,0.0,-1.4088,-1.4088,-1.4024,-1.3611,-1.3824,-1.3831,-1.2078,-1.1952,-1.2037,-1.0676,-1.0337,-1.0141,-0.9361,-0.9271,-0.9148,-0.864,-0.8628,-0.8757,-0.8757,-0.8808,-0.8849,-0.8849,-0.8844,-0.8885,-0.8885,-0.8885,-0.8885,-0.8885,-0.8885,-0.8885,-0.8885,-0.8828,-0.8849,-0.8849,-0.8706,-0.8405,-0.7864,-0.8213,-0.7556,-0.5663,-0.5462,-0.434,-0.215,-0.152,-0.0807,0.0,0.0,0.0,0.0,0.0,0.0,0.0,0.0,0.0,0.0,0.0,0.0,0.0,0.0,0.0,0.0,0.0,0.0,0.0,0.0,0.0,-3.119,-3.1248,0.0,0.0,-2.878,-2.7484,-2.6499,-2.6499,-2.6499,-2.6499,0.0,0.0,0.0,-2.6499,-2.6499,-2.6499,-2.6499,-2.6499,-2.6499,-2.6499,-2.6499,-2.6499,-2.6499,-2.6499,-2.6499,-2.6499,-2.6499,-2.6499,-2.6499,-2.5476,-2.4445,-2.3441,-2.244,-2.1479,-2.0605,-2.0605,-2.0605,-2.0605,-2.0605,-2.0605,-2.0605,-2.0605,0.0,0.0,0.0,0.0,0.0,0.0,0.0,0.0,-1.4088,-1.4088,-1.3881,-1.2919,-1.2775,-1.2477,-1.0139,-0.9761,-0.9657,-0.8333,-0.7988,-0.7988,-0.7988,-0.8147,-0.8289,-0.8431,-0.8472,-0.8482,-0.8482,-0.8598,-0.8689,-0.8689,-0.8808,-0.8841,-0.8841,-0.8841,-0.8841,-0.8841,-0.8841,-0.8841,-0.8841,-0.8771,-0.8635,-0.8525,-0.8385,-0.7719,-0.6345,-0.7337,-0.6697,-0.4068,-0.39,-0.3165,-0.1812,-0.0605,0.0,0.0,0.0,0.0,0.0,0.0,0.0,0.0,0.0,0.0,0.0,0.0,0.0,0.0,0.0,0.0,0.0,0.0,0.0,0.0,0.0,0.0,-2.8716,-2.9411,0.0,0.0,-2.704,-2.6714,-2.6499,-2.6499,-2.6499,-2.6499,-2.6499,-2.6499,0.0,-2.6499,-2.6499,-2.6499,-2.6499,-2.6499,-2.6499,-2.6499,-2.6499,-2.6499,-2.6499,-2.6499,-2.6499,-2.6499,-2.6499,-2.6499,-2.6499,-2.5476,-2.4445,-2.3441,-2.244,-2.1479,-2.0605,-2.0605,-2.0605,-2.0605,-2.0605,-2.0605,-2.0605,-2.0605,-1.9234,0.0,0.0,0.0,0.0,0.0,0.0,0.0,-1.4088,-1.4088,-1.3881,-1.2919,-1.2775,-1.2477,-1.0139,-0.9761,-0.9657,-0.8333,-0.7988,-0.7988,-0.7988,-0.8015,-0.8133,-0.8286,-0.8404,-0.8482,-0.8482,-0.8509,-0.853,-0.853,-0.856,-0.8581,-0.8581,-0.8581,-0.8581,-0.8581,-0.8581,-0.8581,-0.8581,-0.855,-0.8104,-0.7037,-0.6868,-0.6174,-0.4777,-0.4847,-0.4192,-0.253,-0.2469,-0.1762,-0.0454,-0.0151,0.0,0.0,0.0,0.0,0.0,0.0,0.0,0.0,0.0,0.0,0.0,0.0,0.0,0.0,0.0,0.0,0.0,0.0,0.0,0.0,0.0,0.0,0.0,0.0,0.0,0.0,0.0,0.0,-2.6658,-2.704,-2.6748,-2.6499,-2.6499,-2.6499,0.0,0.0,-2.6499,-2.6499,-2.6499,-2.6499,-2.6499,-2.6499,-2.6499,-2.6499,-2.6499,-2.6499,-2.6267,-2.5769,-2.5769,-2.5769,-2.5769,-2.4743,-2.3745,-2.2739,-2.1783,-2.1039,-2.0605,-2.0605,-2.0605,-2.0605,-2.0605,-2.0605,-2.0605,-2.0605,-1.9559,-1.8029,-1.7504,0.0,0.0,0.0,0.0,0.0,0.0,0.0,-1.3796,-1.2212,-1.1912,-1.1594,-0.9287,-0.8841,-0.8871,-0.8187,-0.7988,-0.7988,-0.7988,-0.7988,-0.8012,-0.8143,-0.8218,-0.8269,-0.8269,-0.833,-0.8381,-0.8381,-0.8438,-0.8482,-0.8482,-0.8482,-0.8482,-0.8482,-0.8482,-0.8482,-0.8482,-0.7835,-0.7168,-0.6435,-0.5658,-0.4583,-0.3212,-0.3685,-0.3115,-0.1109,-0.1661,-0.136,0.0,0.0,0.0,0.0,0.0,0.0,0.0,0.0,0.0,0.0,0.0,0.0,0.0,0.0,0.0,0.0,0.0,0.0,0.0,0.0,0.0,0.0,0.0,0.0,0.0,0.0,0.0,0.0,0.0,0.0,0.0,-2.7604,-2.7007,-2.6499,-2.6499,-2.6499,-2.6499,0.0,0.0,0.0,-2.6499,-2.6499,-2.6499,-2.6499,-2.6499,-2.6499,-2.6499,-2.6349,-2.5838,-2.5004,-2.4826,-2.4636,-2.448,-2.3818,-2.2962,-2.1952,-2.1193,-2.075,-2.0605,-2.0605,-2.0605,-2.0605,-2.0605,-2.0605,-2.0605,-2.0605,-1.9923,-1.8838,-1.7706,-1.6601,-1.5538,-1.4454,0.0,0.0,0.0,0.0,-1.3662,-1.1458,-1.092,-1.0626,-0.8383,-0.7874,-0.7988,-0.7988,-0.7988,-0.7988,-0.7988,-0.7988,-0.7988,-0.7988,-0.7988,-0.7988,-0.7988,-0.8143,-0.8231,-0.8231,-0.833,-0.8404,-0.8404,-0.8404,-0.8352,-0.8089,-0.8089,-0.7985,-0.777,-0.663,-0.5802,-0.5595,-0.4354,-0.3065,-0.1712,-0.2715,-0.2314,-0.005,-0.1058,-0.1109,0.0,0.0,0.0,0.0,0.0,0.0,0.0,0.0,0.0,0.0,0.0,0.0,0.0,0.0,0.0,0.0,0.0,0.0,0.0,0.0,0.0,0.0,0.0,0.0,0.0,0.0,0.0,0.0,0.0,0.0,0.0,0.0,-2.7007,-2.6499,-2.6499,-2.6499,-2.6499,-2.6499,-2.6499,-2.6499,-2.6499,0.0,0.0,-2.6499,-2.6499,-2.6499,-2.6499,-2.5664,-2.5111,-2.5004,-2.412,-2.3257,-2.2403,-2.3147,-2.2962,-2.1989,-2.1886,-2.1375,-2.0605,-2.0605,-2.0605,-2.0605,-2.0605,-2.0605,-2.0605,-2.0605,-1.9923,-1.8838,-1.7706,-1.6601,-1.5538,-1.4454,-1.4088,0.0,0.0,0.0,-1.3662,-1.1458,-1.092,-1.0626,-0.8383,-0.7874,-0.7988,-0.7988,-0.7988,-0.7988,-0.7988,-0.7988,-0.7988,-0.7988,-0.7988,-0.7988,-0.7988,-0.8008,-0.8019,-0.8019,-0.8035,-0.8049,-0.8049,-0.8049,-0.7641,-0.6478,-0.6327,-0.5869,-0.4702,-0.4438,-0.383,-0.2675,-0.2367,-0.1661,-0.0353,-0.0454,-0.0353,0.0,-0.0151,-0.0202,0.0,0.0,0.0,0.0,0.0,0.0,0.0,0.0,0.0,0.0,0.0,0.0,0.0,0.0,0.0,0.0,0.0,0.0,0.0,0.0,0.0,0.0,0.0,0.0,0.0,0.0,0.0,0.0,0.0,0.0,0.0,0.0,0.0,-2.6499,-2.6499,-2.6499,-2.6499,-2.6499,-2.6499,-2.6499,-2.6499,-2.6499,-2.6499,-2.6499,-2.6499,-2.6245,-2.5664,-2.5229,-2.4456,-2.3331,-2.2888,-2.214,-2.1221,-2.168,-2.1642,-2.1231,-2.1231,-2.1011,-2.0605,-2.0605,-2.0605,-2.0605,-2.0605,-2.0605,-2.0605,-2.0605,-2.0323,-1.9678,-1.79,-1.7009,-1.6355,-1.4657,-1.4088,-1.4088,-1.4088,0.0,0.0,0.0,-1.0865,-1.0654,-0.85,-0.7938,-0.7988,-0.7988,-0.7988,-0.7988,-0.7988,-0.7434,-0.6883,-0.6883,-0.6276,-0.5974,-0.6731,-0.6883,-0.6628,-0.5872,-0.5772,-0.5772,-0.5772,-0.5772,-0.5522,-0.497,-0.487,-0.467,-0.4066,-0.3316,-0.2614,-0.2063,-0.131,-0.0605,-0.0051,0.0,0.0,0.0,0.0,0.0,0.0,0.0,0.0,0.0,0.0,0.0,0.0,0.0,0.0,0.0,0.0,0.0,0.0,0.0,0.0,0.0,0.0,0.0,0.0,0.0,0.0,0.0,0.0,0.0,0.0,0.0,0.0,0.0,0.0,0.0,0.0,0.0,0.0,-2.6499,-2.6499,0.0,0.0,0.0,-2.6499,-2.6499,-2.6499,-2.6499,-2.6499,-2.6499,-2.6499,-2.6025,-2.5004,-2.4755,-2.3745,-2.1989,-2.1773,-2.1298,-2.0605,-2.0605,-2.0605,-2.0605,-2.0605,-2.0605,-2.0605,-2.0605,-2.0605,-2.0605,-2.0605,-2.0605,-2.0605,-2.0605,-2.044,-1.9923,-1.798,-1.7131,-1.6601,-1.4741,-1.4088,-1.4088,-1.4088,-1.4088,0.0,0.0,0.0,-0.9877,-0.8342,-0.7961,-0.7988,-0.7988,-0.7739,-0.7487,-0.7487,-0.6478,-0.5475,-0.5475,-0.472,-0.4218,-0.4872,-0.5275,-0.5172,-0.4166,-0.4016,-0.4016,-0.4016,-0.4016,-0.3872,-0.3539,-0.349,-0.3345,-0.3006,-0.2084,-0.1471,-0.1471,-0.0556,0.0,0.0,0.0,0.0,0.0,0.0,0.0,0.0,0.0,0.0,0.0,0.0,0.0,0.0,0.0,0.0,0.0,0.0,0.0,0.0,0.0,0.0,0.0,0.0,0.0,0.0,0.0,0.0,0.0,0.0,0.0,0.0,0.0,0.0,0.0,0.0,0.0,0.0,0.0,0.0,-2.6499,-2.6499,-2.6499,-2.6499,-2.6499,-2.6499,-2.6499,-2.6499,-2.6499,-2.6499,-2.6499,-2.6499,0.0,-2.5004,-2.4072,-2.3073,-2.1989,-2.1116,-2.0644,-2.0605,-2.0605,-2.0605,-2.0605,-2.0605,-2.0605,-2.0605,-2.0605,-2.0605,-2.0605,-2.0605,-2.0605,-2.0605,-2.0605,-1.9962,-1.8917,-1.7747,-1.6642,-1.5621,-1.4489,-1.4088,-1.4088,-1.4088,-1.4088,-1.3652,0.0,0.0,0.0,-0.7784,-0.788,-0.7988,-0.7988,-0.7033,-0.6079,-0.6079,-0.507,-0.4116,-0.4116,-0.4066,-0.3615,-0.2414,-0.3265,-0.4066,-0.4016,-0.4016,-0.4016,-0.4016,-0.4016,-0.3539,-0.2268,-0.2118,-0.1614,-0.0318,-0.0157,-0.0104,-0.0104,-0.0051,0.0,0.0,0.0,0.0,0.0,0.0,0.0,0.0,0.0,0.0,0.0,0.0,0.0,0.0,0.0,0.0,0.0,0.0,0.0,0.0,0.0,0.0,0.0,0.0,0.0,0.0,0.0,0.0,0.0,0.0,0.0,0.0,0.0,0.0,0.0,0.0,0.0,0.0,0.0,0.0,0.0,0.0,-2.6499,-2.6499,-2.6499,-2.6499,-2.6499,-2.6499,-2.6499,-2.6499,-2.6499,-2.6499,-2.5721,-2.4072,-2.3672,-2.2702,-2.1116,-2.075,-2.0605,-2.0605,-2.0605,-2.0605,-2.0605,-2.0605,-2.0605,-2.0605,-2.0605,-2.0605,-2.0605,-2.0605,-2.0605,-2.0605,-2.0605,-2.0362,-1.9795,-1.794,-1.705,-1.6445,-1.4699,-1.4088,-1.4088,-1.4088,-1.4088,-1.3642,-1.1401,-0.9201,-0.7506,-0.7746,-0.7851,-0.7916,-0.7965,-0.6983,-0.5979,-0.5979,-0.432,-0.2715,-0.2715,-0.2013,-0.1264,-0.0819,-0.1827,-0.2414,-0.1561,-0.1411,-0.1416,-0.1433,-0.1436,-0.1239,-0.079,-0.0738,-0.0529,-0.0053,0.0,0.0,0.0,0.0,0.0,0.0,0.0,0.0,0.0,0.0,0.0,0.0,0.0,0.0,0.0,0.0,0.0,0.0,0.0,0.0,0.0,0.0,0.0,0.0,0.0,0.0,0.0,0.0,0.0,0.0,0.0,0.0,0.0,0.0,0.0,0.0,-2.7384,0.0,-2.7129,-2.6589,-2.6499,-2.6499,-2.6499,0.0,0.0,0.0,0.0,-2.6499,-2.6499,-2.6499,-2.6499,-2.6499,-2.6499,-2.6349,-2.6025,-2.599,-2.5063,-2.3036,-2.2999,-2.2226,-2.0605,-2.0605,-2.0605,-2.0605,-2.0605,-2.0605,-2.0605,-2.0605,-2.0605,-2.0605,-2.0605,-2.0605,-2.0605,-2.0605,-2.0605,-2.0605,-2.0605,-2.0362,-1.9805,-1.794,-1.705,-1.6478,-1.4699,-1.4088,-1.4088,-1.4088,-1.3822,-1.3113,-1.1275,-0.9423,-0.7918,-0.7763,-0.7773,-0.7848,-0.7951,-0.6631,-0.5322,-0.5322,-0.3268,-0.131,-0.131,-0.0605,0.0,0.0,-0.0719,-0.102,-0.0154,0.0,0.0,0.0,0.0,0.0,0.0,0.0,0.0,0.0,0.0,0.0,0.0,0.0,0.0,0.0,0.0,0.0,0.0,0.0,0.0,0.0,0.0,0.0,0.0,0.0,0.0,0.0,0.0,0.0,0.0,0.0,0.0,0.0,0.0,0.0,0.0,0.0,0.0,0.0,0.0,0.0,0.0,-2.6658,-2.6499,-2.6499,-2.6499,-2.6499,-2.6499,-2.6499,-2.6499,-2.6499,-2.6499,0.0,0.0,0.0,0.0,0.0,-2.6499,-2.6499,-2.6499,-2.6499,-2.6499,-2.606,-2.504,-2.5004,-2.4047,-2.2027,-2.1989,-2.1555,-2.0605,-2.0605,-2.0605,-2.0605,-2.0605,-2.0605,-2.0605,-2.0605,-2.0605,-2.0605,-2.0605,-2.0605,-2.0605,-2.0605,-2.0605,-2.0605,-2.0605,-1.9962,-1.8877,-1.7698,-1.6642,-1.5579,-1.4447,-1.4088,-1.4088,-1.4088,-1.3288,-1.2072,-1.0907,-0.9883,0.0,0.0,0.0,0.0,-0.7944,-0.6022,-0.4066,-0.4016,-0.1962,-0.0051,0.0,0.0,0.0,0.0,0.0,0.0,0.0,0.0,0.0,0.0,0.0,0.0,0.0,0.0,0.0,0.0,0.0,0.0,0.0,0.0,0.0,0.0,0.0,0.0,0.0,0.0,0.0,0.0,0.0,0.0,0.0,0.0,0.0,0.0,0.0,0.0,0.0,0.0,0.0,0.0,0.0,0.0,0.0,0.0,0.0,0.0,0.0,0.0,0.0,-2.6521,-2.6499,-2.6499,-2.6499,-2.6499,-2.6499,-2.6499,-2.6499,-2.6499,0.0,0.0,0.0,-2.6499,-2.6499,-2.6499,-2.6499,-2.6499,-2.6499,-2.6499,-2.6499,-2.606,-2.504,-2.5004,-2.4047,-2.2027,-2.1989,-2.1555,-2.0605,-2.0605,-2.0605,-2.0605,-2.0605,-2.0605,-2.0605,-2.0605,-2.0605,-2.0605,-2.0605,-2.0605,-2.0605,-2.0605,-2.0605,-2.0605,-2.0605,-2.0401,-1.9923,-1.798,-1.709,-1.656,-1.4741,-1.4088,-1.4088,-1.4088,-1.3288,-1.2072,-1.0907,-0.9834,0.0,-0.7706,0.0,0.0,0.0,0.0,0.0,-0.4216,-0.2665,-0.1159,-0.0202,0.0,0.0,0.0,0.0,0.0,0.0,0.0,0.0,0.0,0.0,0.0,0.0,0.0,0.0,0.0,0.0,0.0,0.0,0.0,0.0,0.0,0.0,0.0,0.0,0.0,0.0,0.0,0.0,0.0,0.0,0.0,0.0,0.0,0.0,0.0,0.0,0.0,0.0,0.0,0.0,0.0,0.0,0.0,0.0,0.0,0.0,0.0,0.0,-2.6499,-2.6499,-2.6499,-2.6499,-2.6499,-2.6499,-2.6499,-2.6499,-2.6499,0.0,0.0,0.0,-2.6499,-2.6499,-2.6499,-2.6499,-2.6499,-2.6499,-2.6499,-2.6499,-2.5873,-2.4445,-2.4373,-2.3452,-2.1451,-2.1413,-2.1155,-2.0605,-2.0605,-2.0605,-2.0605,-2.0605,-2.0605,-2.0605,-2.0605,-2.0605,-2.0605,-2.0605,-2.0605,-2.0605,-2.0605,-2.0605,-2.0605,-2.0605,-2.0605,-2.0362,-1.863,-1.7698,-1.7058,-1.5345,-1.4447,-1.4088,-1.4088,-1.3603,-1.2723,-1.1085,-1.0139,0.0,0.0,0.0,0.0,-0.7777,0.0,0.0,-0.4316,-0.2964,-0.1611,-0.0252,0.0,0.0,0.0,0.0,0.0,0.0,0.0,0.0,0.0,0.0,0.0,0.0,0.0,0.0,0.0,0.0,0.0,0.0,0.0,0.0,0.0,0.0,0.0,0.0,0.0,0.0,0.0,0.0,0.0,0.0,0.0,0.0,0.0,0.0,0.0,0.0,0.0,0.0,0.0,0.0,0.0,0.0,0.0,0.0,0.0,0.0,0.0,0.0,0.0,-2.6499,-2.6499,-2.6499,-2.6499,-2.6499,-2.6499,-2.6499,-2.6499,0.0,-2.6499,0.0,0.0,0.0,0.0,0.0,-2.6499,-2.6499,-2.6499,-2.6383,-2.5499,-2.3588,-2.3404,-2.2489,-2.0644,-2.0605,-2.0605,-2.0605,-2.0605,-2.0605,-2.0605,-2.0605,-2.0605,-2.0605,-2.0605,-2.0605,-2.0605,-2.0605,-2.0605,-2.0605,-2.0605,-2.0605,-2.0605,-2.0605,-2.0605,-2.044,-1.9402,-1.827,-1.7131,-1.5902,-1.4894,-1.4088,-1.4088,-1.4088,-1.3652,-1.1434,-1.0697,0.0,0.0,0.0,0.0,-0.775,-0.6963,0.0,-0.4316,-0.3065,-0.1812,-0.0303,0.0,0.0,0.0,0.0,0.0,0.0,0.0,0.0,0.0,0.0,0.0,0.0,0.0,0.0,0.0,0.0,0.0,0.0,0.0,0.0,0.0,0.0,0.0,0.0,0.0,0.0,0.0,0.0,0.0,0.0,0.0,0.0,0.0,0.0,0.0,0.0,0.0,0.0,0.0,0.0,0.0,0.0,0.0,0.0,0.0,0.0,0.0,0.0,-2.6499,-2.6499,-2.6499,-2.6499,-2.6499,-2.6499,-2.6499,-2.6499,-2.6499,-2.6499,-2.6499,0.0,0.0,0.0,0.0,0.0,-2.6499,-2.6499,-2.6499,-2.5734,-2.4743,-2.3551,-2.2739,-2.1783,-2.0644,-2.0605,-2.0605,-2.0605,-2.0605,-2.0605,-2.0605,-2.0605,-2.0605,-2.0605,-2.0605,-2.0605,-2.0605,-2.0605,-2.0605,-2.0605,-2.0605,-2.0605,-2.0605,-2.0605,-2.0605,-2.044,-1.9402,-1.827,-1.7017,-1.5061,-1.4292,-1.4088,-1.4088,-1.4088,-1.3822,-1.2376,-1.1338,-1.0318,-0.8976,-0.8016,-0.7451,-0.7604,-0.7555,0.0,-0.4551,-0.3815,-0.2914,-0.0504,0.0,0.0,0.0,0.0,0.0,0.0,0.0,0.0,0.0,0.0,0.0,0.0,0.0,0.0,0.0,0.0,0.0,0.0,0.0,0.0,0.0,0.0,0.0,0.0,0.0,0.0,0.0,0.0,0.0,0.0,0.0,0.0,0.0,0.0,0.0,0.0,0.0,0.0,0.0,0.0,0.0,0.0,0.0,0.0,0.0,0.0,0.0,0.0,-2.6499,-2.6499,-2.6499,-2.6499,-2.6499,-2.6499,-2.6499,-2.6499,-2.6499,-2.6499,-2.6499,0.0,0.0,0.0,0.0,0.0,0.0,0.0,-2.6499,-2.5558,-2.4564,-2.3551,-2.2553,-2.1555,-2.0605,-2.0605,-2.0605,-2.0605,-2.0605,-2.0605,-2.0605,-2.0605,-2.0323,-1.9844,-2.0362,-2.0284,-1.9844,-2.0362,-2.0605,-2.0605,-2.0605,-2.0605,-2.0605,-2.0605,-2.0703,-2.079,-2.0038,-1.8709,-1.6968,-1.4824,-1.4088,-1.4088,-1.4088,-1.4088,-1.3864,-1.2632,-1.1509,-1.0351,-0.9192,-0.8187,-0.7453,-0.756,-0.7706,0.0,0.0,-0.4468,-0.3416,-0.141,-0.0454,0.0,0.0,0.0,0.0,0.0,0.0,0.0,0.0,0.0,0.0,0.0,0.0,0.0,0.0,0.0,0.0,0.0,0.0,0.0,0.0,0.0,0.0,0.0,0.0,0.0,0.0,0.0,0.0,0.0,0.0,0.0,0.0,0.0,0.0,0.0,0.0,0.0,0.0,0.0,0.0,0.0,0.0,0.0,0.0,0.0,0.0,0.0,-2.6537,-2.6499,-2.6524,-2.6637,-2.665,-2.6688,-2.6801,-2.6813,-2.6813,-2.6813,-2.6627,0.0,0.0,0.0,0.0,0.0,0.0,0.0,-2.6181,-2.5159,-2.4185,-2.3364,-2.2306,-2.1375,-2.0605,-2.0605,-2.0605,-2.0605,-2.0605,-2.0605,-2.0605,-2.0605,-2.0118,-1.9362,-2.0001,-1.9923,-1.9362,-2.0087,-2.04,-2.037,-2.0447,-2.0595,-2.0703,-2.0536,-2.0836,-2.1228,-2.0451,-1.8838,-1.6786,-1.4825,-1.4135,-1.4088,-1.4088,-1.4088,-1.3906,-1.2942,-1.1815,-1.0697,-0.9536,-0.8496,-0.7724,-0.7607,-0.7706,-0.7505,0.0,0.0,0.0,-0.2665,-0.131,-0.0404,-0.0404,-0.0153,0.0,0.0,0.0,0.0,0.0,0.0,0.0,0.0,0.0,0.0,0.0,0.0,0.0,0.0,0.0,0.0,0.0,0.0,0.0,0.0,0.0,0.0,0.0,0.0,0.0,0.0,0.0,0.0,0.0,0.0,0.0,0.0,0.0,0.0,0.0,0.0,0.0,0.0,0.0,0.0,0.0,0.0,0.0,0.0056,-2.6688,-2.6499,-2.665,-2.714,-2.7228,-2.7356,-2.7846,-2.7921,-2.7921,0.0,0.0,0.0,-2.6591,-2.5639,-2.5029,-2.5086,-2.5041,-2.5007,-2.5007,-2.3721,-2.2917,-2.2801,-2.1482,-2.0712,-2.0605,-2.0605,-2.0605,-2.0605,-2.0605,-2.0605,-2.0605,-2.0605,-2.0518,-2.0362,-1.9559,-1.9638,-2.0391,-1.9901,-1.9634,-1.9589,-1.9924,-2.0507,-2.1031,-2.0324,-2.08,-2.1549,-1.9423,-1.761,-1.6044,-1.4845,-1.4302,-1.4088,-1.4088,-1.4088,-1.4088,-1.3955,-1.3033,-1.1852,-1.074,-0.9672,-0.8708,-0.7837,-0.7706,-0.7505,-0.6252,0.0,-0.5375,-0.4067,0.0,-0.1762,-0.1762,0.0,0.0,0.0,0.0,0.0,0.0,0.0,0.0,0.0,0.0,0.0,0.0,0.0,0.0,0.0,0.0,0.0,0.0,0.0,0.0,0.0,0.0,0.0,0.0,0.0,0.0,0.0,0.0,0.0,0.0,0.0,0.0,0.0,0.0,0.0,0.0,0.0,0.0,0.0,0.0,0.0,0.0,0.0,0.0,0.0168,-2.7507,-2.7419,-2.7494,-2.772,-2.7758,-2.7846,-2.8072,-2.8109,-2.8109,0.0,0.0,-2.7544,-2.7851,-2.6626,-2.5893,-2.6209,-2.5345,-2.4787,-2.4787,-2.3699,0.0,-2.3039,-2.196,-2.1211,-2.0957,-2.0957,-2.083,-2.0605,-2.0605,-2.0605,-2.0605,-1.9962,-1.9678,-1.9608,-1.8707,-1.8559,-1.8993,-1.9581,-1.9784,-1.9779,-2.0216,-2.0586,-2.0787,-1.9469,-1.9272,-1.9571,-1.8209,-1.7138,-1.6213,-1.516,-1.4583,-1.4342,-1.4342,-1.4222,-1.4088,-1.4088,-1.3252,-1.2229,-1.1946,-1.0509,-0.9047,-0.8922,-0.8335,-0.7702,-0.7254,-0.6581,-0.5827,-0.5275,0.0,0.0,0.0,0.0,0.0,0.0,0.0,0.0,0.0,0.0,0.0,0.0,0.0,0.0,0.0,0.0,0.0,0.0,0.0,0.0,0.0,0.0,0.0,0.0,0.0,0.0,0.0,0.0,0.0,0.0,0.0,0.0,0.0,0.0,0.0,0.0,0.0,0.0,0.0,0.0,0.0,0.0,0.0,0.0,0.0,0.0,0.0,0.0224,-2.7738,-2.7655,-2.7693,-2.7879,-2.7618,-2.7479,-2.7625,-2.7926,-2.8114,-2.8114,-2.8114,-2.8149,-2.8224,-2.6932,-2.6068,-2.6119,-2.5026,-2.4307,-2.4307,-2.3553,-2.3084,-2.3084,-2.2327,-2.1738,-2.1416,-2.1375,-2.126,-2.0967,-2.085,-2.0643,-2.0413,-1.9534,-1.8972,-1.8763,-1.787,-1.7647,-1.7968,-1.8871,-1.9196,-1.9221,-1.9702,-1.9679,-1.929,-1.8767,-1.8141,-1.7517,-1.7394,-1.6876,-1.6165,-1.5386,-1.4883,-1.4643,-1.4643,-1.4496,-1.4329,-1.4329,-1.3743,-1.3027,-1.2907,-1.161,-1.0191,-0.988,-0.9083,-0.8338,-0.806,-0.7235,-0.6531,-0.6531,-0.5472,0.0,0.0,0.0,-0.1661,-0.0706,0.0,0.0,0.0,0.0,0.0,0.0,0.0,0.0,0.0,0.0,0.0,0.0,0.0,0.0,0.0,0.0,0.0,0.0,0.0,0.0,0.0,0.0,0.0,0.0,0.0,0.0,0.0,0.0,0.0,0.0,0.0,0.0,0.0,0.0,0.0,0.0,0.0,0.0,0.0,0.0,0.0,0.028,-2.6755,-2.6549,-2.6728,-2.7243,-2.6403,-2.5896,-2.6472,-2.7435,-2.8076,-2.8076,-2.8076,-2.7728,-2.6696,-2.5556,-2.4426,-2.3323,-2.3193,-2.3129,-2.3129,-2.2758,-2.2533,-2.2533,-2.21,-2.1875,-2.1865,-2.1865,-2.1855,-2.1846,-2.1416,-2.0778,-2.0033,-1.9572,-1.8967,-1.8167,-1.709,-1.7229,-1.8164,-1.7532,-1.7229,-1.7131,-1.7619,-1.707,-1.6224,-1.8548,-1.7949,-1.6035,-1.725,-1.6729,-1.5424,-1.5384,-1.519,-1.4995,-1.4995,-1.4988,-1.4981,-1.4981,-1.4937,-1.4661,-1.3516,-1.3233,-1.2714,-1.0373,-0.9854,-0.96,-0.8283,-0.7988,-0.7939,-0.7939,-0.6883,-0.5927,-0.5879,-0.3768,0.0,0.0,0.0,0.0,0.0,0.0,0.0,0.0,0.0,0.0,0.0,0.0,0.0,0.0,0.0,0.0,0.0,0.0,0.0,0.0,0.0,0.0,0.0,0.0,0.0,0.0,0.0,0.0,0.0,0.0,0.0,0.0,0.0,0.0,0.0,0.0,0.0,0.0,0.0,0.0,0.0,0.0,0.0,0.0448,-2.6565,-2.5875,-2.5687,-2.6598,-2.6459,-2.6281,-2.6449,-2.6801,-2.7046,-2.7046,-2.7046,-2.6883,-2.6565,-2.5462,-2.4617,-2.4253,-2.3551,-2.3091,-2.3091,-2.2964,-2.2886,-2.2886,-2.275,-2.2588,-2.2305,-2.2305,-2.2168,-2.1885,-2.1738,-2.1081,-1.9985,-1.9134,-1.8556,-1.8129,-1.652,-1.6389,-1.7421,-1.75,-1.7505,-1.7474,-1.7639,-1.6943,-1.5872,-1.6749,-1.6513,-1.5879,-1.6292,-1.6088,-1.5678,-1.5678,-1.5491,-1.5251,-1.5251,-1.5117,-1.5008,-1.5008,-1.5008,-1.4958,-1.4728,-1.4041,-1.3245,-1.2644,-1.1254,-0.9899,-0.941,-0.8627,-0.7988,-0.7988,-0.7637,-0.7033,-0.6179,-0.5275,0.0,0.0,0.0,0.0,0.0,0.0,0.0,0.0,0.0,0.0,0.0,0.0,0.0,0.0,0.0,0.0,0.0,0.0,0.0,0.0,0.0,0.0,0.0,0.0,0.0,0.0,0.0,0.0,0.0,0.0,0.0,0.0,0.0,0.0,0.0,0.0,0.0,0.0,0.0,0.0616,0.1343,0.0336,0.0,0.0448,-2.5347,-2.4723,-2.4542,-2.5714,-2.5557,-2.5274,-2.5274,-2.5641,-2.5891,-2.5891,-2.6265,-2.6348,-2.5922,-2.5252,-2.4628,-2.4211,-2.3507,-2.3091,-2.3091,-2.3091,-2.3091,-2.3091,-2.3091,-2.2974,-2.2744,-2.2691,-2.2607,-2.2334,-2.1738,-2.0906,-1.9791,-1.848,-1.7713,-1.731,-1.6097,-1.5949,-1.659,-1.6897,-1.7037,-1.7037,-1.7037,-1.6527,-1.5784,-1.5784,-1.5784,-1.5784,-1.5784,-1.5784,-1.5784,-1.5784,-1.5705,-1.5551,-1.5551,-1.5424,-1.5271,-1.5271,-1.5271,-1.5311,-1.5504,-1.4918,-1.4098,-1.3352,-1.194,-1.0435,-0.9509,-0.8627,-0.7988,-0.7988,-0.7988,-0.7739,-0.6883,-0.6331,-0.5425,0.0,0.0,0.0,0.0,0.0,0.0,0.0,0.0,0.0,0.0,0.0,0.0,0.0,0.0,0.0,0.0,0.0,0.0,0.0,0.0,0.0,0.0,0.0,0.0,0.0,0.0,0.0,0.0,0.0,0.0,0.0,0.0,0.0,0.0,0.0,0.0,0.0,0.0,0.0896,0.2068,0.1119,0.1455,0.2683,-2.3299,-2.311,-2.3503,-2.4573,-2.3854,-2.3091,-2.3091,-2.4026,-2.4734,-2.4734,-2.5695,-2.5999,-2.4903,-2.4754,-2.4327,-2.3208,-2.311,-2.3091,-2.3091,-2.3091,-2.3091,-2.3091,-2.3091,-2.3091,-2.3091,-2.3091,-2.3047,-2.3003,-2.1466,-2.0271,-1.9397,-1.7788,-1.659,-1.5784,-1.5784,-1.5784,-1.5784,-1.5784,-1.5784,-1.5784,-1.5784,-1.5784,-1.5784,-1.5784,-1.5784,-1.5784,-1.5784,-1.5784,-1.5784,-1.5784,-1.5784,-1.5784,-1.5784,-1.5784,-1.5784,-1.5784,-1.5784,-1.5784,-1.5784,-1.5784,-1.5194,-1.2721,-1.1994,-1.1263,-0.8775,-0.8088,-0.7988,-0.7988,-0.7988,-0.7988,-0.7988,-0.6983,-0.6079,0.0,0.0,0.0,-0.0303,-0.0051,0.0,0.0,0.0,0.0,0.0,0.0,0.0,0.0,0.0,0.0,0.0,0.0,0.0,0.0,0.0,0.0,0.0,0.0,0.0,0.0,0.0,0.0,0.0,0.0,0.0,0.0,0.0,0.0,0.0,0.0,0.0,0.0,0.0,0.0952,0.2291,0.2291,0.4188,0.6702,-2.3178,-2.3398,-2.3702,-2.4004,-2.3526,-2.3091,-2.3091,-2.3619,-2.4048,-2.4048,-2.4585,-2.4831,-2.4516,-2.4237,-2.3959,-2.3668,-2.3286,-2.3091,-2.3091,-2.3091,-2.3091,-2.3091,-2.3091,-2.3091,-2.3091,-2.3091,-2.2677,-2.1756,-2.1327,-2.0121,-1.8141,-1.7733,-1.6911,-1.5784,-1.5784,-1.5784,-1.5784,-1.5784,-1.5784,-1.5784,-1.5784,-1.5784,-1.5784,-1.5784,-1.5784,-1.5784,-1.5784,-1.5784,-1.5784,-1.5784,-1.5784,-1.5784,-1.5784,-1.5784,-1.5784,-1.5784,-1.5784,-1.5784,-1.5784,-1.5784,-1.5635,-1.4956,-1.3349,-1.1707,-1.1068,-0.941,-0.7988,-0.7988,-0.7988,-0.7988,-0.7988,-0.7736,-0.7182,-0.6179,0.0,0.0,-0.1511,-0.0605,0.0,0.0,0.0,0.0,0.0,0.0,0.0,0.0,0.0,0.0,0.0,0.0,0.0,0.0,0.0,0.0,0.0,0.0,0.0,0.0,0.0,0.0,0.0,0.0,0.0,0.0,0.0,0.0,0.0,0.0,0.0,0.0,0.0,0.1623,0.3911,0.3911,0.5083,0.6702,-2.3656,-2.3896,-2.4062,-2.4062,-2.3857,-2.3656,-2.3656,-2.3906,-2.4062,-2.4062,-2.4268,-2.4414,-2.4414,-2.4209,-2.4062,-2.4062,-2.3838,-2.3656,-2.3656,-2.3656,-2.3569,-2.3428,-2.3428,-2.3286,-2.3101,-2.2589,-2.1987,-2.1293,-2.026,-1.9039,-1.7692,-1.7131,-1.648,-1.5784,-1.5784,-1.5784,-1.5784,-1.5784,-1.5784,-1.5784,-1.5784,-1.5784,0.0,-1.5784,-1.5784,-1.5784,-1.5784,-1.5784,-1.5784,-1.5784,-1.5784,-1.5784,-1.5784,-1.5784,-1.5784,-1.5784,-1.5784,-1.5784,-1.5784,-1.5784,-1.5683,-1.5092,-1.3397,-1.175,-1.1219,-0.946,-0.7988,-0.7988,-0.7988,-0.7988,-0.7988,-0.7988,-0.7587,-0.6229,-0.4722,-0.3317,-0.2163,-0.136,-0.0656,-0.005,0.0,0.0,0.0,0.0,0.0,0.0,0.0,0.0,0.0,0.0,0.0,0.0,0.0,0.0,0.0,0.0,0.0,0.0,0.0,0.0,0.0,0.0,0.0,0.0,0.0,0.0,0.0,0.0,0.0392,0.1119,0.2404,0.3967,0.553,0.62,0.6924,0.7651,-2.4414,-2.4463,-2.4502,-2.4502,-2.4551,-2.459,-2.459,-2.4541,-2.4502,-2.4502,-2.4551,-2.459,-2.459,-2.4541,-2.4502,-2.4502,-2.4453,-2.4414,-2.4414,-2.4414,-2.4248,-2.3887,-2.3867,-2.3602,-2.3036,-2.1956,-2.1239,-2.0871,-1.875,-1.7598,-1.7412,-1.6339,-1.5784,-1.5784,-1.5784,-1.5784,-1.5784,-1.5872,-1.5818,-1.5784,-1.5872,-1.5865,-1.5784,-1.5784,-1.5784,-1.5784,-1.5784,-1.5784,-1.5784,-1.5784,-1.5784,-1.5784,-1.5784,-1.5784,-1.5784,-1.5784,-1.5784,-1.5784,-1.5784,-1.5784,-1.5486,-1.422,-1.2909,-1.156,-1.0288,-0.897,-0.7988,-0.7988,-0.7988,-0.7988,-0.7988,-0.7988,-0.7637,-0.6431,-0.6129,-0.5125,-0.2615,-0.2113,-0.1511,-0.0151,0.0,0.0,0.0,0.0,0.0,0.0,0.0,0.0,0.0,0.0,0.0,0.0,0.0,0.0,0.0,0.0,0.0,0.0,0.0,0.0,0.0,0.0,0.0,0.0,0.0,0.0,0.0,0.0,0.0896,0.2515,0.5526,0.6702,0.6869,0.8377,0.8885,0.8885,-2.4414,-2.4707,-2.4998,-2.4998,-2.5264,-2.546,-2.546,-2.5185,-2.4998,-2.4998,-2.5283,-2.546,-2.546,-2.5176,-2.4998,-2.4998,-2.4619,-2.4414,-2.4414,-2.4414,-2.4385,-2.4307,-2.4307,-2.3752,-2.2545,-2.2079,-2.0842,-1.8635,-1.7999,-1.7178,-1.6109,-1.592,-1.5784,-1.5784,-1.5784,-1.5784,-1.5798,-1.6092,-1.6052,-1.5804,-1.6092,-1.6046,-1.5784,-1.5784,-1.5784,-1.5784,-1.5784,-1.5784,-1.5784,-1.5784,-1.5784,-1.5784,-1.5784,-1.5784,-1.5784,-1.5784,-1.5784,-1.5784,-1.5784,-1.5784,-1.5486,-1.422,-1.2909,-1.156,-1.0288,-0.897,-0.7988,-0.7988,-0.7988,-0.7988,-0.7988,-0.7988,-0.7939,-0.7686,-0.6734,-0.5475,-0.3865,-0.2715,-0.1511,-0.0151,0.0,0.0,0.0,0.0,0.0,0.0,0.0,0.0,0.0,0.0,0.0,0.0,0.0,0.0,0.0,0.0,0.0,0.0,0.0,0.0,0.0,0.0,0.0,0.0,0.0,0.0,0.0,0.0,0.0896,0.2515,0.5526,0.6702,0.6869,0.8377,0.8885,0.8885,-2.505,-2.5273,-2.541,-2.541,-2.5596,-2.5693,-2.5693,-2.5557,-2.541,-2.541,-2.5605,-2.5693,-2.5693,-2.5547,-2.541,-2.541,-2.5225,-2.4803,-2.4096,-2.4048,-2.361,-2.2655,-2.2646,-2.2214,-2.1401,-2.0604,-1.9566,-1.8327,-1.755,-1.6856,-1.6279,-1.6279,-1.6279,-1.6279,-1.6279,-1.6279,-1.6293,-1.644,-1.6413,-1.6299,-1.644,-1.6413,-1.6266,-1.6119,-1.6059,-1.6039,-1.5838,-1.5784,-1.5784,-1.5784,-1.5784,-1.5784,-1.5784,-1.5784,-1.5784,-1.5784,-1.5784,-1.5784,-1.5784,-1.5784,-1.5635,-1.5045,-1.3397,-1.175,-1.1116,-0.946,-0.7988,-0.7988,-0.7988,-0.7988,-0.7988,-0.7988,-0.7988,-0.7988,-0.7434,-0.6578,-0.5222,-0.3867,-0.2564,-0.1209,-0.0404,0.0,0.0,0.0,0.0,0.0,0.0,0.0,0.0,0.0,0.0,0.0,0.0,0.0,0.0,0.0,0.0,0.0,0.0,0.0,0.0,0.0,0.0,0.0,0.0,0.0,0.0112,0.1679,0.3186,0.4745,0.6977,0.782,0.7931,0.8657,0.8885,0.8885,-2.5693,-2.5479,-2.5274,-2.5274,-2.502,-2.4864,-2.4864,-2.4864,-2.5069,-2.5635,-2.5693,-2.5693,-2.5693,-2.5693,-2.5586,-2.5274,-2.5274,-2.4716,-2.3384,-2.3276,-2.2629,-2.123,-2.1164,-2.0843,-2.0223,-1.9178,-1.8513,-1.8223,-1.7177,-1.6673,-1.6613,-1.6673,-1.6707,-1.6707,-1.6707,-1.6707,-1.6707,-1.6774,-1.6767,-1.6707,-1.6774,-1.676,-1.668,-1.6453,-1.6366,-1.6333,-1.5748,-1.5525,-1.547,-1.5181,-1.5194,-1.5343,-1.5051,-1.4956,-1.4956,-1.4956,-1.4956,-1.4956,-1.4956,-1.4956,-1.4908,-1.4609,-1.3011,-1.1409,-1.1121,-0.946,-0.7988,-0.7988,-0.7988,-0.7988,-0.7988,-0.7988,-0.7988,-0.7988,-0.7988,-0.7537,-0.6179,-0.5072,-0.3817,-0.2213,-0.1058,-0.0303,-0.0051,0.0,0.0,0.0,0.0,0.0,0.0,0.0,0.0,0.0,0.0,0.0,0.0,0.0,0.0,0.0,0.0,0.0,0.0,0.0,0.0,0.0,0.0,0.0168,0.0728,0.3744,0.5641,0.6869,0.8322,0.8885,0.8885,0.8885,0.8885,0.8885,-2.5693,-2.4716,-2.3899,-2.3899,-2.2868,-2.2055,-2.2055,-2.2055,-2.2976,-2.5382,-2.5693,-2.5693,-2.5693,-2.5693,-2.5226,-2.3998,-2.3899,-2.3335,-2.1954,-2.1904,-2.1786,-2.1652,-2.1644,-2.1028,-1.9684,-1.9297,-1.8549,-1.7306,-1.6884,-1.6573,-1.6319,-1.6587,-1.6707,-1.6707,-1.6707,-1.6707,-1.6727,-1.7045,-1.7005,-1.6727,-1.7052,-1.6947,-1.67,-1.6673,-1.6667,-1.646,-1.5099,-1.4628,-1.4426,-1.3153,-1.332,-1.3878,-1.2673,-1.2285,-1.2285,-1.2285,-1.2285,-1.2285,-1.2285,-1.2285,-1.1994,-1.0823,-1.0337,-0.985,-0.8627,-0.8184,-0.7988,-0.7988,-0.7988,-0.7988,-0.7988,-0.7988,-0.7988,-0.7988,-0.7988,-0.7537,-0.6179,-0.5879,-0.4872,-0.2314,-0.1913,-0.131,-0.0101,0.0,0.0,0.0,0.0,0.0,0.0,0.0,0.0,0.0,0.0,0.0,0.0,0.0,0.0,0.0,0.0,0.0,0.0,0.0,0.0,0.0,0.0,0.0784,0.2235,0.5248,0.6589,0.6869,0.8322,0.8885,0.8885,0.8885,0.8885,0.8885,-2.5693,-2.4609,-2.3692,-2.3692,-2.2567,-2.1702,-2.1702,-2.1702,-2.2055,-2.3176,-2.3276,-2.3276,-2.3276,-2.3276,-2.3076,-2.2567,-2.2517,-2.1904,-2.0538,-2.0436,-2.0076,-1.9258,-1.9265,-1.8961,-1.8401,-1.8282,-1.7967,-1.746,-1.7288,-1.7174,-1.7061,-1.7174,-1.7235,-1.7235,-1.7235,-1.7235,-1.7241,-1.7355,-1.7341,-1.7241,-1.7414,-1.6853,-1.5888,-1.5727,-1.514,-1.4235,-1.3526,-1.3217,-1.3012,-1.1676,-1.2023,-1.2891,-1.239,-1.2194,-1.2194,-1.2194,-1.2194,-1.2164,-1.2078,-1.2088,-1.191,-1.1296,-1.0583,-0.9854,-0.9312,-0.8581,-0.7988,-0.7988,-0.7988,-0.7988,-0.7988,-0.7988,-0.7988,-0.7988,-0.7988,-0.7789,-0.7285,-0.6531,-0.5325,-0.3416,-0.2514,-0.146,-0.0151,0.0,0.0,0.0,0.0,0.0,0.0,0.0,0.0,0.0,0.0,0.0,0.0,0.0,0.0,0.0,0.0,0.0,0.0,0.0,0.0504,0.1343,0.1343,0.2682,0.4968,0.6197,0.7204,0.8097,0.866,0.8885,0.8885,0.8885,0.8885,0.8885,-2.5118,-2.3692,-2.2466,-2.2466,-2.1397,-2.0479,-2.0479,-2.0479,-2.0479,-2.0479,-2.0479,-2.0786,-2.16,-2.1702,-2.155,-2.1143,-2.1092,-2.0487,-1.9117,-1.9013,-1.8603,-1.7635,-1.7582,-1.7582,-1.7582,-1.7582,-1.7582,-1.7582,-1.7582,-1.7542,-1.7455,-1.7455,-1.7502,-1.7582,-1.7147,-1.6935,-1.6929,-1.6499,-1.634,-1.634,-1.634,-1.5689,-1.4753,-1.4579,-1.3826,-1.2853,-1.2226,-1.2016,-1.1811,-1.0396,-1.0607,-1.1374,-1.1257,-1.1268,-1.1268,-1.1268,-1.1268,-1.1236,-1.1143,-1.1106,-1.1056,-1.0866,-1.0181,-0.9478,-0.9426,-0.8676,-0.7988,-0.7988,-0.7988,-0.7988,-0.7988,-0.7988,-0.7988,-0.7988,-0.7988,-0.7988,-0.7988,-0.7185,-0.5927,-0.4216,-0.3165,-0.1917,-0.0153,0.0,0.0,0.0,0.0,0.0,0.0,0.0,0.0,0.0,0.0,0.0,0.0,0.0,0.0,0.0,0.0,0.0,0.0,0.0,0.0784,0.2235,0.2682,0.4355,0.6758,0.7149,0.7986,0.8885,0.8885,0.8885,0.8885,0.8885,0.8885,0.8885,-2.3741,-2.1507,-1.9627,-1.9627,-1.8558,-1.7635,-1.7635,-1.7635,-1.7635,-1.7635,-1.7635,-1.8708,-2.1397,-2.1702,-2.1143,-1.9731,-1.9627,-1.9065,-1.7687,-1.7635,-1.7635,-1.7582,-1.7582,-1.7582,-1.7582,-1.7582,-1.7582,-1.7582,-1.7582,-1.7435,-1.7206,-1.7206,-1.736,-1.7529,-1.6068,-1.5417,-1.5364,-1.3965,-1.3372,-1.3372,-1.3372,-1.3318,-1.3318,-1.3318,-1.3313,-1.3102,-1.1638,-1.1101,-1.0887,-0.9423,-0.8933,-0.8879,-0.863,-0.8535,-0.8535,-0.8535,-0.8535,-0.8535,-0.8531,-0.8531,-0.8497,-0.8354,-0.832,-0.8279,-0.8075,-0.7988,-0.7988,-0.7988,-0.7988,-0.7988,-0.7988,-0.7988,-0.7988,-0.7988,-0.7988,-0.7988,-0.7988,-0.7988,-0.698,-0.4316,-0.3966,-0.2937,-0.0259,0.0,0.0,0.0,0.0,0.0,0.0,0.0,0.0,0.0,0.0,0.0,0.0,0.0,0.0,0.0,0.0,0.0,0.0,0.0,0.0784,0.2291,0.3799,0.5306,0.6813,0.8266,0.8881,0.8885,0.8885,0.8885,0.8885,0.8885,0.8885,0.8885,-2.2517,-2.0845,-1.9576,-1.9576,-1.8506,-1.7582,-1.7582,-1.7582,-1.7582,-1.7582,-1.7582,-1.7943,-1.8805,-1.8909,-1.87,-1.8297,-1.8251,-1.8048,-1.7635,-1.7582,-1.7582,-1.7582,-1.7582,-1.7582,-1.7582,-1.7582,-1.7582,-1.7582,-1.7582,-1.7535,-1.7442,-1.7442,-1.7548,-1.7529,-1.6062,-1.5417,-1.531,-1.3911,-1.3318,-1.3318,-1.3318,-1.2724,-1.181,-1.181,-1.116,-1.0241,-0.9754,-0.9588,-0.9537,-0.9047,-0.8885,-0.8865,-0.8825,-0.8794,-0.8794,-0.8794,-0.8794,-0.8771,-0.8665,-0.8638,-0.8601,-0.8452,-0.8414,-0.8377,-0.8228,-0.8116,-0.7988,-0.7988,-0.7988,-0.7988,-0.7988,-0.7988,-0.7988,-0.7988,-0.7988,-0.7988,-0.7988,-0.813,-0.7166,-0.4347,-0.4087,-0.3034,-0.0264,0.0,0.0,0.0,0.0,0.0,0.0,0.0,0.0,0.0,0.0,0.0,0.0,0.0,0.0,0.0,0.0,0.0,0.0056,0.1064,0.2348,0.3855,0.5361,0.6813,0.8211,0.8716,0.8885,0.8885,0.8885,0.8885,0.8885,0.8885,0.8885,0.8885,-2.1092,-1.9775,-1.8864,-1.8864,-1.8146,-1.7582,-1.7582,-1.7582,-1.7582,-1.7582,-1.7582,-1.7582,-1.7582,-1.7582,-1.7582,-1.7582,-1.7582,-1.7582,-1.7582,-1.7582,-1.7582,-1.7582,-1.7582,-1.7582,-1.7582,-1.7582,-1.7582,-1.7582,-1.7582,-1.7582,-1.7582,-1.7582,-1.7312,-1.6711,-1.5257,-1.4288,-1.3696,-1.224,-1.1647,-1.1647,-1.1647,-1.1105,-1.0296,-1.0296,-0.9699,-0.8885,-0.8885,-0.8885,-0.8885,-0.8885,-0.8885,-0.8885,-0.8885,-0.8885,-0.8885,-0.8885,-0.8885,-0.8861,-0.8821,-0.8798,-0.876,-0.8608,-0.8567,-0.853,-0.8384,-0.8275,-0.8204,-0.8204,-0.8204,-0.8204,-0.8204,-0.8204,-0.8204,-0.8204,-0.8204,-0.8204,-0.8204,-0.8289,-0.73,-0.4432,-0.4161,-0.3087,-0.0269,0.0,0.0,0.0,0.0,0.0,0.0,0.0,0.0,0.0,0.0,0.0,0.0,0.0,0.0,0.0,0.0,0.028,0.084,0.1789,0.3352,0.5363,0.6311,0.7537,0.8885,0.8885,0.8885,0.8885,0.8885,0.8885,0.8885,0.8885,0.8885,0.8885,-1.9472,-1.8454,-1.7582,-1.7582,-1.7582,-1.7582,-1.7582,-1.7582,-1.7582,-1.7582,-1.7582,-1.7582,-1.7582,-1.7582,-1.7582,-1.7582,-1.7582,-1.7582,-1.7582,-1.7582,-1.7582,-1.7582,-1.7582,-1.7582,-1.7582,-1.7582,-1.7582,-1.7582,-1.7582,-1.7582,-1.7582,-1.7477,-1.6711,-1.531,-1.3804,-1.2403,-1.1,-0.9537,-0.8885,-0.8885,-0.8885,-0.8885,-0.8885,-0.8885,-0.8885,-0.8885,-0.8885,-0.8885,-0.8885,-0.8885,-0.8885,-0.8885,-0.8885,-0.8885,-0.8885,-0.8885,-0.8885,-0.8885,-0.8885,-0.8885,-0.8851,-0.876,-0.8716,-0.8672,-0.853,-0.8489,-0.8482,-0.8482,-0.8482,-0.8482,-0.8482,-0.8482,-0.8482,-0.8482,-0.8482,-0.8482,-0.8482,-0.8437,-0.7326,-0.4515,-0.4096,-0.3004,-0.0274,0.0,0.0,0.0,0.0,0.0,0.0,0.0,0.0,0.0,0.0,0.0,0.0,0.0,0.0,0.0,0.0112,0.0896,0.218,0.2403,0.4019,0.6702,0.6813,0.7651,0.8885,0.8885,0.8885,0.8885,0.8885,0.8885,0.8885,0.8885,0.8885,0.8885,-1.8251,-1.7838,-1.7582,-1.7582,-1.7582,-1.7582,-1.7582,-1.7582,-1.7582,-1.7582,-1.7582,-1.7582,-1.7582,-1.7582,-1.7582,-1.7582,-1.7582,-1.7582,-1.7582,-1.7582,-1.7582,-1.7582,-1.7582,-1.7582,-1.7582,-1.7582,-1.7582,-1.7582,-1.7582,-1.7582,-1.7582,-1.644,-1.5743,-1.531,-1.2724,-1.1433,-1.1,-0.9537,-0.8885,-0.8885,-0.8885,-0.8885,-0.8885,-0.8885,-0.8885,-0.8885,-0.8885,-0.8885,-0.8885,-0.8885,-0.8885,-0.8885,-0.8885,-0.8885,-0.8885,-0.8885,-0.8885,-0.8885,-0.8885,-0.8885,-0.8875,-0.8838,-0.8798,-0.8703,-0.8665,-0.8567,-0.8482,-0.8482,-0.8482,-0.8482,-0.8482,-0.8482,-0.8482,-0.8482,-0.8482,-0.8482,-0.8482,-0.7615,-0.6273,-0.4437,-0.3285,-0.1992,-0.0167,0.0,0.0,0.0,0.0,0.0,0.0,0.0,0.0,0.0,0.0,0.0,0.0,0.0,0.0,0.0,0.1119,0.1845,0.2291,0.4578,0.6031,0.6755,0.7875,0.8602,0.8885,0.8885,0.8885,0.8885,0.8885,0.8885,0.8885,0.8885,0.8885,0.8885,-1.774,-1.7582,-1.7582,-1.7582,-1.7582,-1.7582,-1.7582,-1.7582,-1.7582,-1.7582,-1.7582,-1.7582,-1.7582,-1.7582,-1.7582,-1.7582,-1.7582,-1.7582,-1.7582,-1.7582,-1.7582,-1.7582,-1.7582,-1.7582,-1.7582,-1.7582,-1.7582,-1.7582,-1.7582,-1.7252,-1.6605,-1.5796,-1.4716,-1.3372,-1.181,-1.0726,-1.0025,-0.9265,-0.8885,-0.8885,-0.8885,-0.8885,-0.8885,-0.8885,-0.8885,-0.8885,-0.8885,-0.8885,-0.8885,-0.8885,-0.8885,-0.8885,-0.8885,-0.8885,-0.8885,-0.8885,-0.8885,-0.8885,-0.8885,-0.8885,-0.8885,-0.8885,-0.8821,-0.8815,-0.8815,-0.875,-0.8693,-0.8693,-0.8693,-0.8693,-0.8693,-0.8693,-0.8693,-0.8693,-0.8693,-0.8471,-0.7765,-0.7062,-0.5781,-0.3526,-0.2667,-0.1622,-0.0168,0.0,0.0,0.0,0.0,0.0,0.0,0.0,0.0,0.0,0.0,0.0,0.0,0.0,0.0,0.0,0.151,0.2571,0.3352,0.5639,0.7093,0.7762,0.8546,0.8885,0.8885,0.8885,0.8885,0.8885,0.8885,0.8885,0.8885,0.8885,0.8885,0.8885,-1.7582,-1.7582,-1.7582,-1.7582,-1.7582,-1.7582,-1.7582,-1.7582,-1.7582,-1.7582,-1.7582,-1.7582,-1.7582,-1.7582,-1.7582,-1.7582,-1.7582,-1.7582,-1.7582,-1.7582,-1.7582,-1.7582,-1.7582,-1.7582,-1.7582,-1.7582,-1.7477,-1.7259,-1.7259,-1.6499,-1.5091,-1.4877,-1.3426,-1.1105,-1.0891,-1.0076,-0.8885,-0.8885,-0.8885,-0.8885,-0.8885,-0.8885,-0.8885,-0.8885,-0.8885,-0.8885,-0.8885,-0.8885,-0.8885,-0.8885,-0.8885,-0.8885,-0.8885,-0.8885,-0.8885,-0.8885,-0.8885,-0.8885,-0.8885,-0.8885,-0.8885,-0.8885,-0.8885,-0.8885,-0.8885,-0.8885,-0.8885,-0.8885,-0.8885,-0.8885,-0.8885,-0.8885,-0.8885,-0.8885,-0.8716,-0.8156,-0.6869,-0.6311,-0.5081,-0.2515,-0.2012,-0.1399,-0.0112,0.0,0.0,0.0,0.0,0.0,0.0,0.0,0.0,0.0,0.0,0.0,0.0,0.0,0.0,0.0,0.151,0.3017,0.4528,0.6031,0.7485,0.8885,0.8885,0.8885,0.8885,0.8885,0.8885,0.8885,0.8885,0.8885,0.8885,0.8885,0.8885,0.8885,-1.7582,-1.7582,-1.7582,-1.7582,-1.7582,-1.7582,-1.7582,-1.7582,-1.7582,-1.7582,-1.7582,-1.7582,-1.7582,-1.7582,-1.7582,-1.7582,-1.7582,-1.7582,-1.7582,-1.7582,-1.7582,-1.7582,-1.7582,-1.7582,-1.7582,-1.7582,-1.6988,-1.5743,-1.5743,-1.5043,-1.3588,-1.2349,-1.1538,-1.1051,-0.9809,-0.9099,-0.8885,-0.8885,-0.8885,-0.8885,-0.8885,-0.8885,-0.8885,-0.8885,-0.8885,-0.8885,-0.8885,-0.8885,-0.8885,-0.8885,-0.8885,-0.8885,-0.8885,-0.8885,-0.8885,-0.8885,-0.8885,-0.8885,-0.8885,-0.8885,-0.8885,-0.8885,-0.8885,-0.8885,-0.8885,-0.8885,-0.8885,-0.8885,-0.8885,-0.8885,-0.8885,-0.8885,-0.8885,-0.8885,-0.7875,-0.698,-0.6758,-0.4522,-0.2738,-0.2235,-0.1119,-0.0224,0.0,0.0,0.0,0.0,0.0,0.0,0.0,0.0,0.0,0.0,0.0,0.0,0.0,0.0,0.0,0.0,0.151,0.3017,0.4528,0.6031,0.7485,0.8885,0.8885,0.8885,0.8885,0.8885,0.8885,0.8885,0.8885,0.8885,0.8885,0.8885,0.8885,0.8885,-1.7582,-1.7582,-1.7582,-1.7582,-1.7582,-1.7582,-1.7582,-1.7582,-1.7582,-1.7582,-1.7582,-1.7582,-1.7582,-1.7582,-1.7582,-1.7582,-1.7582,-1.7582,-1.7582,-1.7582,-1.7582,-1.7582,-1.7582,-1.7252,-1.6446,-1.644,-1.5689,-1.4288,-1.4288,-1.3534,-1.2077,-1.1428,-1.0676,-0.986,-0.921,-0.8885,-0.8885,-0.8885,-0.8885,-0.8885,-0.8885,-0.8885,-0.8885,-0.8885,-0.8885,-0.8885,-0.8885,-0.8885,-0.8885,-0.8885,-0.8885,-0.8885,-0.8885,-0.8885,-0.8885,-0.8885,-0.8885,-0.8885,-0.8885,-0.8885,-0.8885,-0.8885,-0.8885,-0.8885,-0.8885,-0.8885,-0.8885,-0.8885,-0.8885,-0.8885,-0.8885,-0.8266,-0.7706,-0.7706,-0.6478,-0.525,-0.4411,-0.3072,-0.1901,-0.1119,-0.0392,0.0,0.0,0.0,0.0,0.0,0.0,0.0,0.0,0.0,0.0,0.0,0.0,0.0,0.0,0.0,0.0,0.0,0.2349,0.3799,0.4582,0.6869,0.8266,0.8885,0.8885,0.8885,0.8885,0.8885,0.8885,0.8885,0.8885,0.8885,0.8885,0.8885,0.8885,0.8885,-1.7582,-1.7582,-1.7582,-1.7582,-1.7582,-1.7582,-1.7582,-1.7582,-1.7582,-1.7582,-1.7582,-1.7582,-1.7582,-1.7582,-1.7582,-1.7582,-1.7582,-1.7582,-1.7582,-1.7582,-1.7582,-1.7582,-1.7259,-1.6552,-1.5417,-1.5091,-1.4234,-1.2783,-1.2783,-1.2028,-1.0566,-1.0566,-0.997,-0.8885,-0.8885,-0.8885,-0.8885,-0.8885,-0.8885,-0.8885,-0.8885,-0.8885,-0.8885,-0.8885,-0.8885,-0.8885,-0.8885,-0.8885,-0.8885,-0.8885,-0.8885,-0.8885,-0.8885,-0.8885,-0.8885,-0.8885,-0.8885,-0.8885,-0.8885,-0.8885,-0.8885,-0.8885,-0.8885,-0.8885,-0.8885,-0.8885,-0.8885,-0.8885,-0.8885,-0.8885,-0.8885,-0.7706,-0.6702,-0.6702,-0.5139,-0.3576,-0.2347,-0.1901,-0.1287,-0.0112,0.0,0.0,0.0,0.0,0.0,0.0,0.0,0.0,0.0,0.0,0.0,0.0,0.0,0.0,0.0,0.0,0.0,0.0056,0.2684,0.4136,0.4582,0.7202,0.8602,0.8885,0.8885,0.8885,0.8885,0.8885,0.8885,0.8885,0.8885,0.8885,0.8885,0.8885,0.8885,0.8885,-1.7582,-1.7582,-1.7582,-1.7582,-1.7582,-1.7582,-1.7582,-1.7582,-1.7582,-1.7582,-1.7582,-1.7582,-1.7582,-1.7582,-1.7582,-1.7582,-1.7582,-1.7582,-1.7582,-1.7582,-1.7582,-1.7582,-1.628,-1.5524,-1.5417,-1.4126,-1.2724,-1.1269,-1.1269,-1.0511,-0.9047,-0.9047,-0.8992,-0.8885,-0.8885,-0.8885,-0.8885,-0.8885,-0.8885,-0.8885,-0.8885,-0.8885,-0.8885,-0.8885,-0.8885,-0.8885,-0.8885,-0.8885,-0.8885,-0.8885,-0.8885,-0.8885,-0.8885,-0.8885,-0.8885,-0.8885,-0.8885,-0.8885,-0.8885,-0.8885,-0.8885,-0.8885,-0.8885,-0.8885,-0.8885,-0.8885,-0.8885,-0.8885,-0.8885,-0.8885,-0.8885,-0.7706,-0.6702,-0.6702,-0.4242,-0.2347,-0.2235,-0.1008,-0.0112,0.0,0.0,0.0,0.0,0.0,0.0,0.0,0.0,0.0,0.0,0.0,0.0,0.0,0.0,0.0,0.0,0.0,0.0,0.0,0.1622,0.3129,0.4528,0.6144,0.7595,0.8885,0.8885,0.8885,0.8885,0.8885,0.8885,0.8885,0.8885,0.8885,0.8885,0.8885,0.8885,0.8885,-1.7582,-1.7582,-1.7582,-1.7582,-1.7582,-1.7582,-1.7582,-1.7582,-1.7582,-1.7582,-1.7582,-1.7582,-1.7582,-1.7582,-1.7582,-1.7582,-1.7582,-1.7582,-1.7582,-1.7582,-1.7199,-1.628,-1.5689,-1.4556,-1.2778,-1.2186,-1.1214,-0.9754,-0.9754,-0.9427,-0.8885,-0.8885,-0.8885,-0.8885,-0.8885,-0.8885,-0.8885,-0.8885,-0.8885,-0.8885,-0.8885,-0.8885,-0.8885,-0.8885,-0.8885,-0.8885,-0.8885,-0.8885,-0.8885,-0.8885,-0.8885,-0.8885,-0.8885,-0.8885,-0.8885,-0.8885,-0.8885,-0.8885,-0.8885,-0.8885,-0.8885,-0.8885,-0.8885,-0.8885,-0.8885,-0.8885,-0.8657,-0.7706,-0.7537,-0.726,-0.6366,-0.4912,-0.3908,-0.3908,-0.218,-0.084,-0.084,-0.0336,0.0,0.0,0.0,0.0,0.0,0.0,0.0,0.0,0.0,0.0,0.0,0.0,0.0,0.0,0.0,0.0,0.0,0.0,0.0,0.0056,0.246,0.3911,0.4582,0.698,0.838,0.8885,0.8885,0.8885,0.8885,0.8885,0.8885,0.8885,0.8885,0.8885,0.8885,0.8885,0.8885,0.8885,-1.7582,-1.7582,-1.7582,-1.7582,-1.7582,-1.7582,-1.7582,-1.7582,-1.7582,-1.7582,-1.7582,-1.7582,-1.7582,-1.7582,-1.7582,-1.7582,-1.7582,-1.7582,-1.7582,-1.7147,-1.6446,-1.5417,-1.4556,-1.3102,-1.116,-1.0672,-0.9915,-0.8885,-0.8885,-0.8885,-0.8885,-0.8885,-0.8885,-0.8885,-0.8885,-0.8885,-0.8885,-0.8885,-0.8885,-0.8885,-0.8885,-0.8885,-0.8885,-0.8885,-0.8885,-0.8885,-0.8885,-0.8885,-0.8885,-0.8885,-0.8885,-0.8885,-0.8885,-0.8885,-0.8885,-0.8885,-0.8885,-0.8885,-0.8885,-0.8546,-0.8322,-0.8771,-0.8885,-0.8771,-0.8322,-0.8211,-0.7817,-0.6311,-0.6031,-0.5697,-0.4693,-0.324,-0.218,-0.218,-0.0952,0.0,0.0,0.0,0.0,0.0,0.0,0.0,0.0,0.0,0.0,0.0,0.0,0.0,0.0,0.0,0.0,0.0,0.0,0.0,0.0,0.0,0.0,0.0056,0.2573,0.3799,0.3855,0.6869,0.8211,0.8211,0.8716,0.8885,0.8885,0.8885,0.8885,0.8885,0.8885,0.8885,0.8885,0.8885,0.8885,0.8885,-1.7582,-1.7582,-1.7582,-1.7582,-1.7582,-1.7582,-1.7582,-1.7582,-1.7582,-1.7582,-1.7582,-1.7582,-1.7582,-1.7582,-1.7582,-1.7582,-1.7582,-1.7582,-1.7582,-1.6174,-1.5364,-1.5364,-1.2615,-1.1105,-1.1105,-0.9644,-0.8885,-0.8885,-0.8885,-0.8885,-0.8885,-0.8885,-0.8885,-0.8885,-0.8885,-0.8885,-0.8885,-0.8885,-0.8885,-0.8885,-0.8885,-0.8885,-0.8885,-0.8885,-0.8885,-0.8885,-0.8885,-0.8885,-0.8885,-0.8885,-0.8885,-0.8885,-0.8885,-0.8885,-0.8885,-0.8885,-0.8885,-0.8885,-0.8881,-0.782,-0.7035,-0.8491,-0.8881,-0.8491,-0.7035,-0.67,-0.6255,-0.4804,-0.447,-0.447,-0.447,-0.3242,-0.218,-0.218,-0.0952,0.0,0.0,0.0,0.0,0.0,0.0,0.0,0.0,0.0,0.0,0.0,0.0,0.0,0.0,0.0,0.0,0.0,0.0,0.0,0.0,0.0,0.0,0.0,0.151,0.218,0.2347,0.5303,0.6702,0.6813,0.8266,0.8885,0.8885,0.8885,0.8885,0.8885,0.8885,0.8885,0.8885,0.8885,0.8885,0.8885,-1.7582,-1.7582,-1.7582,-1.7582,-1.7582,-1.7582,-1.7582,-1.7582,-1.7582,-1.7582,-1.7582,-1.7582,-1.7582,-1.7582,-1.7582,-1.7582,-1.7582,-1.7147,-1.6115,-1.3745,-1.2398,-1.2398,-1.1538,-1.0621,-0.9588,-0.9103,-0.8885,-0.8885,-0.8885,-0.8885,-0.8885,-0.8885,-0.8885,-0.8885,-0.8885,-0.8885,-0.8885,-0.8885,-0.8885,-0.8885,-0.8885,-0.8885,-0.8885,-0.8885,-0.8885,-0.8885,-0.8885,-0.8885,-0.8885,-0.8885,-0.8885,-0.8885,-0.8885,-0.8885,-0.8885,-0.8885,-0.8885,-0.866,-0.7651,-0.7035,-0.6813,-0.726,-0.6589,-0.5697,-0.5252,-0.514,-0.4749,-0.3185,-0.2905,-0.2572,-0.1511,-0.0952,-0.0672,-0.0672,-0.028,0.0,0.0,0.0,0.0,0.0,0.0,0.0,0.0,0.0,0.0,0.0,0.0,0.0,0.0,0.0,0.0,0.0,0.0,0.0,0.0,0.0,0.0,0.0,0.151,0.2794,0.3855,0.5808,0.726,0.8266,0.8716,0.8885,0.8885,0.8885,0.8885,0.8885,0.8885,0.8885,0.8885,0.8885,0.8885,0.8885,-1.7582,-1.7582,-1.7582,-1.7582,-1.7582,-1.7582,-1.7582,-1.7582,-1.7582,-1.7582,-1.7582,-1.7582,-1.7582,-1.7582,-1.7582,-1.7582,-1.7094,-1.5849,-1.3857,-1.2077,-1.0836,-1.0241,-1.0241,-0.9805,-0.8937,-0.8885,-0.8885,-0.8885,-0.8885,-0.8885,-0.8885,-0.8885,-0.8885,-0.8885,-0.8885,-0.8885,-0.8885,-0.8885,-0.8885,-0.8885,-0.8885,-0.8885,-0.8885,-0.8885,-0.8885,-0.8885,-0.8885,-0.8885,-0.8885,-0.8885,-0.8885,-0.8885,-0.8885,-0.8885,-0.8771,-0.8211,-0.8042,-0.7706,-0.6255,-0.5361,-0.4912,-0.4912,-0.4691,-0.4359,-0.3744,-0.3576,-0.3186,-0.1622,-0.1343,-0.1063,-0.0168,0.0,0.0,0.0,0.0,0.0,0.0,0.0,0.0,0.0,0.0,0.0,0.0,0.0,0.0,0.0,0.0,0.0,0.0,0.0,0.0,0.0,0.0,0.0,0.0,0.0,0.0,0.0,0.0896,0.2125,0.3632,0.5139,0.6647,0.8042,0.8657,0.8885,0.8885,0.8885,0.8885,0.8885,0.8885,0.8885,0.8885,0.8885,0.8885,0.8885,-1.7582,-1.7582,-1.7582,-1.7582,-1.7582,-1.7582,-1.7582,-1.7582,-1.7582,-1.7582,-1.7582,-1.7582,-1.7582,-1.7582,-1.7582,-1.7582,-1.6121,-1.4019,-1.1269,-1.1,-1.0296,-0.8937,-0.8885,-0.8885,-0.8885,-0.8885,-0.8885,-0.8885,-0.8885,-0.8885,-0.8885,-0.8885,-0.8885,-0.8885,-0.8885,-0.8885,-0.8885,-0.8885,-0.8885,-0.8885,-0.8885,-0.8885,-0.8885,-0.8885,-0.8885,-0.8885,-0.8885,-0.8885,-0.8885,-0.8885,-0.8885,-0.8885,-0.8885,-0.8826,-0.8436,-0.7091,-0.6589,-0.62,-0.4693,-0.3296,-0.218,-0.2012,-0.3074,-0.3744,-0.2347,-0.2012,-0.1622,-0.028,0.0,0.0,0.0,0.0,0.0,0.0,0.0,0.0,0.0,0.0,0.0,0.0,0.0,0.0,0.0,0.0,0.0,0.0,0.0,0.0,0.0,0.0,0.0,0.0,0.0,0.0,0.0,0.0,0.0,0.0,0.0,0.084,0.2459,0.3855,0.5363,0.698,0.8322,0.8885,0.8885,0.8885,0.8885,0.8885,0.8885,0.8885,0.8885,0.8885,0.8885,0.8885,-1.7582,-1.7582,-1.7582,-1.7582,-1.7582,-1.7582,-1.7582,-1.7582,-1.7582,-1.7582,-1.7582,-1.7582,-1.7582,-1.7582,-1.7582,-1.7582,-1.5257,-1.2994,-1.1214,-1.0021,-0.921,-0.894,-0.8885,-0.8885,-0.8885,-0.8885,-0.8885,-0.8885,-0.8885,-0.8885,-0.8885,-0.8885,-0.8885,-0.8885,-0.8885,-0.8885,-0.8885,-0.8885,-0.8885,-0.8885,-0.8885,-0.8885,-0.8885,-0.8885,-0.8885,-0.8885,-0.8885,-0.8885,-0.8885,-0.8885,-0.8885,-0.8885,-0.8885,-0.8097,-0.7091,-0.6813,-0.5864,-0.4637,-0.3129,-0.2459,-0.1901,-0.0784,-0.0728,-0.0896,-0.056,-0.0504,-0.0392,-0.0056,0.0,0.0,0.0,0.0,0.0,0.0,0.0,0.0,0.0,0.0,0.0,0.0,0.0,0.0,0.0,0.0,0.0,0.0,0.0,0.0,0.0,0.0,0.0,0.0,0.0,0.0,0.0,0.0,0.0,0.0,0.0,0.14,0.4023,0.4359,0.5919,0.8436,0.8771,0.8885,0.8885,0.8885,0.8885,0.8885,0.8885,0.8885,0.8885,0.8885,0.8885,0.8885,-1.7582,-1.7582,-1.7582,-1.7582,-1.7582,-1.7582,-1.7582,-1.7582,-1.7582,-1.7582,-1.7582,-1.7582,-1.7582,-1.7582,-1.7041,-1.5689,-1.418,-1.2403,-1.0186,-0.9316,-0.8885,-0.8885,-0.8885,-0.8885,-0.8885,-0.8885,-0.8885,-0.8885,-0.8885,-0.8885,-0.8885,-0.8885,-0.8885,-0.8885,-0.8885,-0.8885,-0.8885,-0.8885,-0.8885,-0.8885,-0.8885,-0.8885,-0.8885,-0.8885,-0.8885,-0.8885,-0.8885,-0.8885,-0.8885,-0.8885,-0.8885,-0.8885,-0.8885,-0.7875,-0.6589,-0.5864,-0.458,-0.3074,-0.1566,-0.1175,-0.0952,-0.0168,0.0,0.0,0.0,0.0,0.0,0.0,0.0,0.0,0.0,0.0,0.0,0.0,0.0,0.0,0.0,0.0,0.0,0.0,0.0,0.0,0.0,0.0,0.0,0.0,0.0,0.0,0.0,0.0,0.0,0.0,0.0,0.0,0.0,0.0,0.0,0.0,0.0,0.1567,0.4526,0.4526,0.6086,0.8885,0.8885,0.8885,0.8885,0.8885,0.8885,0.8885,0.8885,0.8885,0.8885,0.8885,0.8885,0.8885,-1.7582,-1.7582,-1.7582,-1.7582,-1.7582,-1.7582,-1.7582,-1.7582,-1.7582,-1.7582,-1.7582,-1.7582,-1.7582,-1.7364,-1.6174,-1.3534,-1.3048,-1.1755,-0.9103,-0.8885,-0.8885,-0.8885,-0.8885,-0.8885,-0.8885,-0.8885,-0.8885,-0.8885,-0.8885,-0.8885,-0.8885,-0.8885,-0.8885,-0.8885,-0.8885,-0.8885,-0.8885,-0.8885,-0.8885,-0.8885,-0.8885,-0.8885,-0.8885,-0.8885,-0.8885,-0.8885,-0.8885,-0.8885,-0.8885,-0.8885,-0.8885,-0.8881,-0.8602,-0.754,-0.6031,-0.4526,-0.3017,-0.1566,-0.0336,0.0,0.0,0.0,0.0,0.0,0.0,0.0,0.0,0.0,0.0,0.0,0.0,0.0,0.0,0.0,0.0,0.0,0.0,0.0,0.0,0.0,0.0,0.0,0.0,0.0,0.0,0.0,0.0,0.0,0.0,0.0,0.0,0.0,0.0,0.0,0.0,0.0,0.0,0.0,0.0,0.1567,0.4526,0.4526,0.6086,0.8885,0.8885,0.8885,0.8885,0.8885,0.8885,0.8885,0.8885,0.8885,0.8885,0.8885,0.8885,0.8885,-1.7582,-1.7582,-1.7582,-1.7582,-1.7582,-1.7582,-1.7582,-1.7582,-1.7582,-1.7582,-1.7582,-1.7582,-1.7582,-1.6446,-1.5037,-1.3426,-1.2132,-1.0672,-0.8992,-0.8885,-0.8885,-0.8885,-0.8885,-0.8885,-0.8885,-0.8885,-0.8885,-0.8885,-0.8885,-0.8885,-0.8885,-0.8885,-0.8885,-0.8885,-0.8885,-0.8885,-0.8885,-0.8885,-0.8885,-0.8885,-0.8885,-0.8885,-0.8885,-0.8885,-0.8885,-0.8885,-0.8885,-0.8885,-0.8885,-0.8885,-0.8885,-0.866,-0.7426,-0.5975,-0.447,-0.2961,-0.1455,-0.028,-0.0056,0.0,0.0,0.0,0.0,0.0,0.0,0.0,0.0,0.0,0.0,0.0,0.0,0.0,0.0,0.0,0.0,0.0,0.0,0.0,0.0,0.0,0.0,0.0,0.0,0.0,0.0,0.0,0.0,0.0,0.0,0.0,0.0,0.0,0.0,0.0,0.0,0.0,0.0,0.0,0.0,0.1567,0.4526,0.4526,0.6086,0.8885,0.8885,0.8885,0.8885,0.8885,0.8885,0.8885,0.8885,0.8885,0.8885,0.8885,0.8885,0.8885,-1.7582,-1.7582,-1.7582,-1.7582,-1.7582,-1.7582,-1.7582,-1.7582,-1.7582,-1.7582,-1.7582,-1.7582,-1.7582,-1.628,-1.4824,-1.3426,-1.1973,-1.0457,-0.8992,-0.8885,-0.8885,-0.8885,-0.8885,-0.8885,-0.8885,-0.8885,-0.8885,-0.8885,-0.8885,-0.8885,-0.8885,-0.8885,-0.8885,-0.8885,-0.8885,-0.8885,-0.8885,-0.8885,-0.8885,-0.8885,-0.8885,-0.8885,-0.8885,-0.8885,-0.8885,-0.8885,-0.8885,-0.8885,-0.8885,-0.8885,-0.8885,-0.8657,-0.7149,-0.5697,-0.4191,-0.2626,-0.1175,0.0,0.0,0.0,0.0,0.0,0.0,0.0,0.0,0.0,0.0,0.0,0.0,0.0,0.0,0.0,0.0,0.0,0.0,0.0,0.0,0.0,0.0,0.0,0.0,0.0,0.0,0.0,0.0,0.0,0.0,0.0,0.0,0.0,0.0,0.0,0.0,0.0,0.0,0.0,0.0,0.0,0.0,0.1567,0.4526,0.4526,0.6086,0.8885,0.8885,0.8885,0.8885,0.8885,0.8885,0.8885,0.8885,0.8885,0.8885,0.8885,0.8885,0.8885]},{"header":{"parameterUnit":"m.s-1","parameterCategory":1,"la1":30.6,"la2":28.766,"lo1":-90.7593,"lo2":-88.6598,"dy":0.0162,"dx":0.0183,"nx":116,"ny":114,"refTime":"2024-03-26T12:00:00:Z","depth":0,"parameterNumber":3,"parameterNumberName":"V-component_of_WINDS"},"data":[0.0,0.0,0.0,0.0,0.0,0.0,0.0,0.0,0.0,0.0,0.0,0.0,0.0,0.0,0.0,0.0,0.0,0.0,0.0,0.0,0.0,0.0,0.0,0.0,0.0,0.0,0.0,0.0,0.0,0.0,0.0,0.0,0.0,0.0,0.0,0.0,0.0,0.0,0.0,0.0,0.0,0.0,0.0,0.0,0.0,0.0,0.0,0.0,0.0,0.0,0.0,0.0,0.0,0.0,0.0,0.0,0.0,0.0,0.0,0.0,0.0,0.0,0.0,0.0,0.0,0.0,0.0,0.0,0.0,0.0,0.0,0.0,0.0,0.0,0.0,0.0,0.0,0.0,0.0,0.0,0.0,0.0,0.0,0.0,0.0,0.0,0.0,0.0,0.0,0.0,0.0,0.0,0.0,0.0,0.0,0.0,0.0,0.0,0.0,0.0,0.0,0.0,0.0,0.0,0.0,0.0,0.0,0.0,0.0,0.0,0.0,0.0,0.0,0.0,0.0,0.0,0.0,0.0,0.0,0.0,0.0,0.0,0.0,0.0,0.0,0.0,0.0,0.0,0.0,0.0,0.0,0.0,0.0,0.0,0.0,0.0,0.0,0.0,0.0,0.0,0.0,0.0,0.0,0.0,0.0,0.0,0.0,0.0,0.0,0.0,0.0,0.0,0.0,0.0,0.0,0.0,0.0,0.0,0.0,0.0,0.0,0.0,0.0,0.0,0.0,0.0,0.0,0.0,0.0,0.0,0.0,0.0,0.0,0.0,0.0,0.0,0.0,0.0,0.0,0.0,0.0,0.0,0.0,0.0,0.0,0.0,0.0,0.0,0.0,0.0,0.0,0.0,0.0,0.0,0.0,0.0,0.0,0.0,0.0,0.0,0.0,0.0,0.0,0.0,0.0,0.0,0.0,0.0,0.0,0.0,0.0,0.0,0.0,0.0,0.0,0.0,0.0,0.0,0.0,0.0,0.0,0.0,0.0,0.0,0.0,0.0,0.0,0.0,0.0,0.0,0.0,0.0,0.0,0.0,0.0,0.0,0.0,0.0,0.0,0.0,0.0,0.0,0.0,0.0,0.0,0.0,0.0,0.0,0.0,0.0,0.0,0.0,0.0,0.0,0.0,0.0,0.0,0.0,0.0,0.0,0.0,0.0,0.0,0.0,0.0,0.0,0.0,0.0,0.0,0.0,0.0,0.0,0.0,0.0,0.0,0.0,0.0,0.0,0.0,0.0,0.0,0.0,0.0,0.0,0.0,0.0,0.0,0.0,0.0,0.0,0.0,0.0,0.0,0.0,0.0,0.0,0.0,0.0,0.0,0.0,0.0,0.0,0.0,0.0,0.0,0.0,0.0,0.0,0.0,0.0,0.0,0.0,0.0,0.0,0.0,0.0,0.0,0.0,0.0,0.0,0.0,0.0,0.0,0.0,0.0,0.0,0.0,0.0,0.0,0.0,0.0,0.0,0.0,0.0,0.0,0.0,0.0,0.0,0.0,0.0,0.0,0.0,0.0,0.0,0.0,0.0,0.0,0.0,0.0,0.0,0.0,0.0,0.0,0.0,0.0,0.0,0.0,0.0,0.0,0.0,0.0,0.0,0.0,0.0,0.0,0.0,0.0,0.0,0.0,0.0,0.0,0.0,0.0,0.0,0.0,0.0,0.0,0.0,0.0,0.0,0.0,0.0,0.0,0.0,0.0,0.0,0.0,0.0,0.0,0.0,0.0,0.0,0.0,0.0,0.0,0.0,0.0,0.0,0.0,0.0,0.0,0.0,0.0,0.0,0.0,0.0,0.0,0.0,0.0,0.0,0.0,0.0,0.0,0.0,0.0,0.0,0.0,0.0,0.0,0.0,0.0,0.0,0.0,0.0,0.0,0.0,0.0,0.0,0.0,0.0,0.0,0.0,0.0,0.0,0.0,0.0,0.0,0.0,0.0,0.0,0.0,0.0,0.0,0.0,0.0,0.0,0.0,0.0,0.0,0.0,0.0,0.0,0.0,0.0,0.0,0.0,0.0,0.0,0.0,0.0,0.0,0.0,0.0,0.0,0.0,0.0,0.0,0.0,0.0,0.0,0.0,0.0,0.0,0.0,0.0,0.0,0.0,0.0,0.0,0.0,0.0,0.0,0.0,0.0,0.0,0.0,0.0,0.0,0.0,0.0,0.0,0.0,0.0,0.0,0.0,0.0,0.0,0.0,0.0,0.0,0.0,0.0,0.0,0.0,0.0,0.0,0.0,0.0,0.0,0.0,0.0,0.0,0.0,0.0,0.0,0.0,0.0,0.0,0.0,0.0,0.0,0.0,0.0,0.0,0.0,0.0,0.0,0.0,0.0,0.0,0.0,0.0,0.0,0.0,0.0,0.0,0.0,0.0,0.0,0.0,0.0,0.0,0.0,0.0,0.0,0.0,0.0,0.0,0.0,0.0,0.0,0.0,0.0,0.0,0.0,0.0,0.0,0.0,0.0,0.0,0.0,0.0,0.0,0.0,0.0,0.0,0.0,0.0,0.0,0.0,0.0,0.0,0.0,0.0,0.0,0.0,0.0,0.0,0.0,0.0,0.0,0.0,0.0,0.0,0.0,0.0,0.0,0.0,0.0,0.0,0.0,0.0,0.0,0.0,0.0,0.0,0.0,0.0,0.0,0.0,0.0,0.0,0.0,0.0,0.0,0.0,0.0,0.0,0.0,0.0,0.0,0.0,0.0,0.0,0.0,0.0,0.0,0.0,0.0,0.0,0.0,0.0,0.0,0.0,0.0,0.0,0.0,0.0,0.0,0.0,0.0,0.0,0.0,0.0,0.0,0.0,0.0,0.0,0.0,0.0,0.0,0.0,0.0,0.0,0.0,0.0,0.0,0.0,0.0,0.0,0.0,0.0,0.0,0.0,0.0,0.0,0.0,0.0,0.0,0.0,0.0,0.0,0.0,0.0,0.0,0.0,0.0,0.0,0.0,0.0,0.0,0.0,0.0,0.0,0.0,0.0,0.0,0.0,0.0,0.0,0.0,0.0,0.0,0.0,0.0,0.0,0.0,0.0,0.0,0.0,0.0,0.0,0.0,0.0,0.0,0.0,0.0,0.0,0.0,0.0,0.0,0.0,0.0,0.0,0.0,0.0,0.0,0.0,0.0,0.0,0.0,0.0,0.0,0.0,0.0,0.0,0.0,0.0,0.0,0.0,0.0,0.0,0.0,0.0,0.0,0.0,0.0,0.0,0.0,0.0,0.0,0.0,0.0,0.0,0.0,0.0,0.0,0.0,0.0,0.0,0.0,0.0,0.0,0.0,0.0,0.0,0.0,0.0,0.0,0.0,0.0,0.0,0.0,0.0,0.0,0.0,0.0,0.0,0.0,0.0,0.0,0.0,0.0,0.0,0.0,0.0,0.0,0.0,0.0,0.0,0.0,0.0,0.0,0.0,0.0,0.0,0.0,0.0,0.0,0.0,0.0,0.0,0.0,0.0,0.0,0.0,0.0,0.0,0.0,0.0,0.0,0.0,0.0,0.0,0.0,0.0,0.0,0.0,0.0,0.0,0.0,0.0,0.0,0.0,0.0,0.0,0.0,0.0,0.0,0.0,0.0,0.0,0.0,0.0,0.0,0.0,0.0,0.0,0.0,0.0,0.0,0.0,0.0,0.0,0.0,0.0,0.0,0.0,0.0,0.0,0.0,0.0,0.0,0.0,0.0,0.0,0.0,0.0,0.0,0.0,0.0,0.0,0.0,0.0,0.0,0.0,0.0,0.0,0.0,0.0,0.0,0.0,0.0,0.0,0.0,0.0,0.0,0.0,0.0,0.0,0.0,0.0,0.0,0.0,0.0,0.0,0.0,0.0,0.0,0.0,0.0,0.0,0.0,0.0,0.0,0.0,0.0,0.0,0.0,0.0,0.0,0.0,0.0,0.0,0.0,0.0,0.0,0.0,0.0,0.0,0.0,0.0,0.0,0.0,0.0,0.0,0.0,0.0,0.0,0.0,0.0,0.0,0.0,0.0,0.0,0.0,0.0,0.0,0.0,0.0,0.0,0.0,0.0,0.0,0.0,0.0,0.0,0.0,0.0,0.0,0.0,0.0,0.0,0.0,0.0,0.0,0.0,0.0,0.0,0.0,0.0,0.0,0.0,0.0,0.0,0.0,0.0,0.0,0.0,0.0,0.0,0.0,0.0,0.0,0.0,0.0,0.0,0.0,0.0,0.0,0.0,0.0,0.0,0.0,0.0,0.0,0.0,0.0,0.0,0.0,0.0,0.0,0.0,0.0,0.0,0.0,0.0,0.0,0.0,0.0,0.0,0.0,0.0,0.0,0.0,0.0,0.0,0.0,0.0,0.0,0.0,0.0,0.0,0.0,0.0,0.0,0.0,0.0,0.0,0.0,0.0,0.0,0.0,0.0,0.0,0.0,0.0,0.0,0.0,0.0,0.0,0.0,0.0,0.0,0.0,0.0,0.0,0.0,0.0,0.0,0.0,0.0,0.0,0.0,0.0,0.0,0.0,0.0,0.0,0.0,0.0,0.0,0.0,0.0,0.0,0.0,0.0,0.0,0.0,0.0,0.0,0.0,0.0,0.0,0.0,0.0,0.0,0.0,0.0,0.0,0.0,0.0,0.0,0.0,0.0,0.0,0.0,0.0,0.0,0.0,0.0,0.0,0.0,0.0,0.0,0.0,0.0,0.0,0.0,0.0,0.0,0.0,0.0,0.0,0.0,0.0,0.0,0.0,0.0,0.0,0.0,0.0,0.0,0.0,0.0,0.0,0.0,0.0,0.0,0.0,0.0,0.0,0.0,0.0,0.0,0.0,0.0,0.0,0.0,0.0,0.0,0.0,0.0,0.0,0.0,0.0,0.0,0.0,0.0,0.0,0.0,0.0,0.0,0.0,0.0,0.0,0.0,0.0,0.0,0.0,0.0,0.0,0.0,0.0,0.0,0.0,0.0,0.0,0.0,0.0,0.0,0.0,0.0,0.0,0.0,0.0,0.0,0.0,0.0,0.0,0.0,0.0,0.0,0.0,0.0,0.0,0.0,0.0,0.0,0.0,0.0,0.0,0.0,0.0,0.0,0.0,0.0,0.0,0.0,0.0,0.0,0.0,0.0,0.0,0.0,0.0,0.0,0.0,0.0,0.0,0.0,0.0,0.0,0.0,0.0,0.0,0.0,0.0,0.0,0.0,0.0,0.0,0.0,0.0,0.0,0.0,0.0,0.0,0.0,0.0,0.0,0.0,0.0,0.0,0.0,0.0,0.0,0.0,0.0,0.0,0.0,0.0,0.0,0.0,0.0,0.0,0.0,0.0,0.0,0.0,0.0,0.0,0.0,0.0,0.0,0.0,0.0,0.0,0.0,0.0,0.0,0.0,0.0,0.0,0.0,0.0,0.0,0.0,0.0,0.0,0.0,0.0,0.0,0.0,0.0,0.0,0.0,0.0,0.0,0.0,0.0,0.0,0.0,0.0,0.0,0.0,0.0,0.0,0.0,0.0,0.0,0.0,0.0,0.0,0.0,0.0,0.0,0.0,0.0,0.0,0.0,0.0,0.0,0.0,0.0,0.0,0.0,0.0,0.0,0.0,0.0,0.0,0.0,0.0,0.0,0.0,0.0,0.0,0.0,0.0,0.0,0.0,0.0,0.0,0.0,0.0,0.0,0.0,0.0,0.0,0.0,0.0,0.0,0.0,0.0,0.0,0.0,0.0,0.0,0.0,0.0,0.0,0.0,0.0,0.0,0.0,0.0,0.0,0.0,0.0,0.0,0.0,0.0,0.0,0.0,0.0,0.0,0.0,0.0,0.0,0.0,0.0,0.0,0.0,0.0,0.0,0.0,0.0,0.0,0.0,0.0,0.0,0.0,0.0,0.0,0.0,0.0,0.0,0.0,0.0,0.0,0.0,0.0,0.0,0.0,0.0,0.0,0.0,0.0,0.0,0.0,0.0,0.0,0.0,0.0,0.0,0.0,0.0,0.0,0.0,0.0,0.0,0.0,0.0,0.0,0.0,0.0,0.0,0.0,0.0,0.0,0.0,0.0,0.0,0.0,0.0,0.0,0.0,0.0,0.0,0.0,0.0,0.0,0.0,0.0,0.0,0.0,0.0,0.0,0.0,2.2135,2.197,0.0,0.0,0.0,0.0,0.0,0.0,0.0,0.0,0.0,0.0,0.0,0.0,0.0,0.0,0.0,0.0,0.0,0.0,0.0,0.0,0.0,0.0,0.0,2.4945,2.4945,2.4945,2.4945,2.4945,2.4945,0.0,0.0,0.0,0.0,0.0,2.3514,2.3514,2.3514,2.3514,2.3514,2.3514,2.3489,2.2489,2.1687,2.1133,0.0,0.0,0.0,0.0,0.0,0.0,0.0,0.0,0.0,0.0,0.0,0.0,0.0,0.0,0.0,0.0,0.0,0.0,0.0,0.0,0.0,0.0,0.0,0.0,0.0,0.0,0.0,0.0,0.0,0.0,0.0,0.0,0.0,0.0,0.0,0.0,0.0,0.0,0.0,0.0,0.0,0.0,0.0,0.0,0.0,0.0,0.0,0.0,0.0,0.0,0.0,0.0,0.0,0.0,0.0,0.0,0.0,0.0,0.0,0.0,0.0,0.0,0.0,0.0,0.0,0.0,0.0,0.0,0.0,0.0,2.3773,2.328,0.0,0.0,0.0,0.0,0.0,0.0,0.0,0.0,0.0,0.0,0.0,0.0,0.0,0.0,0.0,0.0,0.0,0.0,0.0,0.0,0.0,2.6499,2.6499,2.6499,2.6499,2.6499,2.6499,2.6499,2.6499,2.5734,0.0,0.0,2.448,2.4024,2.4024,2.4024,2.4097,2.4218,2.4218,2.4158,2.4024,2.4024,2.4024,2.3952,2.2776,0.0,0.0,0.0,0.0,0.0,0.0,0.0,0.0,0.0,0.0,0.0,0.0,0.0,0.0,0.0,0.0,0.0,0.0,0.0,0.0,0.0,0.0,0.0,0.0,0.0,0.0,0.0,0.0,0.0,0.0,0.0,0.0,0.0,0.0,0.0,0.0,0.0,0.0,0.0,0.0,0.0,0.0,0.0,0.0,0.0,0.0,0.0,0.0,0.0,0.0,0.0,0.0,0.0,0.0,0.0,0.0,0.0,0.0,0.0,0.0,0.0,0.0,0.0,2.8757,2.8702,2.8688,2.8252,2.7753,2.7138,2.5654,2.4811,2.4481,2.4481,0.0,0.0,0.0,0.0,0.0,0.0,0.0,0.0,0.0,0.0,0.0,0.0,0.0,0.0,0.0,0.0,0.0,0.0,0.0,2.6499,2.6499,2.6499,2.6499,2.6499,2.6499,2.6499,2.6499,2.6383,2.6314,2.6314,2.6164,2.6094,2.6094,2.6094,2.6436,2.7144,2.7144,2.6786,2.6094,2.6094,2.6094,2.6013,2.4145,2.3294,2.3294,0.0,0.0,0.0,0.0,0.0,0.0,0.0,0.0,0.0,0.0,0.0,0.0,0.0,0.0,0.0,0.0,0.0,0.0,0.0,0.0,0.0,0.0,0.0,0.0,0.0,0.0,0.0,0.0,0.0,0.0,0.0,0.0,0.0,0.0,0.0,0.0,0.0,0.0,0.0,0.0,0.0,2.8844,2.8844,0.0,0.0,0.0,0.0,0.0,0.0,0.0,0.0,0.0,0.0,0.0,0.0,0.0,2.8502,2.8657,2.8294,2.8171,2.8307,2.7769,2.7506,2.7506,2.7452,2.7383,2.7299,2.7697,0.0,2.5259,2.5259,0.0,0.0,0.0,0.0,0.0,0.0,0.0,0.0,0.0,0.0,0.0,0.0,0.0,0.0,0.0,0.0,0.0,0.0,0.0,0.0,0.0,2.792,2.792,2.792,2.792,2.792,2.792,2.792,2.792,2.792,2.792,2.792,2.792,2.792,2.8084,2.8427,2.8427,2.8247,2.792,2.792,2.792,2.7855,2.6463,2.5298,2.4301,2.3745,0.0,0.0,0.0,0.0,0.0,0.0,0.0,0.0,0.0,0.0,0.0,0.0,0.0,0.0,0.0,0.0,0.0,0.0,0.0,0.0,0.0,0.0,0.0,0.0,0.0,0.0,0.0,0.0,0.0,0.0,0.0,0.0,0.0,0.0,0.0,0.0,0.0,0.0,0.0,2.9066,2.9192,2.9659,2.8971,2.8427,0.0,0.0,0.0,0.0,0.0,0.0,0.0,0.0,0.0,2.9002,2.9473,2.9721,2.9721,2.9965,3.0044,3.0044,2.9784,2.9668,2.9668,2.9668,2.945,2.9116,2.9443,2.8874,2.7741,2.7284,2.6708,2.605,0.0,0.0,0.0,0.0,2.5728,2.6122,0.0,0.0,0.0,0.0,0.0,0.0,0.0,0.0,0.0,0.0,0.0,0.0,2.9002,2.9002,2.9002,2.9002,2.9002,2.9002,2.9002,2.9002,2.9002,2.9002,2.9002,2.9002,2.9002,2.9223,2.9223,2.9002,2.9223,2.9223,2.9002,2.9002,2.9002,2.8971,2.833,2.7178,2.5627,2.4684,2.4289,0.0,0.0,0.0,0.0,0.0,0.0,0.0,0.0,0.0,0.0,0.0,0.0,0.0,0.0,0.0,0.0,0.0,0.0,0.0,0.0,0.0,0.0,0.0,0.0,0.0,0.0,0.0,0.0,0.0,0.0,0.0,0.0,0.0,0.0,0.0,0.0,0.0,0.0,3.0042,2.9889,3.0524,2.9858,2.9317,0.0,0.0,0.0,0.0,0.0,0.0,2.9317,2.9317,2.9442,2.9628,3.0269,3.0614,3.0614,3.119,3.1511,3.1511,3.1511,3.1511,3.1511,3.1511,3.1227,3.0776,3.0776,3.0603,3.0274,2.9173,2.8318,2.7677,2.7131,2.6708,2.6534,2.7062,2.7398,2.7597,0.0,0.0,0.0,0.0,0.0,0.0,0.0,0.0,0.0,0.0,0.0,2.9002,2.9002,2.9002,2.9002,2.9002,2.9002,2.9002,2.9002,2.9002,2.9002,2.9002,2.9002,2.9002,2.9002,2.9827,2.9827,2.9002,2.9827,2.9827,2.9002,2.9002,2.9002,2.9002,2.8939,2.8427,2.7504,2.6701,2.6349,2.6349,0.0,0.0,0.0,0.0,0.0,0.0,0.0,0.0,0.0,0.0,0.0,0.0,0.0,0.0,0.0,0.0,0.0,0.0,0.0,0.0,0.0,0.0,0.0,0.0,0.0,0.0,0.0,0.0,0.0,0.0,0.0,0.0,0.0,0.0,0.0,0.0,0.0,0.0,0.0,3.1438,3.0748,0.0,0.0,0.0,0.0,2.9002,2.9002,2.9348,3.0208,3.0238,3.0584,3.1351,3.1409,3.1438,3.1438,3.1467,3.1511,3.1511,3.1511,3.1511,3.1511,3.1511,3.1481,3.1451,3.1451,3.1834,3.2319,3.0332,2.9053,2.8352,2.8324,2.8726,2.9289,2.9342,2.9765,3.0296,0.0,0.0,0.0,0.0,0.0,2.8844,2.969,2.9858,3.0011,3.0554,3.1013,3.1303,3.1303,3.17,3.1949,3.1949,3.1949,3.1949,3.1949,3.156,3.1303,3.1303,3.0852,3.0822,3.1303,3.2038,3.2066,3.1303,3.2066,3.1801,3.0614,3.1086,3.1057,3.0584,3.0072,2.9659,2.9317,2.846,2.8117,2.8117,2.8117,2.7769,0.0,0.0,0.0,0.0,0.0,0.0,0.0,0.0,0.0,0.0,0.0,0.0,0.0,0.0,0.0,0.0,0.0,0.0,0.0,0.0,0.0,0.0,0.0,0.0,0.0,0.0,0.0,0.0,0.0,0.0,0.0,0.0,0.0,0.0,0.0,0.0,0.0,3.2216,3.1552,0.0,3.1058,3.0807,3.0807,3.1275,3.1303,3.1632,3.2369,3.2423,3.2563,3.2837,3.3302,3.3564,3.3564,3.4015,3.4262,3.4262,3.3795,3.3564,3.3548,3.3083,3.2837,3.2837,3.2837,3.2997,3.3203,3.2479,3.1743,3.1083,3.1083,3.1,3.086,3.086,3.1005,3.1213,0.0,0.0,0.0,0.0,2.9442,2.9721,3.0584,3.0703,3.0984,3.1752,3.2299,3.2695,3.2922,3.3339,3.3582,3.3582,3.3582,3.3582,3.3582,3.3182,3.2949,3.2949,3.2461,3.2449,3.2922,3.3365,3.3391,3.2949,3.3391,3.313,3.2228,3.2707,3.268,3.2201,3.1662,3.1275,3.1057,3.0451,2.974,2.9002,2.9002,2.8652,2.8149,0.0,0.0,0.0,0.0,0.0,0.0,0.0,0.0,0.0,0.0,0.0,0.0,0.0,0.0,0.0,0.0,0.0,0.0,0.0,0.0,0.0,0.0,0.0,0.0,0.0,0.0,0.0,0.0,0.0,0.0,0.0,0.0,0.0,0.0,3.2949,3.2949,3.2949,3.2733,3.2566,3.2566,3.2793,3.3141,3.3623,3.3677,3.3851,3.4312,3.4338,3.4338,3.4338,3.4803,3.507,3.507,3.5562,3.5814,3.577,3.5294,3.507,3.5054,3.4563,3.4338,3.4338,3.4338,3.434,3.4293,3.4293,3.4038,3.3574,3.3119,3.2804,3.2602,3.2602,3.2599,3.2534,0.0,0.0,0.0,3.0042,3.0329,3.0614,3.138,3.1524,3.1796,3.252,3.2641,3.2922,3.3556,3.3633,3.3659,3.3659,3.3659,3.3659,3.3659,3.3633,3.3608,3.3582,3.3608,3.3633,3.3633,3.3659,3.3659,3.3633,3.3659,3.3633,3.3582,3.3608,3.3608,3.3582,3.3582,3.3235,3.2641,3.2641,3.1289,2.9146,2.9097,2.9066,2.9034,0.0,0.0,0.0,0.0,0.0,0.0,0.0,0.0,0.0,0.0,0.0,0.0,0.0,0.0,0.0,0.0,0.0,0.0,0.0,0.0,0.0,0.0,0.0,0.0,0.0,0.0,0.0,0.0,0.0,0.0,0.0,0.0,0.0,3.3742,3.3681,3.3681,3.3697,3.4306,3.4739,3.4739,3.5385,3.5814,3.5841,3.5841,3.5841,3.5868,3.5868,3.5868,3.5868,3.5884,3.59,3.59,3.5916,3.5932,3.5932,3.59,3.59,3.59,3.5884,3.5868,3.5868,3.5868,3.5825,3.5778,3.5778,3.5728,3.5503,3.4178,3.4062,3.4624,3.4624,3.4585,3.4421,0.0,0.0,2.9192,3.0866,3.1161,3.1248,3.1467,3.1951,3.2382,3.2559,3.3443,3.4112,3.4309,3.4752,3.5045,3.5045,3.5045,3.5045,3.5045,3.4592,3.4112,3.3608,3.4062,3.4333,3.4333,3.48,3.48,3.4333,3.48,3.4544,3.3608,3.4112,3.4062,3.3582,3.3582,3.3495,3.3339,3.3339,3.295,3.2256,3.1217,3.045,2.995,0.0,0.0,0.0,0.0,0.0,0.0,0.0,0.0,0.0,0.0,0.0,0.0,0.0,0.0,0.0,0.0,0.0,0.0,0.0,0.0,0.0,0.0,0.0,0.0,0.0,0.0,0.0,0.0,0.0,0.0,0.0,3.516,3.5317,3.5143,3.5118,3.5315,3.5847,3.5661,3.5514,3.5514,3.5674,3.6002,3.6502,3.6528,3.6767,3.7286,3.7311,3.7311,3.7311,3.7853,3.812,3.812,3.8663,3.8931,3.8914,3.8371,3.812,3.8104,3.7561,3.7311,3.7311,3.7311,3.7309,3.7287,3.7287,3.6986,3.6377,3.5425,3.5161,3.5339,3.5339,3.5312,3.5199,0.0,2.9002,2.9535,3.1219,3.1511,3.1511,3.1511,3.212,3.2695,3.2986,3.3937,3.4712,3.5005,3.5362,3.56,3.56,3.56,3.56,3.56,3.5464,3.529,3.5115,0.0,3.5679,3.5679,3.6071,3.6071,3.5679,3.6071,3.5882,3.5115,3.5508,3.5346,3.4764,3.4764,3.4495,3.4012,3.4012,3.3862,3.3531,3.2718,3.2099,3.1673,3.1673,3.1374,3.0895,3.0631,3.0526,3.0467,3.0149,0.0,0.0,0.0,0.0,0.0,0.0,0.0,0.0,0.0,0.0,0.0,0.0,0.0,0.0,0.0,0.0,0.0,0.0,0.0,0.0,0.0,0.0,0.0,0.0,3.6207,3.6736,3.7036,3.6836,3.6786,3.7203,3.72,3.715,3.715,3.7413,3.7777,3.8153,3.8178,3.8363,3.8794,3.8819,3.8819,3.8819,3.9225,3.9469,3.9469,3.9893,4.0096,4.0096,3.9673,3.9469,3.9453,3.9005,3.8819,3.8819,3.8819,3.865,3.8362,3.8362,3.7922,3.7178,0.0,0.0,0.0,0.0,3.5941,3.5916,0.0,2.9002,2.9535,3.1219,3.1511,3.1511,3.1511,3.2188,3.2922,3.3521,3.426,3.4941,3.5554,3.56,3.5605,3.5672,3.5694,3.5717,3.5783,3.6224,3.6704,3.7173,3.7209,3.7209,3.7209,3.7209,3.7209,3.7209,3.7209,3.7209,3.7209,3.7209,3.696,3.6498,3.6498,3.5899,3.4891,3.4837,3.4463,3.3921,3.3862,3.3735,3.3582,3.3582,3.3582,3.3521,3.2922,3.2722,3.2614,3.1951,0.0,0.0,0.0,0.0,0.0,0.0,0.0,0.0,0.0,0.0,0.0,0.0,0.0,0.0,0.0,0.0,0.0,0.0,0.0,0.0,0.0,0.0,0.0,0.0,3.7174,3.8278,3.9005,3.8565,3.8159,3.8159,3.8717,3.9106,3.9106,3.9723,4.0096,4.0096,4.0096,4.0096,4.0096,4.0096,0.0,0.0,0.0,4.0096,4.0096,4.0096,4.0096,4.0096,4.0096,4.0121,4.0179,4.0179,4.0229,4.0286,4.0286,3.9929,3.9333,3.9333,3.8867,3.8135,3.7233,3.6395,3.5761,3.6291,3.6498,3.656,0.0,2.9002,2.9535,3.1219,3.1511,3.1511,3.1511,3.2598,3.3469,3.3582,3.4657,3.547,3.56,3.56,3.5783,3.6224,3.6245,3.6437,3.6865,3.6981,3.7078,3.7209,3.7209,3.7209,3.7209,3.7209,3.7209,3.7209,3.7209,3.7209,3.7209,3.7209,3.7135,3.7057,3.7057,3.6906,3.6671,3.6256,3.5981,3.5812,3.5397,3.4585,3.3582,3.3582,3.3582,3.3582,3.3469,3.3417,3.3391,3.3245,3.3193,3.3193,3.3193,0.0,0.0,0.0,0.0,0.0,0.0,0.0,0.0,0.0,0.0,0.0,0.0,0.0,0.0,0.0,0.0,0.0,0.0,0.0,0.0,3.8276,3.8593,3.9039,3.9791,3.9774,3.9673,3.9673,3.9808,3.9893,3.9893,4.0028,4.0096,4.0096,4.0096,4.0096,4.0096,4.0096,4.0096,4.0096,4.0096,4.0096,4.0096,4.0096,4.0096,4.0096,4.0096,0.0,4.075,4.075,4.1013,4.1464,4.1464,4.1398,4.1258,4.1258,4.0822,3.9958,3.8101,3.69,3.6312,3.6862,3.7057,3.7076,0.0,2.9002,2.9535,3.1219,3.1511,3.1511,3.1511,3.2691,3.3582,3.3582,3.4752,3.56,3.56,3.56,3.5717,3.5985,3.6245,3.6724,3.7506,3.7542,3.7667,3.7948,3.7948,3.7948,3.7948,3.7948,3.7948,3.7948,3.7948,3.7948,3.7948,3.7948,3.7808,3.7542,3.7542,3.7415,3.7173,3.6921,3.6803,3.6783,3.6501,3.5994,3.5341,3.4797,3.4609,3.456,3.4211,3.4112,3.4062,3.371,3.3582,3.3582,3.3582,3.3582,3.3582,0.0,0.0,0.0,0.0,0.0,0.0,0.0,0.0,0.0,0.0,0.0,0.0,0.0,0.0,3.704,3.7749,0.0,3.8565,3.8937,3.9535,4.0069,4.0446,4.0767,4.0737,4.0171,4.0096,4.0096,4.0096,4.0096,4.0096,4.0096,4.0343,4.0497,4.0497,4.0791,4.0938,4.0938,4.0938,4.0938,4.0938,4.0938,4.0938,4.0938,4.0938,4.1082,4.1358,4.1358,4.1512,4.181,4.181,4.181,4.181,4.181,4.1371,4.0615,3.9777,3.8607,3.7409,3.752,3.7542,3.7578,0.0,2.8876,2.9535,3.1219,3.1511,3.1511,3.1511,3.2691,3.3582,3.3582,3.4752,3.56,3.56,3.56,3.5672,3.5898,3.6378,3.7097,3.8015,3.8065,3.8251,3.8692,3.8707,3.8707,3.8707,3.8707,3.8707,3.8707,3.8707,3.8707,3.8707,3.8707,3.8465,3.8065,3.8065,3.7843,3.7487,3.7378,3.7341,3.7323,3.7247,3.7209,3.7097,3.6249,3.5854,3.5677,3.5134,3.4885,3.4712,3.4161,3.4003,3.4003,3.4003,3.4003,3.4003,3.4003,3.4003,0.0,0.0,0.0,0.0,0.0,0.0,0.0,0.0,3.7543,3.8011,3.8372,3.8359,3.834,3.8617,3.9136,3.9546,3.9546,4.04,4.1087,4.1087,4.149,4.1464,4.0538,4.0417,4.0417,4.0417,4.0417,4.0417,4.0417,4.0844,4.1087,4.1087,4.1534,4.181,4.181,4.181,4.181,4.181,4.181,4.181,4.181,4.181,4.1874,4.1979,4.1979,4.2021,4.2144,4.2144,4.2144,4.2144,4.2144,4.179,4.128,4.1502,4.049,3.8865,3.8453,3.8192,3.8133,0.0,2.846,2.9535,3.1219,3.1511,3.1511,3.1511,3.2691,3.3582,3.3582,3.4752,3.56,3.56,3.56,3.5989,3.6943,3.747,3.798,3.8562,3.8611,3.8643,3.8692,3.8707,3.8707,3.8707,3.8707,3.8707,3.8707,3.8707,3.8707,3.8707,3.8707,3.8658,3.8611,3.8611,3.8596,3.8499,3.8032,3.7825,3.779,3.736,3.7209,3.719,3.7058,3.6724,3.6291,3.6228,3.5885,3.547,3.5402,3.5362,3.5362,3.5362,3.5362,3.5362,3.5362,3.5362,3.5362,3.5362,3.5935,3.6567,3.6654,3.7229,3.7895,0.0,3.8174,3.8372,4.0042,3.9966,3.9948,4.1143,4.1423,4.1494,4.1494,4.1611,4.1686,4.1686,4.1768,4.175,4.1621,4.1617,4.1617,4.1617,4.1617,4.1617,4.1617,4.1682,4.1686,4.1686,4.175,4.181,4.181,4.181,4.181,4.181,4.181,4.181,4.181,4.181,4.208,4.2596,4.2596,4.2865,4.3321,4.3321,4.3321,4.3321,4.3321,4.3266,4.312,4.2476,4.1635,4.0707,3.9949,3.9232,3.8627,0.0,0.0,2.938,3.0584,3.119,3.1511,3.1511,3.2691,3.3582,3.3582,3.4752,3.56,3.56,3.56,3.6032,3.7097,3.7378,3.7843,3.8643,3.8707,3.8707,3.8707,3.8707,3.8707,3.8707,3.8707,3.8707,3.8707,3.8707,3.8707,3.8707,3.8707,3.8707,3.8707,3.8707,3.8707,3.8692,3.8465,3.8366,3.835,3.8152,3.8066,3.8066,3.8066,3.7738,3.723,3.6962,3.6522,0.0,0.0,3.5854,3.56,3.56,3.56,3.56,3.56,3.56,3.5774,3.6542,3.7232,3.7833,3.831,3.899,3.9591,3.9814,4.0032,4.0403,4.1181,4.1145,4.1143,4.1697,4.181,4.181,4.181,4.2101,4.2322,4.2322,4.2599,4.2791,4.2791,4.2791,4.2542,4.1856,4.181,4.181,4.181,4.2121,4.2322,4.2322,4.2619,4.2791,4.2791,4.2791,4.2791,4.2791,4.2791,4.2791,4.2791,4.2791,4.2922,4.3178,4.3178,4.3286,4.3515,4.3515,4.3515,4.3515,4.3515,4.3515,4.3478,4.313,4.2506,4.1644,4.0359,3.9386,3.8707,0.0,0.0,0.0,2.9827,3.0807,3.1511,3.1511,3.2691,3.3582,3.3582,3.4752,3.56,3.56,3.56,3.5968,3.6902,3.6902,3.731,3.8415,3.8407,3.8469,3.8689,3.8707,3.8707,3.8707,3.8777,3.8818,3.8818,3.8902,3.896,3.896,3.8844,3.8818,3.8818,3.8735,3.8707,3.8707,3.8707,3.8707,3.8707,3.8707,3.8707,3.8707,3.8707,3.8465,3.8065,3.756,3.7058,0.0,0.0,3.6374,3.6054,3.6054,3.6054,3.6054,3.6054,3.6208,3.6573,3.7554,3.8403,3.9179,3.9767,4.0456,4.1044,4.1207,4.1529,4.1895,4.2206,4.2144,4.2083,4.2246,4.2266,4.2266,4.2266,4.2637,4.292,4.292,4.325,4.3515,4.3515,4.3699,4.3506,4.2669,4.2391,4.2266,4.2266,4.2675,4.3029,4.3247,4.3633,4.392,4.414,4.4158,4.4158,4.4158,4.4158,4.4158,4.4158,4.3938,4.3828,4.3809,4.3606,4.3515,4.3515,4.3515,4.3515,4.3515,4.3515,4.3515,4.3515,4.3515,4.3002,4.2174,4.1091,3.9991,3.9016,0.0,0.0,0.0,0.0,3.0389,3.1511,3.1511,3.2691,3.3582,3.3582,3.4752,3.56,3.56,3.56,3.581,3.6392,3.6124,3.6506,3.784,3.7685,3.7878,3.867,3.8707,3.8707,3.8707,3.8961,3.9085,3.9085,3.9401,3.9576,3.9564,3.9244,3.9085,3.9072,3.8833,3.8707,3.8707,3.8707,3.8707,3.8707,3.8707,3.8707,3.8707,3.8707,3.8692,3.8611,3.8065,0.0,0.0,0.0,3.7154,3.7135,3.7135,3.7135,0.0,3.7135,3.7702,3.8323,3.836,3.9478,4.0633,4.0666,4.123,4.1923,4.2521,4.2206,4.2124,4.3214,4.3032,4.2845,4.3339,4.3444,4.3444,4.3444,4.3462,4.348,4.348,4.3479,4.3515,4.3515,4.4195,4.4654,4.4619,4.3921,4.3444,4.3444,4.348,4.381,4.46,4.4654,4.5021,4.5792,4.5828,4.5828,4.5828,4.5828,4.5828,4.581,4.5039,4.4672,4.4654,4.3864,4.3515,4.3515,4.3515,4.3515,4.3515,4.3515,4.3515,4.3515,4.3515,4.3002,4.2318,4.2615,4.1489,3.9779,0.0,0.0,0.0,0.0,0.0,3.0866,3.1409,3.2691,3.3582,3.3582,3.4752,0.0,0.0,0.0,0.0,0.0,3.5074,3.5509,3.6324,3.6571,3.6817,3.7092,3.711,3.711,3.711,3.7372,3.7681,3.8046,3.8322,3.8752,3.9282,3.9147,3.9212,3.9414,3.9104,3.8975,3.8961,3.8777,3.8707,3.8707,3.8707,3.8707,3.8707,3.8707,3.8707,3.8692,0.0,0.0,0.0,0.0,0.0,3.7209,3.7209,3.7209,3.7209,3.7209,3.7986,3.8995,3.9516,4.0691,4.1887,4.2414,4.274,4.2977,4.3178,4.3069,4.3051,4.3427,4.3357,4.3304,4.348,4.3515,4.3515,4.3515,4.3515,4.3515,4.3515,4.3515,4.3699,4.4232,4.4544,4.4911,4.5443,4.5241,4.5094,4.5094,4.5094,4.5204,4.548,4.5498,4.5626,4.5883,4.5902,4.5902,4.5902,4.5902,4.5902,4.5883,4.5094,4.4691,4.4654,4.3864,4.3515,4.3515,4.3515,4.3515,4.3513,4.3742,4.3818,4.3849,4.414,4.4055,4.3769,4.3308,4.2718,4.1981,0.0,0.0,0.0,0.0,0.0,0.0,0.0,0.0,0.0,0.0,0.0,0.0,0.0,0.0,0.0,0.0,0.0,3.4639,3.5281,3.5642,3.5973,3.6285,3.6303,3.6303,3.6303,3.6669,3.7019,3.7371,3.7744,3.8365,3.918,3.9053,3.9263,3.9765,3.9302,3.9112,3.9085,3.88,3.8707,3.8707,3.8707,3.8707,3.8707,3.8707,3.8707,0.0,0.0,0.0,0.0,0.0,3.7981,3.7738,3.7738,3.7738,3.7738,3.7738,3.8722,3.9942,4.0452,4.1643,4.2837,4.3369,4.3515,4.3515,4.3515,4.3515,4.3515,4.3515,4.3515,4.3515,4.3515,4.3515,4.3515,4.3515,4.3515,4.3515,4.3515,4.3736,4.4121,4.4654,4.5205,4.5755,4.6287,4.6599,4.6526,4.5938,4.5902,4.603,4.6305,4.6342,4.6471,4.6746,4.6764,4.6764,4.6764,4.6764,4.6617,4.6324,4.5792,4.526,4.469,4.4294,4.3954,4.3695,4.382,4.3884,4.3915,4.4121,4.4204,4.4233,4.4501,4.4593,4.4549,4.4107,4.3758,4.3253,0.0,0.0,0.0,0.0,0.0,0.0,0.0,0.0,0.0,0.0,0.0,0.0,0.0,0.0,0.0,0.0,0.0,0.0,3.4624,3.4824,3.5284,3.6138,3.6156,3.6156,3.6156,3.6676,3.6974,3.7001,3.7587,3.8308,3.9154,3.8849,3.9147,3.9928,3.9276,3.9,3.9029,3.8744,3.867,3.8707,3.8707,3.8707,3.8707,3.8707,0.0,0.0,0.0,0.0,0.0,3.8707,3.8707,3.8707,3.8707,3.8707,3.8707,3.8762,3.9866,4.1113,4.115,4.2304,4.3515,4.3515,4.3515,4.3515,4.3515,4.3515,4.3515,4.3515,4.3515,4.3515,4.3515,4.3533,4.3552,4.3552,4.3606,4.3608,4.3608,4.4287,4.4764,4.4837,4.6159,4.7113,4.7168,4.7846,4.7682,4.614,4.6012,4.6361,4.7113,4.7168,4.7498,4.8288,4.8306,4.8306,4.8306,4.8306,4.7921,4.7168,4.7131,4.6324,4.4854,4.5164,4.4867,4.4099,4.4503,4.4649,4.4593,4.4606,4.4637,4.4637,4.4631,4.4644,4.4682,4.5019,4.4592,4.3658,0.0,0.0,0.0,0.0,0.0,0.0,0.0,0.0,0.0,0.0,0.0,0.0,0.0,0.0,0.0,0.0,0.0,0.0,3.305,3.3458,3.3894,3.4399,3.4431,3.4431,3.4431,3.4767,3.5131,3.5547,3.5932,3.6569,3.7371,3.7279,3.7495,3.7919,3.7497,3.764,3.8191,3.7911,3.8138,3.8707,0.0,3.8707,3.8707,0.0,0.0,0.0,0.0,0.0,3.8707,3.8707,3.8707,3.8707,3.8707,3.8707,3.8817,3.9423,4.0304,4.1224,4.1827,4.2727,4.3515,4.3515,4.3515,4.3515,4.3515,4.3515,4.3515,4.3515,4.3515,4.3515,4.3515,4.3993,4.4397,4.4397,4.4892,4.5278,4.5278,4.5461,4.5828,4.6415,4.6856,4.7333,4.7938,4.8196,4.8141,4.7719,4.77,4.7792,4.7994,4.7975,4.8104,4.8306,4.8306,4.8306,4.8306,4.8306,4.8214,4.7994,4.7679,4.7333,4.6923,4.6709,4.6149,4.5345,4.544,4.514,4.4606,4.4872,4.4966,4.5007,4.5253,4.5352,4.5352,4.5438,4.5323,4.4996,0.0,0.0,0.0,0.0,0.0,0.0,0.0,0.0,0.0,0.0,0.0,0.0,0.0,0.0,0.0,0.0,0.0,0.0,0.0,3.2825,3.3302,3.3522,3.3707,3.3807,3.3807,3.4068,3.4346,3.4644,3.4992,3.5567,3.6346,3.6346,3.6648,3.72,3.6843,3.6963,3.7366,3.7081,0.0,0.0,0.0,0.0,0.0,0.0,0.0,0.0,0.0,0.0,3.8707,3.8707,3.8707,3.8707,3.8707,3.8946,3.9313,3.9772,4.0726,4.1735,4.2176,4.2892,4.3515,4.3515,4.3515,4.3515,4.3515,4.3515,4.3515,4.3515,4.3515,4.3515,4.3515,4.4158,4.4691,4.4691,4.5388,4.5902,4.5902,4.6214,4.6581,4.7058,4.7406,4.7791,4.8269,4.8306,4.8306,4.8306,4.8306,4.8306,4.8306,4.8306,4.8306,4.8306,4.8306,4.8306,4.8306,4.8306,4.8402,4.8568,4.8331,4.8135,4.7965,4.7883,4.7391,4.6575,4.6366,4.6024,4.5597,4.5395,4.5322,4.5332,4.5522,4.5594,4.5594,4.5594,4.5594,4.5537,0.0,0.0,0.0,0.0,0.0,0.0,0.0,0.0,0.0,0.0,3.2192,0.0,0.0,0.0,0.0,0.0,0.0,0.0,0.0,0.0,0.0,3.3105,3.3508,3.3721,3.3721,3.4006,3.4147,3.4147,3.4442,3.4929,3.5609,0.0,0.0,0.0,0.0,0.0,0.0,0.0,0.0,0.0,0.0,0.0,0.0,0.0,0.0,0.0,0.0,3.8707,3.8707,3.8707,3.8707,3.8707,3.8707,3.9239,3.9918,4.0029,4.1111,4.2323,4.2433,4.2965,4.3515,4.3515,4.3515,4.3515,4.3515,4.3515,4.3515,4.3515,4.3515,4.3533,4.3626,4.4323,4.4874,4.4984,4.57,4.6214,4.6214,4.6838,4.7259,4.7259,4.7865,4.8306,4.8306,4.8345,4.8383,4.8383,4.8421,4.8402,4.8306,4.8306,4.8307,4.8383,4.8383,4.842,4.8458,4.8458,4.8621,4.8996,4.9027,4.8889,4.854,4.8902,4.8617,4.7829,4.7415,4.7105,4.6827,4.6086,4.571,4.5594,4.5594,4.5594,4.5594,4.5594,4.5594,4.5594,0.0,0.0,0.0,0.0,0.0,0.0,0.0,0.0,0.0,0.0,3.0832,3.1014,0.0,0.0,0.0,0.0,0.0,0.0,0.0,0.0,0.0,3.2599,3.306,3.3302,3.3302,3.3675,3.3863,3.3863,3.3915,3.4028,3.417,0.0,0.0,0.0,0.0,0.0,0.0,0.0,0.0,0.0,0.0,0.0,0.0,0.0,0.0,0.0,0.0,3.8707,3.8707,0.0,3.8707,3.8707,3.8707,3.9239,4.0029,4.0708,4.157,4.2451,4.3112,4.3404,4.3515,4.3515,4.3515,4.3515,4.3515,4.3515,4.3515,4.3515,4.3515,4.3699,4.4378,4.5149,4.592,4.6581,4.7351,4.7884,4.7884,4.8012,4.8104,4.8104,4.8233,4.8306,4.8306,4.8604,4.8796,4.8796,4.9092,4.8996,4.8344,4.8306,4.8458,4.8796,4.8796,4.8963,4.928,4.928,4.9326,4.9401,4.9733,4.986,4.9802,5.018,4.9912,4.9086,4.899,4.8182,4.6885,4.674,4.624,4.5594,4.5594,4.5594,4.5594,4.5594,4.5594,4.5594,0.0,0.0,0.0,0.0,0.0,0.0,0.0,3.0329,3.0513,2.9476,2.9746,3.0128,3.0332,3.032,3.0414,0.0,0.0,0.0,0.0,0.0,0.0,0.0,3.2599,3.2842,3.2842,3.3011,3.3118,3.3118,0.0,3.3494,3.3494,3.3707,3.3807,3.3807,3.3807,3.4009,3.438,3.438,3.4614,3.5037,3.5459,3.6138,0.0,0.0,0.0,0.0,0.0,0.0,3.8707,0.0,3.8707,3.8781,3.9184,3.9882,4.0689,4.1497,4.2286,4.3002,4.3387,4.3515,4.3515,4.3515,4.3515,4.3515,4.3515,4.3515,4.3515,4.3515,4.3515,4.3736,4.4562,4.5369,4.6159,4.6966,4.7773,4.8306,4.8306,4.8306,4.8306,4.8306,4.8477,4.8622,4.8622,4.898,4.9218,4.9218,4.9386,4.9326,4.8949,4.8913,4.9013,4.9202,4.9218,4.9311,4.9489,4.9489,4.9622,4.9813,5.0019,5.0206,5.0421,5.0614,5.0481,5.0048,4.9606,4.8682,4.749,4.7058,4.6394,4.5594,4.5594,4.5594,4.5594,4.5594,4.5594,4.5594,0.0,0.0,0.0,0.0,0.0,0.0,2.8876,2.9735,2.9925,2.8914,2.9359,2.9633,2.9258,2.9637,3.0016,0.0,0.0,0.0,0.0,0.0,0.0,0.0,0.0,3.235,3.235,0.0,0.0,3.2501,3.2874,0.0,0.0,0.0,0.0,0.0,3.3518,3.3518,3.3536,3.362,3.368,0.0,0.0,3.5371,0.0,0.0,0.0,0.0,0.0,0.0,3.8707,3.8707,3.8707,3.8872,3.9845,4.0598,4.126,4.2066,4.2873,4.3515,4.3515,4.3515,4.3515,4.3515,4.3515,4.3515,4.3515,4.3515,4.3515,4.3515,4.3515,4.3791,4.4782,4.548,4.6214,4.7186,4.7902,4.8306,4.8306,4.8306,4.8326,4.8421,4.871,4.8947,4.9011,4.9401,4.9636,4.9636,4.9706,4.9692,4.9504,4.9489,4.9532,4.9636,4.9636,4.9678,4.976,4.976,4.9924,5.0237,5.0237,5.038,5.0712,5.0712,5.0712,5.0654,4.9971,4.9183,4.8317,4.749,4.6644,4.5864,4.5671,4.5594,4.5594,4.5594,4.5594,4.5594,0.0,0.0,0.0,0.0,0.0,0.0,2.8876,2.9735,3.0292,3.0311,3.0362,2.9978,2.8819,2.8679,2.9111,0.0,0.0,0.0,0.0,0.0,0.0,0.0,0.0,0.0,0.0,0.0,0.0,3.2501,3.2534,0.0,0.0,0.0,0.0,0.0,0.0,3.2632,3.2648,3.3075,0.0,0.0,0.0,0.0,0.0,0.0,0.0,0.0,0.0,3.8707,3.8707,3.8707,3.8707,3.8982,4.0508,4.104,4.126,4.2066,4.2873,4.3515,4.3515,4.3515,4.3515,4.3515,4.3515,4.3515,4.3515,4.3515,4.3515,4.3515,4.3515,4.3956,4.5516,4.5847,4.6397,4.7939,4.8251,4.8306,4.8306,4.8306,4.8439,4.8813,4.888,4.9043,4.9401,4.98,5.0043,5.0043,5.0369,5.0272,4.9532,4.9489,4.9678,5.0043,5.0043,5.0225,5.0594,5.0594,5.0614,5.0634,5.0634,5.0663,5.0712,5.0712,5.0712,5.0712,5.0616,5.0087,4.9202,4.8355,4.7509,4.6701,4.5913,4.5594,4.5594,4.5594,4.5594,4.5594,0.0,0.0,0.0,0.0,0.0,0.0,2.8084,2.8971,2.957,2.9755,3.0211,3.0163,2.928,2.8811,2.8732,2.9182,0.0,0.0,0.0,0.0,0.0,0.0,0.0,0.0,0.0,0.0,3.1712,3.1712,3.195,0.0,0.0,0.0,0.0,0.0,0.0,3.2501,3.2517,3.2697,0.0,0.0,0.0,0.0,0.0,0.0,0.0,0.0,0.0,0.0,3.8707,3.8707,3.8707,3.8909,4.0029,4.0726,0.0,4.2635,4.324,4.3515,4.3515,4.3515,4.3515,4.3515,4.3515,4.3515,4.3515,4.3515,4.3515,4.3515,4.3515,4.3992,4.559,4.5902,4.6434,4.8049,4.8306,4.8306,4.8306,4.8306,4.8458,4.8846,4.9108,4.9416,4.9813,5.0237,5.0472,5.0472,5.0614,5.0554,5.0249,5.0206,5.0302,5.0462,5.0472,5.0544,5.0712,5.0712,5.0712,5.0712,5.0712,5.0712,5.0712,5.0712,5.0712,5.0712,5.0712,5.0212,4.9375,4.9029,4.8375,4.7548,4.6721,4.6374,4.6317,4.5787,4.566,4.573,0.0,0.0,0.0,0.0,0.0,2.6782,2.7571,2.8427,2.9132,2.9531,3.0292,3.0567,2.9924,2.9445,2.906,2.8863,2.9014,0.0,0.0,0.0,0.0,0.0,0.0,0.0,0.0,0.0,3.119,3.119,3.147,3.1623,0.0,0.0,3.2127,3.2127,0.0,0.0,0.0,0.0,0.0,0.0,0.0,0.0,0.0,0.0,0.0,0.0,0.0,0.0,0.0,0.0,0.0,3.8836,0.0,0.0,0.0,0.0,4.3296,4.3515,4.3515,4.3515,4.3515,4.3515,4.3515,4.3515,4.3515,4.3515,4.3515,4.3515,4.3515,4.3992,4.559,4.5902,4.6434,4.8049,4.8306,4.8306,4.8306,4.8402,4.864,4.9027,4.9431,4.9846,5.0249,5.0534,5.0712,5.0712,5.0712,5.0712,5.0712,5.0712,5.0712,5.0712,5.0712,5.0712,5.0712,5.0712,5.0712,5.0712,5.0712,5.0712,5.0712,5.0712,5.0712,5.0712,5.0712,5.0346,4.976,4.951,4.9048,4.8394,4.7586,4.7096,4.6817,4.624,4.5916,4.5809,0.0,0.0,0.0,0.0,0.0,0.0,2.7571,2.8427,2.9317,3.0163,3.0984,3.1227,3.0567,3.0492,3.0238,2.9636,2.892,0.0,0.0,0.0,0.0,0.0,0.0,0.0,0.0,0.0,3.119,3.119,3.121,3.121,3.121,3.121,3.121,3.121,0.0,0.0,0.0,0.0,0.0,0.0,0.0,0.0,3.5031,0.0,0.0,0.0,0.0,0.0,0.0,0.0,0.0,0.0,0.0,3.9916,4.023,0.0,4.2873,4.3515,4.3515,4.3515,4.3515,4.3515,4.3515,4.3515,4.3515,4.3515,4.3515,4.3515,4.3515,4.3992,4.559,4.5902,4.6434,4.8049,4.8306,4.8306,4.8306,4.8639,4.9043,4.9445,4.984,5.0249,5.0644,5.0712,5.0712,5.0712,5.0712,5.0712,5.0712,5.0712,5.0712,5.0712,5.0712,5.0712,5.0712,5.0712,5.0712,5.0712,5.0712,5.0712,5.0712,5.0712,5.0712,5.0712,5.0712,5.0693,5.0616,4.976,4.9394,4.9298,4.8432,4.7605,4.692,4.695,4.6487,4.5803,0.0,0.0,0.0,0.0,0.0,0.0,2.7571,2.792,2.8652,3.0103,3.0524,3.0822,3.1139,3.0763,3.0417,3.0223,2.9196,0.0,0.0,0.0,0.0,0.0,0.0,0.0,0.0,0.0,3.119,3.119,3.119,3.119,3.119,3.119,3.119,3.119,3.119,3.119,0.0,0.0,0.0,0.0,0.0,3.4379,3.4666,0.0,0.0,0.0,0.0,0.0,0.0,0.0,0.0,0.0,0.0,0.0,0.0,4.0506,4.1625,4.28,4.3349,4.3515,4.3515,4.3515,4.3515,4.3515,4.3515,4.3515,4.3515,4.3515,4.3515,4.3992,4.559,4.5902,4.6434,4.8049,4.8306,4.8402,4.8675,4.883,4.9155,4.9827,5.026,5.0554,5.0683,5.0712,5.0712,5.0712,5.0712,5.0712,5.0712,5.0712,5.0712,5.0712,5.0712,5.0712,5.0712,5.0712,5.0712,5.0712,5.0712,5.0712,5.0712,5.0712,5.0712,5.0712,5.0712,5.0712,5.0673,5.0404,5.0289,5.0202,4.9426,4.898,4.8693,4.8202,4.7538,4.6901,0.0,0.0,0.0,0.0,0.0,0.0,2.7162,2.7517,2.8214,2.9628,3.0103,3.0614,3.1409,3.1122,3.0896,3.0896,2.9924,0.0,0.0,0.0,0.0,0.0,0.0,0.0,2.9629,3.0208,3.0638,3.0858,3.0858,3.0975,3.119,3.119,3.119,3.119,3.119,3.119,0.0,0.0,0.0,0.0,3.3456,3.4146,3.4143,0.0,0.0,0.0,0.0,0.0,0.0,0.0,0.0,0.0,0.0,0.0,0.0,0.0,4.0818,4.2029,4.2818,4.3276,4.3515,4.3515,4.3515,4.3515,4.3515,4.3515,4.3515,4.3515,4.3515,4.3992,4.559,4.5902,4.6471,4.8237,4.8532,4.8657,4.9059,4.9265,4.9603,5.0249,5.0544,5.0712,5.0712,5.0712,5.0712,5.0712,5.0712,5.0712,5.0712,5.0712,5.0712,5.0712,5.0712,5.0712,5.0712,5.0712,5.0712,5.0712,5.0712,5.0712,5.0712,5.0712,5.0712,5.0712,5.0712,5.0712,0.0,5.0748,5.0793,5.0733,5.0324,4.997,4.9625,4.9223,4.8574,4.7891,0.0,0.0,0.0,0.0,0.0,0.0,0.0,2.7263,2.8117,2.8971,2.9797,3.0614,3.1409,3.1511,3.1511,3.1511,3.0913,0.0,0.0,0.0,0.0,0.0,0.0,0.0,2.8487,2.9088,2.9673,3.023,3.023,3.0518,3.1075,3.1131,3.1151,3.1151,3.1171,3.119,0.0,0.0,0.0,0.0,3.3541,3.4015,0.0,0.0,0.0,0.0,0.0,0.0,0.0,0.0,0.0,0.0,0.0,0.0,0.0,0.0,0.0,0.0,0.0,4.2837,4.3515,4.3515,4.3515,4.3515,4.3515,4.3515,0.0,4.3515,4.3551,4.4048,4.5608,4.5975,4.667,4.8587,4.893,4.9075,4.9489,4.9898,5.0272,5.0663,5.0712,5.0712,5.0712,5.0712,5.0712,5.0712,5.0712,5.0712,5.0712,5.0712,5.0712,5.0712,5.0712,5.0712,5.0712,5.0712,5.0712,5.0712,5.0712,5.0712,5.0712,5.0712,5.0712,5.0712,5.0712,5.0721,5.0712,5.0851,5.0916,5.0925,5.1053,5.0607,4.9928,5.0051,4.9551,4.8818,0.0,0.0,0.0,0.0,0.0,0.0,0.0,0.0,0.0,0.0,3.0178,3.0614,3.1409,3.1511,3.1511,0.0,0.0,0.0,0.0,0.0,0.0,0.0,0.0,0.0,2.8503,2.9088,2.9473,2.9607,2.9607,2.9673,2.9827,3.0309,3.0518,3.0518,3.0995,3.119,0.0,0.0,0.0,0.0,3.2983,3.3558,0.0,0.0,0.0,0.0,3.7018,3.7506,0.0,0.0,0.0,0.0,0.0,0.0,0.0,0.0,3.9551,4.0359,4.115,0.0,4.3515,4.3515,4.3515,4.3515,0.0,4.3515,4.3515,4.3515,4.3993,4.4727,4.5718,4.6647,4.7625,4.8712,4.9155,4.9504,4.9911,5.0313,5.0585,5.0683,5.0712,5.0712,5.0712,5.0712,5.0712,5.0712,5.0712,5.0712,5.0712,5.0712,5.0712,5.0712,5.0712,5.0712,5.0712,5.0712,5.0712,5.0712,5.0712,5.0712,5.0712,5.0712,5.0712,5.0712,5.0712,5.0757,5.0859,5.0886,5.0953,5.1058,5.114,5.104,5.0896,5.1024,5.0544,4.9842,0.0,0.0,0.0,0.0,0.0,0.0,0.0,0.0,0.0,0.0,3.0299,3.0614,3.1409,3.1511,3.1511,0.0,0.0,0.0,0.0,0.0,0.0,0.0,0.0,2.9378,2.9012,2.9024,2.9153,2.9462,2.9147,2.9285,2.9863,3.0163,3.0453,3.0771,3.1069,3.119,3.1207,3.1546,3.1495,3.136,3.3169,0.0,0.0,0.0,0.0,0.0,3.6357,3.6962,0.0,3.7578,3.8083,3.8707,0.0,0.0,0.0,0.0,3.9276,4.0065,4.0875,4.2011,4.3039,4.3423,4.3515,4.3515,4.3515,4.3515,4.3515,4.3515,0.0,4.5,4.5982,4.6997,4.8074,4.925,4.9631,4.9924,5.0325,5.0554,5.0712,5.0712,5.0712,5.0712,5.0712,5.0712,5.0712,5.0712,5.0712,5.0712,5.0712,5.0712,5.0712,5.0712,5.0712,5.0712,5.0712,5.0712,5.0712,5.0712,5.0712,5.0712,5.0712,5.0712,5.0712,5.0693,5.0766,5.0827,5.0903,5.1006,5.1078,5.1163,5.1258,5.1295,5.1296,5.1366,5.1113,5.0742,0.0,0.0,0.0,0.0,0.0,0.0,0.0,0.0,0.0,0.0,0.0,0.0,0.0,0.0,0.0,0.0,0.0,0.0,0.0,0.0,0.0,0.0,2.9774,2.9696,2.9606,2.9026,2.9014,2.9529,2.8944,2.927,3.0426,3.036,3.0735,3.1468,3.1519,3.1529,3.1579,3.2209,3.2124,3.1715,3.3694,0.0,0.0,0.0,0.0,0.0,0.0,0.0,0.0,3.7209,3.7861,3.8707,3.8707,0.0,0.0,0.0,0.0,0.0,4.0838,4.159,4.2341,4.3276,4.3515,4.3515,4.3515,0.0,0.0,0.0,0.0,4.5303,4.6313,4.7364,4.8517,4.9873,5.0159,5.0313,5.0653,5.0712,5.0712,5.0712,5.0712,5.0712,5.0712,5.0712,5.0712,5.0712,5.0712,5.0712,5.0712,5.0712,5.0712,5.0712,5.0712,5.0712,5.0712,5.0712,5.0712,5.0712,5.0712,5.0712,5.0712,5.0712,5.0712,5.074,5.0851,5.0925,5.0959,5.1128,5.1208,5.124,5.1365,5.1406,5.1406,5.1406,5.1406,5.1406,0.0,0.0,0.0,0.0,0.0,0.0,0.0,0.0,0.0,0.0,0.0,0.0,0.0,0.0,0.0,0.0,0.0,0.0,0.0,0.0,0.0,3.1212,3.0672,3.0118,2.9621,2.9517,2.9484,2.9576,2.947,2.982,3.0582,3.0514,3.1102,3.2258,3.2811,3.3068,3.3068,3.3186,3.3169,3.3152,3.41,0.0,0.0,0.0,0.0,0.0,0.0,0.0,0.0,3.7209,3.7861,3.8707,3.8707,0.0,0.0,0.0,0.0,0.0,4.0691,4.1187,4.1644,4.313,4.3515,4.3515,4.3515,0.0,0.0,0.0,0.0,0.0,4.6472,4.8263,4.981,5.0061,5.0399,5.0624,5.0683,5.0712,5.0712,5.0712,5.0712,5.0712,5.0712,5.0712,5.0712,5.0712,5.0712,5.0712,5.0712,5.0712,5.0712,5.0712,5.0712,5.0712,5.0712,5.0712,5.0712,5.0712,5.0712,5.0712,5.0712,5.0712,5.0766,5.0863,5.0894,5.1,5.1151,5.1194,5.1268,5.1366,5.1386,5.1406,5.1406,5.1406,5.1406,5.1406,0.0,0.0,0.0,0.0,0.0,0.0,0.0,0.0,0.0,0.0,0.0,0.0,0.0,0.0,0.0,0.0,0.0,0.0,0.0,0.0,3.1511,3.1511,3.1197,3.0898,3.0642,3.0268,3.0088,3.0088,2.9771,2.9919,3.0556,3.1249,3.187,3.2422,3.3096,3.3406,3.3406,3.3406,3.3406,3.3474,0.0,0.0,0.0,0.0,0.0,0.0,0.0,0.0,0.0,0.0,3.8083,3.8707,3.8707,0.0,0.0,0.0,0.0,0.0,4.0655,4.1095,4.148,4.3094,4.3515,4.3548,4.3726,4.3772,0.0,0.0,0.0,0.0,4.7041,4.8745,5.0171,5.0399,5.0575,5.0712,5.0712,5.0712,5.0712,5.0712,5.0712,5.0712,5.0712,5.0712,5.0712,5.0712,5.0712,5.0712,5.0712,5.0712,5.0712,5.0712,5.0712,5.0481,4.999,4.999,4.999,4.999,4.951,4.9584,5.011,5.011,5.0433,5.1016,5.104,5.1113,5.1206,5.1271,5.1344,5.1406,5.1406,5.1406,5.1406,5.1406,5.1406,5.1406,0.0,0.0,0.0,0.0,0.0,0.0,0.0,0.0,0.0,0.0,0.0,0.0,0.0,0.0,0.0,0.0,0.0,0.0,0.0,3.1511,3.1511,3.1511,3.1511,3.1511,3.1511,3.0987,3.0746,3.0746,3.0268,3.0351,3.1024,3.2351,3.2951,3.2938,3.3616,3.3931,3.3931,3.3931,3.3931,3.3964,0.0,0.0,0.0,0.0,0.0,0.0,0.0,0.0,0.0,0.0,0.0,0.0,0.0,0.0,0.0,3.8707,3.8707,3.9056,4.0655,4.1095,4.148,4.3094,4.3515,4.358,4.3924,4.4001,0.0,0.0,0.0,0.0,4.7812,4.9182,5.0347,5.0653,5.0712,5.0712,5.0712,5.0712,5.0712,5.0712,5.0712,5.0712,5.0712,5.0712,5.0712,5.0712,5.0712,5.0712,5.0712,5.0712,5.0712,5.0712,5.0712,5.0289,4.9413,4.9202,4.9106,4.9086,4.8449,4.8549,4.9301,4.9536,5.0076,5.0867,5.1099,5.121,5.1244,5.1365,5.1406,5.1406,5.1406,5.1406,5.1406,5.1406,5.1406,5.1406,0.0,0.0,0.0,0.0,0.0,0.0,0.0,0.0,0.0,0.0,0.0,0.0,0.0,0.0,0.0,0.0,0.0,0.0,0.0,3.1511,3.1511,3.1511,3.1511,3.1511,3.1511,3.1451,3.1436,3.1436,3.1391,3.1732,3.2497,3.3831,3.4453,3.4475,3.5148,3.543,3.543,3.543,3.543,3.5447,3.5498,0.0,0.0,0.0,0.0,0.0,0.0,0.0,0.0,0.0,0.0,0.0,0.0,0.0,3.8707,3.8707,3.8707,3.9056,4.0655,4.1095,4.148,4.3094,4.3515,4.358,4.3924,4.4001,0.0,4.5488,0.0,0.0,4.8647,4.9827,5.0663,5.0702,5.0712,5.0712,5.0712,5.0712,5.0712,5.0712,5.0712,5.0712,5.0712,5.0712,5.0712,5.0712,5.0712,5.0712,5.0712,5.0712,5.0712,5.0712,5.0712,5.0289,4.9413,4.8606,4.8202,4.8182,4.8264,4.8324,4.8435,4.9357,4.9893,5.012,5.0869,5.127,5.1386,5.1406,5.1406,5.1406,5.1406,5.1406,5.1406,5.1406,5.1406,5.1406,0.0,0.0,0.0,0.0,0.0,0.0,0.0,0.0,0.0,0.0,0.0,3.1511,3.1511,0.0,0.0,0.0,0.0,0.0,0.0,3.1511,3.1511,3.1511,3.1511,3.1511,3.1511,3.1511,3.1511,3.1511,3.1511,3.164,3.1951,3.3323,3.3987,3.4037,3.5115,3.56,3.56,3.56,3.56,3.56,3.56,3.543,0.0,0.0,0.0,0.0,0.0,0.0,0.0,0.0,3.853,3.8707,3.8707,3.8707,3.8707,3.8707,3.9056,3.968,4.0802,4.1462,4.2121,4.3222,4.3515,0.0,0.0,4.4359,4.478,4.6194,4.7247,0.0,4.9754,5.0393,5.0712,5.0712,5.0712,5.0712,5.0712,5.0712,5.0712,5.0712,5.0712,5.0712,5.0712,5.0712,5.0712,5.0712,5.0712,5.0712,5.0712,5.0712,5.0712,5.0712,5.0164,4.9507,4.8728,4.784,4.7192,4.6726,4.6739,4.7084,4.7766,4.8704,4.9484,5.0169,5.0989,5.1345,5.1406,5.1406,5.1406,5.1406,5.1406,5.1406,5.1406,5.1406,5.1406,5.1406,0.0,0.0,0.0,0.0,0.0,0.0,0.0,0.0,3.1511,0.0,0.0,0.0,0.0,3.1511,0.0,0.0,0.0,0.0,3.1511,3.1511,3.1511,3.1511,3.1511,3.1511,3.1511,3.1511,3.1511,3.1511,3.1511,3.1611,3.1881,3.2826,3.3505,3.3962,3.4871,3.5385,3.56,3.56,3.56,3.56,3.56,3.56,0.0,0.0,0.0,0.0,0.0,0.0,0.0,0.0,3.8707,3.8707,3.8707,3.8707,3.8707,3.8707,3.9276,4.0097,4.1012,4.1854,4.268,4.3619,0.0,0.0,4.4618,4.4877,4.5407,4.6964,4.8144,4.9279,5.0481,5.0712,5.0712,5.0712,5.0712,5.0712,5.0712,5.0712,5.0712,5.0712,5.0712,5.0712,5.0712,5.0712,5.0712,5.0712,5.0712,5.0712,5.0712,5.0442,5.0289,5.0289,4.9488,4.8684,4.7905,4.7346,4.6701,4.5971,4.591,4.627,4.7028,4.8216,4.9133,4.9844,5.0937,5.1406,5.1406,5.1406,5.1406,5.1406,5.1406,5.1406,5.1406,5.1406,5.1406,5.1406,0.0,0.0,0.0,0.0,0.0,0.0,0.0,0.0,3.1511,3.1511,3.1511,0.0,0.0,0.0,0.0,0.0,0.0,0.0,3.1511,3.1511,3.1511,3.1511,3.1511,3.1511,3.1511,3.1511,3.1511,3.1511,3.1511,3.1881,3.2586,3.2586,3.3313,3.4576,3.46,3.4965,3.56,3.56,3.56,3.56,3.56,3.56,3.56,0.0,0.0,0.0,0.0,0.0,0.0,0.0,3.8707,3.8707,3.8707,3.8707,3.8707,3.8707,3.9276,4.0157,4.1299,4.2182,4.309,4.4307,0.0,0.0,4.5011,4.5456,4.6234,4.777,4.949,5.0712,5.0712,5.0712,5.0712,5.0712,5.0712,5.0712,5.0712,5.0712,5.0712,5.0712,5.0712,5.0712,5.0712,5.0712,5.0712,5.0712,5.0693,5.0693,5.0693,4.9856,4.9394,4.9404,4.8659,4.7874,4.7009,4.7129,4.6828,4.6091,4.6091,4.6091,4.6171,4.8043,4.8887,4.8984,5.0664,5.1387,5.1406,5.1406,5.1406,5.1406,5.1406,5.1406,5.1406,5.1406,5.1406,5.1406,0.0,0.0,0.0,0.0,0.0,0.0,0.0,0.0,3.1511,3.1511,3.1511,0.0,0.0,0.0,0.0,0.0,0.0,0.0,3.1511,3.1511,3.1511,3.1511,3.1511,3.1511,3.1511,3.1511,3.1511,3.1511,3.1511,3.1611,3.1853,3.2826,3.3521,3.3937,3.4871,3.5407,3.56,3.56,3.56,3.56,3.56,3.56,3.56,0.0,0.0,0.0,0.0,0.0,0.0,0.0,0.0,0.0,3.8707,3.8707,3.8707,3.8707,3.968,4.0877,4.1434,4.2596,4.3803,4.4444,4.4593,0.0,0.0,4.522,0.0,0.0,4.949,5.0712,5.0712,5.0712,5.0712,5.0712,5.0712,5.0712,5.0712,5.0712,5.0712,5.0712,5.0712,5.0712,5.0712,5.0712,5.0712,5.0712,5.0125,4.9779,4.9779,4.8952,4.8524,4.8616,4.7826,4.735,4.7279,4.6706,4.6364,4.6246,4.6246,4.6246,4.6286,4.7441,4.832,4.8965,5.0078,5.0879,5.1406,5.1406,5.1406,5.1406,5.1406,5.1406,5.1406,5.1406,5.1406,5.1406,0.0,0.0,0.0,0.0,0.0,0.0,3.0524,3.1058,3.1511,3.1511,3.1511,3.1511,0.0,0.0,0.0,3.1511,3.1511,0.0,3.1511,3.1511,3.1511,3.1511,3.1511,3.1511,3.1511,3.1511,3.1511,3.1511,3.1511,3.1511,3.1524,3.268,3.3339,3.3633,3.4728,3.5362,3.56,3.56,3.56,3.56,3.56,3.56,3.56,0.0,0.0,0.0,0.0,0.0,0.0,0.0,0.0,0.0,3.8707,3.8707,3.8793,3.925,4.0292,4.1486,4.2294,4.3465,4.4535,4.49,4.5,4.5044,4.5253,4.557,4.6252,4.778,4.8933,4.9663,4.9663,4.9952,5.0183,5.0183,5.0481,5.0712,5.0712,5.0712,5.0712,5.0712,5.0712,5.0712,5.0712,5.0385,5.0183,5.0183,4.9375,4.8912,4.8962,4.8112,4.7706,4.7849,4.7028,4.6674,4.6884,4.642,4.6223,4.6308,4.6308,4.6308,4.6348,4.7558,4.8398,4.8965,5.0156,5.0957,5.1406,5.1406,5.1406,5.1406,5.1406,5.1406,5.1406,5.1406,5.1406,5.1406,0.0,0.0,2.6816,2.6748,0.0,0.0,2.9223,3.0524,3.1511,3.1511,3.1511,3.1511,0.0,0.0,0.0,3.1511,3.1511,3.1511,3.1511,3.1511,3.1511,3.1511,3.1511,3.1511,3.1511,3.1511,3.1511,3.1511,3.1511,3.1511,3.1511,3.2244,3.296,3.3633,3.4309,3.4965,3.56,3.56,3.56,3.56,3.56,3.56,3.56,3.56,0.0,0.0,0.0,0.0,0.0,0.0,0.0,0.0,3.8707,3.8707,3.8927,4.0058,4.0985,4.1953,4.3482,4.4489,4.5191,4.5513,4.5594,4.5594,4.5594,4.6201,4.7009,4.7817,4.8048,4.8105,4.8105,4.8759,4.9279,4.9279,4.9952,5.0462,5.0462,5.0462,5.0462,5.0462,5.0462,5.0462,5.0462,4.974,4.9288,4.9288,4.8479,4.8056,4.8197,4.7325,4.6907,4.709,4.632,4.5985,4.6117,4.6246,4.6308,4.6308,4.6308,4.6348,4.6465,4.8066,4.8867,4.9101,5.0703,5.1406,5.1406,5.1406,5.1406,5.1406,5.1406,5.1406,5.1406,5.1406,5.1406,5.1406,0.0,0.0,2.9286,2.8588,0.0,0.0,3.097,3.1278,3.1511,3.1511,3.1511,3.1511,3.1511,3.1511,0.0,3.1511,3.1511,3.1511,3.1511,3.1511,3.1511,3.1511,3.1511,3.1511,3.1511,3.1511,3.1511,3.1511,3.1511,3.1511,3.1511,3.2244,3.296,3.3633,3.4309,3.4965,3.56,3.56,3.56,3.56,3.56,3.56,3.56,3.56,3.627,0.0,0.0,0.0,0.0,0.0,0.0,0.0,3.8707,3.8707,3.8927,4.0058,4.0985,4.1953,4.3482,4.4489,4.5191,4.5513,4.5594,4.5594,4.5594,4.5748,4.6124,4.699,4.7663,4.8105,4.8105,4.8259,4.8375,4.8375,4.8548,4.8663,4.8663,4.8663,4.8663,4.8663,4.8663,4.8663,4.8663,4.849,4.8428,4.8535,4.7731,4.7294,4.7436,4.6604,4.6177,4.6337,4.6145,4.6119,4.6267,4.6289,4.6308,4.6308,4.6308,4.666,4.7324,4.7715,4.8633,4.998,5.0976,5.1406,5.1406,5.1406,5.1406,5.1406,5.1406,5.1406,5.1406,5.1406,5.1406,5.1406,0.0,0.0,0.0,0.0,0.0,0.0,0.0,0.0,3.1351,3.097,3.1248,3.1511,3.1511,3.1511,0.0,0.0,3.1511,3.1511,3.1511,3.1511,3.1511,3.1511,3.1511,3.1511,3.1511,3.1511,3.1653,3.2035,3.2035,3.2035,3.2035,3.2761,3.3443,3.4112,3.4776,3.5276,3.56,3.56,3.56,3.56,3.56,3.56,3.56,3.56,3.6118,3.6862,3.7114,0.0,0.0,0.0,0.0,0.0,0.0,0.0,3.8958,4.0259,4.1203,4.2165,4.3692,4.47,4.5371,4.5559,4.5594,4.5594,4.5594,4.5594,4.5729,4.6182,4.6605,4.6894,4.6894,4.724,4.7528,4.7528,4.7855,4.8105,4.8105,4.8105,4.8105,4.8105,4.8105,4.8105,4.8105,4.778,4.7608,4.7673,4.6926,4.6533,4.6667,4.6181,4.5988,4.6198,4.6122,4.6152,4.6308,4.6308,4.6308,4.6308,4.6308,4.6973,4.8242,4.8652,4.9551,5.0801,5.1211,5.1406,5.1406,5.1406,5.1406,5.1406,5.1406,5.1406,5.1406,5.1406,5.1406,5.1406,0.0,0.0,0.0,0.0,0.0,0.0,0.0,0.0,0.0,3.0389,3.0999,3.1511,3.1511,3.1511,3.1511,0.0,0.0,0.0,3.1511,3.1511,3.1511,3.1511,3.1511,3.1511,3.1511,3.1611,3.1979,3.2586,3.2722,3.2841,3.2933,3.3391,3.3962,3.4624,3.5184,3.5492,3.56,3.56,3.56,3.56,3.56,3.56,3.56,3.56,3.5941,3.6478,3.7018,3.7506,3.798,3.853,0.0,0.0,0.0,0.0,3.8984,4.0459,4.1477,4.242,4.3894,4.494,4.5594,4.5594,4.5594,4.5594,4.5594,4.5594,4.5594,4.5594,4.5594,4.5594,4.5594,4.6182,4.6682,4.6682,4.724,4.7663,4.7663,4.7663,4.7672,4.7698,4.7698,4.7715,4.7711,4.7173,4.6829,4.6835,4.628,4.5992,4.614,4.6033,4.6075,4.6289,4.6199,4.6198,4.6308,4.6308,4.6308,4.6308,4.6601,4.75,4.8926,4.9941,5.0762,5.1406,5.1406,5.1406,5.1406,5.1406,5.1406,5.1406,5.1406,5.1406,5.1406,5.1406,5.1406,5.1406,0.0,0.0,0.0,0.0,0.0,0.0,0.0,0.0,0.0,0.0,3.0999,3.1511,3.1511,3.1511,3.1511,3.1511,3.1511,3.1511,3.1511,0.0,0.0,3.1511,3.1511,3.1511,3.1511,3.212,3.2504,3.2586,3.3198,3.3761,3.4333,3.3836,3.3962,3.46,3.4688,3.5052,3.56,3.56,3.56,3.56,3.56,3.56,3.56,3.56,3.5941,3.6478,3.7018,3.7506,3.798,3.853,3.8707,0.0,0.0,0.0,3.8984,4.0459,4.1477,4.242,4.3894,4.494,4.5594,4.5594,4.5594,4.5594,4.5594,4.5594,4.5594,4.5594,4.5594,4.5594,4.5594,4.571,4.5768,4.5768,4.5864,4.5941,4.5941,4.5941,4.5971,4.609,4.6111,4.6132,4.6187,4.6095,4.6091,4.6212,4.6131,4.6122,4.6268,4.6267,4.6268,4.6308,4.6289,4.6289,4.6308,4.6308,4.6308,4.6328,4.7832,4.8672,4.8945,5.0527,5.1308,5.1406,5.1406,5.1406,5.1406,5.1406,5.1406,5.1406,5.1406,5.1406,5.1406,5.1406,5.1406,5.1406,0.0,0.0,0.0,0.0,0.0,0.0,0.0,0.0,0.0,0.0,0.0,3.1511,3.1511,3.1511,3.1511,3.1511,3.1511,3.1511,3.1511,3.1511,3.1511,3.1511,3.1511,3.1697,3.212,3.2437,3.2975,3.371,3.4012,3.4503,3.5144,3.4864,3.4887,3.5161,3.5161,3.5316,3.56,3.56,3.56,3.56,3.56,3.56,3.56,3.56,3.5739,3.6054,3.6904,3.7323,3.7614,3.8433,3.8707,3.8707,3.8707,0.0,0.0,0.0,4.1088,4.2533,4.4508,4.5306,4.5594,4.5594,4.5594,4.5594,4.5594,4.5648,4.5715,4.5715,4.5743,4.5764,4.5718,4.5715,4.5713,4.5757,4.577,4.577,4.577,4.577,4.5801,4.5845,4.5855,4.5876,4.5894,4.5974,4.6039,4.6106,4.6173,4.6246,4.6308,4.6308,4.6308,4.6308,4.6308,4.6308,4.6308,4.6308,4.6308,4.6328,4.7578,4.8437,4.8945,5.0176,5.0976,5.1406,5.1406,5.1406,5.1406,5.1406,5.1406,5.1406,5.1406,5.1406,5.1406,5.1406,5.1406,5.1406,0.0,0.0,0.0,0.0,0.0,0.0,0.0,0.0,0.0,0.0,0.0,3.1511,3.1511,0.0,0.0,0.0,3.1511,3.1511,3.1511,3.1511,3.1511,3.1511,3.1511,3.1853,3.2586,3.2776,3.3443,3.46,3.4759,3.5098,3.56,3.56,3.56,3.56,3.56,3.56,3.56,3.56,3.56,3.56,3.56,3.56,3.56,3.56,3.5672,3.5941,3.6865,3.7267,3.7506,3.8401,3.8707,3.8707,3.8707,3.8707,0.0,0.0,0.0,4.2781,4.4737,4.5441,4.5594,4.5594,4.5637,4.566,4.566,4.5735,4.5826,4.5826,4.5871,4.59,4.5875,4.585,4.5842,4.5885,4.5899,4.5899,4.5899,4.5899,4.599,4.6251,4.6275,4.6383,4.6641,4.6555,4.6481,4.6481,4.6364,4.6308,4.6308,4.6308,4.6308,4.6308,4.6308,4.6308,4.6308,4.6308,4.6308,4.6308,4.7187,4.7949,4.8613,4.9707,5.0527,5.1113,5.1308,5.1406,5.1406,5.1406,5.1406,5.1406,5.1406,5.1406,5.1406,5.1406,5.1406,5.1406,0.0,0.0,0.0,0.0,0.0,0.0,0.0,0.0,0.0,0.0,0.0,3.1511,3.1511,3.1511,3.1511,3.1511,3.1511,3.1511,3.1511,3.1511,3.1511,3.1511,3.1511,0.0,3.2586,3.3209,3.3887,3.46,3.523,3.5577,3.56,3.56,3.56,3.56,3.56,3.56,3.56,3.56,3.56,3.56,3.56,3.56,3.56,3.56,3.592,3.6437,3.6999,3.7488,3.7946,3.8496,3.8707,3.8707,3.8707,3.8707,3.8822,0.0,0.0,0.0,4.4143,4.4979,4.5594,4.5594,4.5692,4.579,4.579,4.5834,4.589,4.589,4.5894,4.5932,4.6069,4.5978,4.5894,4.5899,4.5899,4.5899,4.5899,4.5899,4.6251,4.7211,4.7316,4.7707,4.8651,4.8007,4.7519,4.7519,4.6758,4.6308,4.6308,4.6308,4.6308,4.6308,4.6308,4.6308,4.6308,4.6308,4.6308,4.6308,4.7187,4.7617,4.7734,4.9433,5.0215,5.0293,5.1074,5.1406,5.1406,5.1406,5.1406,5.1406,5.1406,5.1406,5.1406,5.1406,5.1406,5.1406,0.0,0.0,0.0,0.0,0.0,0.0,0.0,0.0,0.0,0.0,0.0,0.0,0.0,3.1511,3.1511,3.1511,3.1511,3.1511,3.1511,3.1511,3.1511,3.1511,3.1511,3.2048,3.3209,3.3495,3.4137,3.523,3.5492,3.56,3.56,3.56,3.56,3.56,3.56,3.56,3.56,3.56,3.56,3.56,3.56,3.56,3.56,3.56,3.5717,3.5989,3.6884,3.7304,3.7596,3.8417,3.8707,3.8707,3.8707,3.8707,3.8929,4.009,4.1292,4.2566,4.3932,4.4528,4.4893,4.546,4.57,4.5803,4.5803,4.591,4.6033,4.6033,4.6108,4.635,4.6946,4.6507,4.6069,4.6145,4.617,4.6345,4.6912,4.699,4.7327,4.8255,4.8354,4.8493,4.8867,4.8613,4.8203,4.7637,4.7305,4.6894,4.6328,4.6308,4.6308,4.6308,4.6308,4.6308,4.6308,4.6308,4.6308,4.6308,4.6621,4.7051,4.7637,4.8828,4.9668,5.0234,5.1055,5.1406,5.1406,5.1406,5.1406,5.1406,5.1406,5.1406,5.1406,5.1406,5.1406,5.1406,0.0,0.0,0.0,3.0614,0.0,3.0866,3.1409,3.1511,3.1511,3.1511,0.0,0.0,0.0,0.0,3.1511,3.1511,3.1511,3.1511,3.1511,3.1511,3.1611,3.1853,3.1881,3.2516,3.3912,3.3937,3.4471,3.56,3.56,3.56,3.56,3.56,3.56,3.56,3.56,3.56,3.56,3.56,3.56,3.56,3.56,3.56,3.56,3.56,3.5717,3.6006,3.6884,3.7304,3.756,3.8417,3.8707,3.8707,3.8707,3.8762,3.9048,4.0146,4.1021,4.1955,4.3472,4.4085,4.4509,4.5383,4.5733,4.5825,4.5825,4.6017,4.6173,4.6173,4.6246,4.6562,4.7441,4.7045,4.6727,4.7109,4.7168,4.7363,4.7949,4.8047,4.8359,4.9238,4.9336,4.9433,4.9707,4.9492,4.9101,4.8516,4.793,4.7344,4.6777,4.6465,4.6308,4.6308,4.6308,4.6308,4.6308,4.6308,4.6308,4.6308,4.6308,4.6601,4.7207,4.8379,4.9219,4.9824,5.0918,5.1406,5.1406,5.1406,5.1406,5.1406,5.1406,5.1406,5.1406,5.1406,5.1406,5.1406,3.1351,3.1511,3.1511,3.1511,3.1511,3.1511,3.1511,3.1511,3.1511,3.1511,0.0,0.0,0.0,0.0,0.0,3.1511,3.1511,3.1511,3.1511,3.1511,3.1824,3.2559,3.2586,3.3251,3.4576,3.46,3.4918,3.56,3.56,3.56,3.56,3.56,3.56,3.56,3.56,3.56,3.56,3.56,3.56,3.56,3.56,3.56,3.56,3.56,3.592,3.6457,3.7001,3.7488,3.7963,3.8512,3.8707,3.8707,3.8707,3.8865,3.9178,3.9498,4.039,0.0,0.0,0.0,0.0,4.5344,4.5738,4.5894,4.5899,4.6091,4.6308,4.6308,4.6308,4.6562,4.7461,4.7637,4.793,4.8828,4.8926,4.8906,4.8926,4.8945,4.9258,5.0137,5.0234,5.0547,5.1328,5.0683,5.0234,5.0195,4.8633,4.7656,4.7598,4.6777,4.6308,4.6308,4.6308,4.6308,4.6308,4.6308,4.6308,4.6308,4.6308,4.6308,4.6367,4.8105,4.8906,4.8984,5.0664,5.1406,5.1406,5.1406,5.1406,5.1406,5.1406,5.1406,5.1406,5.1406,5.1406,5.1406,3.1467,3.1511,3.1511,3.1511,3.1511,3.1511,3.1511,3.1511,3.1511,0.0,0.0,0.0,3.1511,3.1511,3.1511,3.1511,3.1511,3.1511,3.1511,3.1511,3.1824,3.2559,3.2586,3.3251,3.4576,3.46,3.4918,3.56,3.56,3.56,3.56,3.56,3.56,3.56,3.56,3.56,3.56,3.56,3.56,3.56,3.56,3.56,3.56,3.56,3.5694,3.5941,3.6865,3.7285,3.7524,3.8401,3.8707,3.8707,3.8707,3.8865,3.9178,3.9498,4.0,0.0,4.1835,0.0,0.0,0.0,0.0,0.0,4.5881,4.6036,4.6177,4.6289,4.6308,4.6758,4.8262,4.8535,4.9023,5.0469,4.9687,4.9121,4.9746,4.9844,5.0156,5.0976,5.1074,5.1152,5.1387,5.1191,5.082,5.0234,4.9746,4.8926,4.7676,4.6777,4.6308,4.6308,4.6308,4.6308,4.6308,4.6308,4.6308,4.6308,4.6308,4.6308,4.6367,4.8105,4.8906,4.8984,5.0664,5.1406,5.1406,5.1406,5.1406,5.1406,5.1406,5.1406,5.1406,5.1406,5.1406,5.1406,3.1511,3.1511,3.1511,3.1511,3.1511,3.1511,3.1511,3.1511,3.1511,0.0,0.0,0.0,3.1511,3.1511,3.1511,3.1511,3.1511,3.1511,3.1511,3.1511,3.1951,3.296,3.3013,3.3649,3.5005,3.5028,3.5207,3.56,3.56,3.56,3.56,3.56,3.56,3.56,3.56,3.56,3.56,3.56,3.56,3.56,3.56,3.56,3.56,3.56,3.56,3.5717,3.6563,3.7001,3.7322,3.81,3.8512,3.8707,3.8707,3.8818,3.9013,3.9469,3.9742,0.0,0.0,0.0,0.0,4.4105,0.0,0.0,4.5872,4.5998,4.6144,4.6269,4.6308,4.6719,4.8105,4.8652,4.9336,5.0683,5.0351,5.0117,5.0625,5.0703,5.0879,5.1348,5.1406,5.1406,5.1406,5.1406,5.1211,5.0742,5.0391,4.9433,4.7695,4.7129,4.668,4.6308,4.6308,4.6308,4.6308,4.6308,4.6308,4.6308,4.6308,4.6308,4.6367,4.8105,4.8906,4.8984,5.0664,5.1406,5.1406,5.1406,5.1406,5.1406,5.1406,5.1406,5.1406,5.1406,5.1406,5.1406,0.0,3.1511,3.1511,3.1511,3.1511,3.1511,3.1511,3.1511,3.1511,0.0,3.1511,0.0,0.0,0.0,0.0,0.0,3.1511,3.1511,3.1511,3.1582,3.2201,3.3531,3.3659,3.4301,3.5577,3.56,3.56,3.56,3.56,3.56,3.56,3.56,3.56,3.56,3.56,3.56,3.56,3.56,3.56,3.56,3.56,3.56,3.56,3.56,3.56,3.5672,3.6203,3.6744,3.7267,3.7807,3.83,3.8707,3.8707,3.8707,3.8822,3.9389,3.9576,0.0,0.0,0.0,0.0,4.3951,4.4913,0.0,4.5872,4.5992,4.6117,4.6268,4.6308,4.6562,4.7441,4.8223,4.9043,4.9902,5.0742,5.1308,5.1387,5.1406,5.1406,5.1406,5.1406,5.1406,5.1406,5.1406,5.1406,5.1406,5.0644,4.9512,4.7969,4.7715,4.7246,4.6465,4.6348,4.6308,4.6308,4.6308,4.6308,4.6308,4.6308,4.6308,4.6367,4.8105,4.8906,4.8984,5.0664,5.1406,5.1406,5.1406,5.1406,5.1406,5.1406,5.1406,5.1406,5.1406,5.1406,5.1406,3.1511,3.1511,3.1511,3.1511,3.1511,3.1511,3.1511,3.1511,3.1511,3.1511,3.1511,0.0,0.0,0.0,0.0,0.0,3.1511,3.1511,3.1511,3.2064,3.2761,3.3556,3.4112,3.4776,3.5577,3.56,3.56,3.56,3.56,3.56,3.56,3.56,3.56,3.56,3.56,3.56,3.56,3.56,3.56,3.56,3.56,3.56,3.56,3.56,3.56,3.5672,3.6203,3.6744,3.734,3.8234,3.8611,3.8707,3.8707,3.8707,3.8762,3.9104,3.9377,3.9717,4.0281,4.124,4.2258,4.3124,4.3965,0.0,4.5692,4.5916,4.6001,4.6247,4.6308,4.6562,4.7441,4.7734,4.8144,4.9004,4.9863,5.0664,5.1308,5.1406,5.1406,5.1406,5.1406,5.1406,5.1406,5.1406,5.1406,5.1406,5.0644,5.0058,4.9707,4.8359,4.7519,4.7344,4.668,4.6308,4.6308,4.6308,4.6308,4.6308,4.6308,4.6308,4.6367,4.8105,4.8906,4.8984,5.0664,5.1406,5.1406,5.1406,5.1406,5.1406,5.1406,5.1406,5.1406,5.1406,5.1406,5.1406,3.1511,3.1511,3.1511,3.1511,3.1511,3.1511,3.1511,3.1511,3.1511,3.1511,3.1511,0.0,0.0,0.0,0.0,0.0,0.0,0.0,3.1511,3.2203,3.2895,3.3556,3.4235,3.4918,3.56,3.56,3.56,3.56,3.56,3.56,3.56,3.56,3.5739,3.5985,3.5717,3.5761,3.5985,3.5717,3.56,3.56,3.56,3.56,3.56,3.56,3.5859,3.6192,3.6056,3.6522,3.7341,3.8368,3.8707,3.8707,3.8707,3.8707,3.8747,3.9022,3.9327,3.9668,4.0012,4.0927,4.2,4.2874,4.3701,0.0,0.0,4.5877,4.5967,4.615,4.6248,4.6426,4.6875,4.7305,4.7734,4.8183,4.8984,4.9844,5.0683,5.1152,5.1406,5.1406,5.1406,5.1406,5.1406,5.1406,5.1406,5.1406,5.1035,5.0625,5.0215,4.9375,4.8496,4.7637,4.7187,4.6738,4.6308,4.6308,4.6308,4.6308,4.6308,4.6308,4.6367,4.8105,4.8906,4.8984,5.0664,5.1406,5.1406,5.1406,5.1406,5.1406,5.1406,5.1406,5.1406,5.1406,5.1406,5.1406,3.1555,3.1511,3.154,3.1675,3.169,3.1735,3.1869,3.1884,3.1884,3.1884,3.2015,0.0,0.0,0.0,0.0,0.0,0.0,0.0,3.233,3.2862,3.3441,3.3995,3.4513,3.5052,3.56,3.56,3.56,3.56,3.56,3.56,3.56,3.56,3.5832,3.6224,3.5898,3.5941,3.6224,3.6051,3.5965,3.6004,3.614,3.6034,3.5859,3.6112,3.6548,3.6954,3.6519,3.6873,3.7702,3.862,3.8836,3.8707,3.8707,3.8707,3.8732,3.8961,3.9257,3.9576,3.9912,4.0844,4.1931,4.2865,4.3701,4.4548,0.0,0.0,0.0,4.6036,4.6173,4.6268,4.6268,4.6855,4.7344,4.7344,4.8086,4.8906,4.9609,5.0547,5.123,5.1387,5.1406,5.1406,5.1406,5.1406,5.1406,5.1406,5.1406,5.1113,5.0469,5.0273,4.9551,4.8144,4.7773,4.7266,4.6562,4.6387,4.6308,4.6308,4.6308,4.6308,4.6367,4.8105,4.8906,4.8984,5.0664,5.1406,5.1406,5.1406,5.1406,5.1406,5.1406,5.1406,5.1406,5.1406,5.1406,5.1406,3.1735,3.1511,3.169,3.2273,3.2378,3.2602,3.3185,3.3275,3.3275,0.0,0.0,0.0,3.4421,3.4967,3.5334,3.5414,3.535,3.5302,3.5302,3.5334,3.5374,3.5448,3.5489,3.5515,3.56,3.56,3.56,3.56,3.56,3.56,3.56,3.56,3.5627,3.5717,3.6118,3.6075,3.5768,3.6844,3.7318,3.743,3.807,3.7671,3.6797,3.7924,3.8111,3.7895,3.8744,3.898,3.8975,3.9573,3.9294,3.8707,3.8707,3.8707,3.8707,3.8735,3.8952,3.9225,3.9564,4.0482,4.1638,4.2804,4.3701,4.4548,4.5569,0.0,4.5838,4.5914,0.0,4.6119,4.6119,0.0,0.0,4.6445,4.7187,4.7773,4.7871,4.9297,5.0605,5.1328,5.1406,5.1406,5.1406,5.1406,5.1406,5.1406,5.1406,5.1367,5.1269,5.0586,5.0117,4.9902,4.8418,4.7558,4.7441,4.6699,4.6308,4.6308,4.6308,4.6308,4.6367,4.8105,4.8906,4.8984,5.0664,5.1406,5.1406,5.1406,5.1406,5.1406,5.1406,5.1406,5.1406,5.1406,5.1406,5.1386,3.2781,3.2677,3.2766,3.3036,3.308,3.3185,3.3455,3.3499,3.3499,0.0,0.0,3.4166,3.4547,3.4936,3.5313,3.5663,3.578,3.5814,3.5814,3.6146,0.0,3.6339,3.6729,3.6738,3.6299,3.6299,3.6079,3.56,3.56,3.56,3.56,3.592,3.6054,3.6114,3.7114,3.7428,3.7276,3.7918,3.8209,3.83,3.9041,3.9024,3.8585,3.9048,3.908,3.9041,4.0188,4.0253,3.9877,4.0414,4.0065,3.9405,3.9405,3.9074,3.8707,3.8707,3.8898,3.9232,3.9849,4.0636,4.1666,4.313,4.3903,4.4534,4.548,4.574,4.5803,4.585,0.0,0.0,0.0,0.0,0.0,0.0,4.6601,4.7012,4.7539,4.8223,4.9199,5.0547,5.1113,5.1406,5.1406,5.1406,5.1406,5.1406,5.1406,5.1406,5.1406,5.1074,5.0683,5.0215,4.9004,4.8105,4.7598,4.6738,4.6308,4.6308,4.6308,4.6562,4.7109,4.834,4.918,4.9726,5.0898,5.1406,5.1406,5.1406,5.1406,5.1406,5.1406,5.1406,5.1406,5.1406,5.1406,5.1386,3.4638,3.4228,3.3895,3.4046,3.4258,3.4469,3.4652,3.4486,3.4333,3.4333,3.4333,3.4607,3.5324,3.566,3.6128,3.6788,3.6928,3.6986,3.6986,3.7239,3.7394,3.7394,3.7715,3.7652,3.7094,3.7117,3.6823,3.6225,3.6022,3.6118,3.645,3.6642,3.6936,3.7327,3.8431,3.8835,3.8752,3.9233,3.9466,3.9519,4.0284,4.0686,4.0785,4.0362,4.039,4.0771,4.1481,4.1378,4.0906,4.1289,4.0891,4.023,4.023,3.9827,3.9368,3.9368,3.9493,3.9797,4.0472,4.1167,4.2044,4.3441,4.4153,4.4717,4.5423,4.568,4.5747,4.5747,4.5807,0.0,0.0,0.0,4.6122,4.6225,0.0,4.6523,4.7148,4.7441,4.8164,4.9668,5.0566,5.1074,5.1074,5.1269,5.1406,5.1406,5.1406,5.1406,5.1406,5.1406,5.1133,5.0547,4.9707,4.8848,4.7969,4.709,4.6543,4.6308,4.6308,4.6621,4.7285,4.8398,4.9258,4.9902,5.0957,5.1406,5.1406,5.1406,5.1406,5.1406,5.1406,5.1406,5.1406,5.1406,5.1406,5.1386,3.751,3.6043,3.4833,3.5423,3.6174,3.6898,3.7543,3.6991,3.6507,3.6507,3.6507,3.6796,3.76,3.8337,3.909,3.9893,3.9969,3.9961,3.9961,3.9318,3.893,3.893,3.8278,3.7889,3.7872,3.7872,3.7855,3.7838,3.7094,3.7388,3.8586,3.7901,3.8251,3.952,4.0019,3.9981,3.9629,4.0807,4.1339,4.1485,4.2276,4.2922,4.3248,4.2154,4.2413,4.3319,4.2829,4.2468,4.2233,4.2268,4.1735,4.1058,4.1058,4.104,4.1022,4.1022,4.1038,4.1117,4.1445,4.2131,4.2922,4.3627,4.4448,4.5163,4.5522,4.5594,4.5603,4.5603,4.5715,4.579,4.5816,4.5959,0.0,0.0,0.0,0.0,0.0,4.707,4.793,4.8828,4.9707,5.0234,5.0234,5.0937,5.1406,5.1406,5.1406,5.1406,5.1406,5.1406,5.1387,5.1367,5.0586,4.9746,4.8867,4.7988,4.7129,4.6308,4.6308,4.6308,4.6406,4.8125,4.8926,4.9023,5.0683,5.1406,5.1406,5.1406,5.1406,5.1406,5.1406,5.1406,5.1406,5.1406,5.1406,5.1365,3.7764,3.7649,3.7375,3.7118,3.7265,3.7534,3.7774,3.7573,3.7397,3.7397,3.7397,3.7515,3.7764,3.8469,3.9016,3.9289,3.9782,4.0096,4.0096,3.9876,3.974,3.974,3.9503,3.9123,3.8633,3.8633,3.8396,3.7905,3.7652,3.7934,3.8699,3.88,3.9123,3.9667,4.1017,4.1342,4.0918,4.186,4.226,4.2315,4.2585,4.3014,4.3462,4.3069,4.316,4.348,4.3286,4.3174,4.3075,4.3075,4.2561,4.1901,4.1901,4.1534,4.1095,4.1095,4.1095,4.1238,4.188,4.2424,4.2986,4.3736,4.4517,4.5118,4.5243,4.5438,4.5594,4.5594,4.5635,4.5692,4.5776,4.585,0.0,0.0,0.0,0.0,0.0,4.6543,4.6855,4.7148,4.8457,4.957,5.0137,5.0449,5.082,5.1367,5.1406,5.1406,5.1406,5.1406,5.1406,5.1406,5.0625,5.0058,4.9766,4.832,4.7441,4.7168,4.7168,4.7461,4.8066,4.9238,5.0058,5.0586,5.1152,5.1406,5.1406,5.1406,5.1406,5.1406,5.1406,5.1344,5.1271,5.1366,5.1406,5.1365,3.8569,3.8995,3.9086,3.8302,3.843,3.864,3.864,3.8374,3.8206,3.8206,3.795,3.7892,3.8161,3.8608,3.9032,3.9315,3.9808,4.0096,4.0096,4.0096,4.0096,4.0096,4.0096,3.9893,3.9394,3.9402,3.9157,3.8684,3.8618,3.9009,3.9804,4.0086,4.0495,4.1029,4.221,4.2517,4.225,4.2759,4.2976,4.2976,4.2976,4.3196,4.3515,4.3515,4.3515,4.3515,4.3515,4.3515,4.3515,4.3515,4.3149,4.2727,4.2727,4.2378,4.1956,4.1956,4.1956,4.2066,4.2598,4.2869,4.3228,4.4015,4.4561,4.4977,4.5222,4.5438,4.5594,4.5594,4.5594,4.5637,4.5715,4.5775,4.5832,0.0,0.0,0.0,0.0,4.6308,4.6308,4.6308,4.7578,4.8652,4.9219,4.9844,5.041,5.0937,5.123,5.1406,5.1406,5.1406,5.1406,5.1406,5.0898,5.0488,5.0195,4.9082,4.8379,4.8066,4.8066,4.8359,4.8926,4.9805,5.0488,5.0996,5.1289,5.1406,5.1406,5.1406,5.1406,5.1406,5.1406,5.132,5.1208,5.1296,5.1288,5.1199,3.9952,4.013,3.9901,3.9135,3.9601,4.0096,4.0096,3.9497,3.9011,3.9011,3.8455,3.8274,3.8996,3.9044,3.9312,4.0096,4.013,4.0096,4.0096,4.0096,4.0096,4.0096,4.0096,4.0096,4.0096,4.0096,4.0121,4.0146,3.995,4.0547,4.1835,4.1654,4.225,4.3515,4.3515,4.3515,4.3515,4.3515,4.3515,4.3515,4.3515,4.3515,4.3515,4.3515,4.3515,4.3515,4.3515,4.3515,4.3515,4.3515,4.3515,4.3515,4.3515,4.3515,4.3515,4.3515,4.3515,4.3515,4.3515,4.3515,4.3662,4.4364,4.4567,4.4757,4.541,4.5577,4.5594,4.5594,4.5594,4.5594,4.5594,4.57,4.579,0.0,0.0,0.0,4.6268,4.6308,4.6308,4.6308,4.7031,4.7558,4.7598,4.9141,5.0156,5.0195,5.0957,5.1406,5.1406,5.1406,5.1406,5.1406,5.1406,5.1035,5.0273,5.0215,4.9785,4.8965,4.8965,4.8965,4.8984,4.9863,5.0254,5.0293,5.1074,5.1406,5.1406,5.1406,5.1406,5.1406,5.1406,5.1319,5.1199,5.1199,5.1078,5.0908,4.0045,4.0527,4.0848,4.0649,4.034,4.0096,4.0096,4.0399,4.0622,4.0622,4.0916,4.1224,4.1412,4.0942,4.0675,4.089,4.0434,4.0096,4.0096,4.0096,4.0096,4.0096,4.0096,4.0096,4.0096,4.0096,4.0286,4.0703,4.0643,4.1253,4.248,4.2419,4.2795,4.3515,4.3515,4.3515,4.3515,4.3515,4.3515,4.3515,4.3515,4.3515,4.3515,4.3515,4.3515,4.3515,4.3515,4.3515,4.3515,4.3515,4.3515,4.3515,4.3515,4.3515,4.3515,4.3515,4.3515,4.3515,4.3515,4.3515,4.3548,4.3744,4.418,4.4663,4.4806,4.5243,4.5594,4.5594,4.5594,4.5594,4.5594,4.5618,4.5669,4.5776,0.0,0.0,4.6147,4.6246,4.6308,4.6308,4.6504,4.6894,4.7539,4.8594,4.9492,5.0156,5.0957,5.1406,5.1406,5.1406,5.1406,5.1406,5.1406,5.1308,5.1094,5.0508,5.0098,4.9863,4.9863,4.9863,4.9883,5.0723,5.1094,5.1094,5.1308,5.1406,5.1406,5.1406,5.1406,5.1406,5.1406,5.1283,5.112,5.112,5.1036,5.0908,4.1077,4.139,4.1677,4.1677,4.1322,4.1077,4.1077,4.1407,4.1677,4.1677,4.2033,4.2286,4.2286,4.1931,4.1677,4.1677,4.1288,4.1077,4.1077,4.1077,4.0925,4.0578,4.0578,4.0434,4.0113,4.0336,4.0601,4.0903,4.1424,4.2021,4.2711,4.2939,4.3214,4.3515,4.3515,4.3515,4.3515,4.3515,4.3515,4.3515,4.3515,4.3515,0.0,4.3515,4.3515,4.3515,4.3515,4.3515,4.3515,4.3515,4.3515,4.3515,4.3515,4.3515,4.3515,4.3515,4.3515,4.3515,4.3515,4.3515,4.3531,4.3677,4.4165,4.4631,4.4788,4.5232,4.5594,4.5594,4.5594,4.5594,4.5594,4.5594,4.5643,4.5769,4.589,4.5994,4.6082,4.6152,4.6226,4.6289,4.6308,4.6484,4.6973,4.7812,4.8691,4.957,5.0391,5.1035,5.1387,5.1406,5.1406,5.1406,5.1406,5.1406,5.1406,5.0957,5.0723,5.0723,5.0723,5.0723,5.0742,5.1191,5.1406,5.1406,5.1406,5.1406,5.1406,5.1406,5.1366,5.1296,5.1213,5.1116,5.101,5.0952,5.0879,5.0814,4.2286,4.2371,4.2439,4.2439,4.2523,4.2591,4.2591,4.2506,4.2439,4.2439,4.2523,4.2591,4.2591,4.2506,4.2439,4.2439,4.2354,4.2286,4.2286,4.2286,4.1999,4.1373,4.1339,4.1086,4.051,4.0862,4.1129,4.1295,4.2236,4.275,4.2826,4.3268,4.3515,4.3515,4.3515,4.3515,4.3515,4.3608,4.3606,4.3515,4.3608,4.3589,4.3515,4.3515,4.3515,4.3515,4.3515,4.3515,4.3515,4.3515,4.3515,4.3515,4.3515,4.3515,4.3515,4.3515,4.3515,4.3515,4.3515,4.3515,4.358,4.3927,4.429,4.4701,4.5011,4.5352,4.5594,4.5594,4.5594,4.5594,4.5594,4.5594,4.5635,4.5761,4.5783,4.5867,4.6059,4.6084,4.6147,4.6289,4.6308,0.0,4.6308,4.709,4.7969,4.8828,4.9707,5.0547,5.1367,5.1406,5.1406,5.1406,5.1406,5.1406,5.1406,5.1406,5.1406,5.1406,5.1406,5.1406,5.1406,5.1406,5.1406,5.1406,5.1406,5.1406,5.1406,5.1406,5.132,5.1188,5.0971,5.0908,5.0886,5.0739,5.0712,5.0712,4.2286,4.2794,4.3189,4.3189,4.3758,4.4209,4.4209,4.3623,4.3189,4.3189,4.3792,4.4209,4.4209,4.3606,4.3189,4.3189,4.2642,4.2286,4.2286,4.2286,4.2236,4.21,4.21,4.2304,4.2738,4.2189,4.2379,4.3373,4.2922,4.292,4.3375,4.3444,4.3515,4.3515,4.3515,4.3515,4.3551,4.4213,4.4103,4.357,4.4213,4.4085,4.3515,4.3515,4.3515,4.3515,4.3515,4.3515,4.3515,4.3515,4.3515,4.3515,4.3515,4.3515,4.3515,4.3515,4.3515,4.3515,4.3515,4.3515,4.358,4.3927,4.429,4.4701,4.5011,4.5352,4.5594,4.5594,4.5594,4.5594,4.5594,4.5594,4.5603,4.5627,4.5737,4.5826,4.5912,4.6033,4.6147,4.6289,4.6308,4.6308,4.6308,4.709,4.7969,4.8828,4.9707,5.0547,5.1367,5.1406,5.1406,5.1406,5.1406,5.1406,5.1406,5.1406,5.1406,5.1406,5.1406,5.1406,5.1406,5.1406,5.1406,5.1406,5.1406,5.1406,5.1406,5.1406,5.132,5.1188,5.0971,5.0908,5.0886,5.0739,5.0712,5.0712,4.3498,4.3775,4.4012,4.4012,4.4333,4.4615,4.4615,4.4265,4.4012,4.4012,4.435,4.4615,4.4615,4.4248,4.4012,4.4012,4.369,4.3617,4.3922,4.3948,4.3941,4.387,4.3853,4.3833,4.3758,4.3686,4.3946,4.452,4.4412,4.4492,4.4727,4.4727,4.4727,4.4727,4.4727,4.4727,4.4764,4.5168,4.5094,4.4782,4.5168,4.5094,4.469,4.4287,4.4121,4.4066,4.3662,4.3515,4.3515,4.3515,4.3515,4.3515,4.3515,4.3515,4.3515,4.3515,4.3515,4.3515,4.3515,4.3515,4.3548,4.3693,4.4165,4.4631,4.4793,4.5232,4.5594,4.5594,4.5594,4.5594,4.5594,4.5594,4.5594,4.5594,4.5648,4.572,4.5836,4.5931,4.6042,4.6175,4.6268,4.6308,4.6308,4.668,4.7461,4.8808,4.9297,5.0078,5.1328,5.1406,5.1406,5.1406,5.1406,5.1406,5.1406,5.1406,5.1406,5.1406,5.1406,5.1406,5.1406,5.1406,5.1406,5.1406,5.1406,5.1406,5.1386,5.1281,5.117,5.103,5.0852,5.0808,5.0791,5.0712,5.0712,5.0712,4.4615,4.4692,4.4786,4.4786,4.4906,4.4971,4.4971,4.4971,4.4879,4.4626,4.4615,4.4615,4.4615,4.4615,4.4654,4.4786,4.4786,4.5052,4.5648,4.5681,4.5635,4.5528,4.5515,4.5341,4.4893,4.518,4.5393,4.5532,4.579,4.581,4.5645,4.581,4.5902,4.5902,4.5902,4.5902,4.5902,4.6085,4.6067,4.5902,4.6085,4.6049,4.5828,4.5204,4.4966,4.4874,4.4316,4.4147,4.4145,4.4245,4.3972,4.3631,4.3712,4.3744,4.3744,4.3744,4.3744,4.3744,4.3744,4.3744,4.3761,4.382,4.428,4.472,4.4812,4.5232,4.5594,4.5594,4.5594,4.5594,4.5594,4.5594,4.5594,4.5594,4.5594,4.5651,4.5776,4.5853,4.5935,4.608,4.6199,4.6268,4.6308,4.6465,4.7226,4.8789,4.8906,4.9629,5.1308,5.1406,5.1406,5.1406,5.1406,5.1406,5.1406,5.1406,5.1406,5.1406,5.1406,5.1406,5.1406,5.1406,5.1406,5.1406,5.1406,5.1386,5.1342,5.1133,5.0997,5.0886,5.0748,5.0712,5.0712,5.0712,5.0712,5.0712,4.4615,4.5052,4.5425,4.5425,4.5865,4.624,4.624,4.624,4.5833,4.4748,4.4615,4.4615,4.4615,4.4615,4.4814,4.5372,4.5425,4.5673,4.6288,4.6312,4.6324,4.6301,4.6283,4.6545,4.7086,4.6444,4.6348,4.6909,4.6232,4.5535,4.4837,4.5571,4.5902,4.5902,4.5902,4.5902,4.5957,4.6672,4.6562,4.5957,4.6691,4.6562,4.5883,4.581,4.5792,4.5845,4.6127,4.6217,4.628,4.6638,4.5513,4.4016,4.4378,4.4487,4.4487,4.4487,4.4487,4.4487,4.4487,4.4487,4.4567,4.4865,4.5,4.5129,4.5438,4.554,4.5594,4.5594,4.5594,4.5594,4.5594,4.5594,4.5594,4.5594,4.5594,4.5651,4.5776,4.5816,4.5875,4.6075,4.6113,4.6173,4.6289,4.7012,4.7871,4.8828,4.8906,4.9629,5.1308,5.1406,5.1406,5.1406,5.1406,5.1406,5.1406,5.1406,5.1406,5.1406,5.1406,5.1406,5.1406,5.1406,5.1406,5.1406,5.1406,5.1322,5.1201,5.1,5.0903,5.0886,5.0748,5.0712,5.0712,5.0712,5.0712,5.0712,4.4615,4.5089,4.5511,4.5511,4.6014,4.6407,4.6407,4.6407,4.624,4.5732,4.5681,4.5681,4.5681,4.5681,4.5783,4.6014,4.6039,4.6312,4.6955,4.6999,4.7154,4.7515,4.7533,4.7677,4.7937,4.7627,4.758,4.781,4.7498,4.7186,4.6874,4.7186,4.7352,4.7352,4.7352,4.7352,4.737,4.7682,4.7645,4.737,4.7681,4.7758,4.7656,4.7174,4.712,4.7299,4.6978,4.6863,4.692,4.7271,4.67,4.59,4.6038,4.611,4.611,4.611,4.611,4.5997,4.5474,4.531,4.5236,4.4889,4.4943,4.5148,4.5263,4.5467,4.5594,4.5594,4.5594,4.5594,4.5594,4.5594,4.5594,4.5594,4.5594,4.5629,4.5673,4.5747,4.5844,4.5967,4.6045,4.6149,4.6289,4.709,4.7969,4.8828,4.9375,5.0176,5.1348,5.1406,5.1406,5.1406,5.1406,5.1406,5.1406,5.1406,5.1406,5.1406,5.1406,5.1406,5.1406,5.1406,5.1365,5.1271,5.1271,5.118,5.1009,5.0933,5.0859,5.0764,5.0731,5.0712,5.0712,5.0712,5.0712,5.0712,4.4852,4.5511,4.6063,4.6063,4.6548,4.6959,4.6959,4.6959,4.6959,4.6959,4.6959,4.6824,4.6454,4.6407,4.6478,4.6664,4.6687,4.6977,4.7614,4.7656,4.7838,4.8287,4.8306,4.8306,4.8306,4.8306,4.8306,4.8306,4.8306,4.8196,4.7957,4.7957,4.8086,4.8306,4.8421,4.8495,4.8477,4.8604,4.8658,4.8658,4.8658,4.883,4.9019,4.844,4.8416,4.8603,4.814,4.7971,4.8042,4.8388,4.8342,4.8067,4.7573,4.739,4.739,4.739,4.739,4.7257,4.6636,4.6484,4.6276,4.5478,4.5456,4.5568,4.5319,4.5429,4.5594,4.5594,4.5594,4.5594,4.5594,4.5594,4.5594,4.5594,4.5594,4.5594,4.5594,4.5688,4.579,4.5881,4.5985,4.621,4.664,4.7461,4.834,4.9219,5.0078,5.0801,5.1367,5.1406,5.1406,5.1406,5.1406,5.1406,5.1406,5.1406,5.1406,5.1406,5.1406,5.1406,5.1406,5.1406,5.1322,5.1201,5.118,5.1064,5.0901,5.0867,5.0782,5.0712,5.0712,5.0712,5.0712,5.0712,5.0712,5.0712,4.5485,4.6519,4.7385,4.7385,4.7877,4.8287,4.8287,4.8287,4.8287,4.8287,4.8287,4.7797,4.6548,4.6407,4.6664,4.7342,4.7385,4.7635,4.8267,4.8287,4.8287,4.8306,4.8306,4.8306,4.8306,4.8306,4.8306,4.8306,4.8306,4.7902,4.7113,4.7113,4.7535,4.8325,4.8728,4.8897,4.8913,4.9311,4.9475,4.9475,4.9475,4.9489,4.9489,4.9489,4.947,4.9547,4.9911,5.0073,5.014,5.0535,5.0664,5.0356,4.8635,4.8096,4.8096,4.8096,4.8096,4.8096,4.8077,4.8077,4.7885,4.7077,4.6885,4.6654,4.5797,4.5594,4.5594,4.5594,4.5594,4.5594,4.5594,4.5594,4.5594,4.5594,4.5594,4.5594,4.5594,4.5594,4.5681,4.5872,4.5903,4.6352,4.748,4.8379,4.9258,5.0117,5.0937,5.1387,5.1406,5.1406,5.1406,5.1406,5.1406,5.1406,5.1406,5.1406,5.1406,5.1406,5.1406,5.1406,5.1406,5.1406,5.1322,5.1199,5.1128,5.1014,5.0894,5.0757,5.0693,5.0712,5.0712,5.0712,5.0712,5.0712,5.0712,5.0712,4.6039,4.6819,4.7406,4.7406,4.7897,4.8306,4.8306,4.8306,4.8306,4.8306,4.8306,4.8152,4.7738,4.7697,4.7779,4.7977,4.8015,4.8113,4.8287,4.8306,4.8306,4.8306,4.8306,4.8306,4.8306,4.8306,4.8306,4.8306,4.8306,4.8177,4.7921,4.7921,4.8048,4.8325,4.8709,4.8897,4.893,4.9326,4.9489,4.9489,4.9489,4.9645,4.9911,4.9911,5.008,5.0336,5.0472,5.0504,5.0534,5.0663,5.0712,5.0596,5.0048,4.9875,4.9875,4.9875,4.9875,4.974,4.9144,4.899,4.8779,4.7932,4.7721,4.7509,4.6663,4.6028,4.5594,4.5594,4.5594,4.5594,4.5594,4.5594,4.5594,4.5594,4.5594,4.5594,4.5594,4.6105,4.6561,4.6751,4.7304,4.7892,4.8437,4.9277,4.9902,5.0176,5.0957,5.1406,5.1406,5.1406,5.1406,5.1406,5.1406,5.1406,5.1406,5.1406,5.1406,5.1406,5.1406,5.1406,5.1406,5.1317,5.1216,5.1124,5.1008,5.0894,5.0766,5.0721,5.0712,5.0712,5.0712,5.0712,5.0712,5.0712,5.0712,5.0712,4.6687,4.7302,4.7736,4.7736,4.8055,4.8306,4.8306,4.8306,4.8306,4.8306,4.8306,4.8306,4.8306,4.8306,4.8306,4.8306,4.8306,4.8306,4.8306,4.8306,4.8306,4.8306,4.8306,4.8306,4.8306,4.8306,4.8306,4.8306,4.8306,4.8306,4.8306,4.8306,4.8383,4.8532,4.8947,4.9218,4.9386,4.9787,4.9949,4.9949,4.9949,5.0092,5.0325,5.0325,5.0483,5.0712,5.0712,5.0712,5.0712,5.0712,5.0712,5.0712,5.0712,5.0712,5.0712,5.0712,5.0712,5.0577,5.0029,4.9894,4.9683,4.8817,4.8586,4.8375,4.7548,4.6932,4.6528,4.6528,4.6528,4.6528,4.6528,4.6528,4.6528,4.6528,4.6528,4.6528,4.6528,4.7009,4.743,4.7665,4.816,4.873,4.9335,4.9883,5.0332,5.0625,5.1113,5.1406,5.1406,5.1406,5.1406,5.1406,5.1406,5.1406,5.1406,5.1406,5.1406,5.1406,5.1406,5.1366,5.1321,5.1238,5.114,5.1027,5.0939,5.0811,5.0712,5.0712,5.0712,5.0712,5.0712,5.0712,5.0712,5.0712,5.0712,5.0712,4.7449,4.7917,4.8306,4.8306,4.8306,4.8306,4.8306,4.8306,4.8306,4.8306,4.8306,4.8306,4.8306,4.8306,4.8306,4.8306,4.8306,4.8306,4.8306,4.8306,4.8306,4.8306,4.8306,4.8306,4.8306,4.8306,4.8306,4.8306,4.8306,4.8306,4.8306,4.8344,4.8532,4.893,4.9356,4.9746,5.0135,5.0534,5.0712,5.0712,5.0712,5.0712,5.0712,5.0712,5.0712,5.0712,5.0712,5.0712,5.0712,5.0712,5.0712,5.0712,5.0712,5.0712,5.0712,5.0712,5.0712,5.0712,5.0712,5.0712,5.0519,4.9683,4.9433,4.9183,4.8375,4.8144,4.8105,4.8105,4.8105,4.8105,4.8105,4.8105,4.8105,4.8105,4.8105,4.8105,4.8105,4.8153,4.8295,4.856,4.8656,4.9107,5.0175,5.0273,5.0586,5.1348,5.1406,5.1406,5.1406,5.1406,5.1406,5.1406,5.1406,5.1406,5.1406,5.1406,5.1406,5.1406,5.1386,5.132,5.1204,5.1194,5.1072,5.0908,5.0894,5.0814,5.0712,5.0712,5.0712,5.0712,5.0712,5.0712,5.0712,5.0712,5.0712,5.0712,4.8015,4.8191,4.8306,4.8306,4.8306,4.8306,4.8306,4.8306,4.8306,4.8306,4.8306,4.8306,4.8306,4.8306,4.8306,4.8306,4.8306,4.8306,4.8306,4.8306,4.8306,4.8306,4.8306,4.8306,4.8306,4.8306,4.8306,4.8306,4.8306,4.8306,4.8306,4.8604,4.8813,4.893,4.9645,5.0019,5.0135,5.0534,5.0712,5.0712,5.0712,5.0712,5.0712,5.0712,5.0712,5.0712,5.0712,5.0712,5.0712,5.0712,5.0712,5.0712,5.0712,5.0712,5.0712,5.0712,5.0712,5.0712,5.0712,5.0712,5.0654,5.0442,4.9894,4.9356,4.9144,4.8586,4.8105,4.8105,4.8105,4.8105,4.8105,4.8105,4.8105,4.8105,4.8105,4.8105,4.8105,4.8764,4.931,4.9469,5.0127,5.0703,5.1074,5.1113,5.1191,5.1387,5.1406,5.1406,5.1406,5.1406,5.1406,5.1406,5.1406,5.1406,5.1406,5.1406,5.1406,5.1406,5.1296,5.1236,5.1199,5.1045,5.0953,5.0882,5.0799,5.0721,5.0712,5.0712,5.0712,5.0712,5.0712,5.0712,5.0712,5.0712,5.0712,5.0712,4.8248,4.8306,4.8306,4.8306,4.8306,4.8306,4.8306,4.8306,4.8306,4.8306,4.8306,4.8306,4.8306,4.8306,4.8306,4.8306,4.8306,4.8306,4.8306,4.8306,4.8306,4.8306,4.8306,4.8306,4.8306,4.8306,4.8306,4.8306,4.8306,4.8383,4.8568,4.8796,4.9092,4.9475,4.9911,5.0195,5.0399,5.0604,5.0712,5.0712,5.0712,5.0712,5.0712,5.0712,5.0712,5.0712,5.0712,5.0712,5.0712,5.0712,5.0712,5.0712,5.0712,5.0712,5.0712,5.0712,5.0712,5.0712,5.0712,5.0712,5.0712,5.0712,5.0346,4.999,4.999,4.9625,4.9298,4.9298,4.9298,4.9298,4.9298,4.9298,4.9298,4.9298,4.9298,4.9297,4.9374,4.9854,5.0254,5.0424,5.0887,5.1244,5.1386,5.1406,5.1406,5.1406,5.1406,5.1406,5.1406,5.1406,5.1406,5.1406,5.1406,5.1406,5.1406,5.1406,5.1406,5.1406,5.1267,5.1185,5.114,5.0978,5.0875,5.0797,5.073,5.0712,5.0712,5.0712,5.0712,5.0712,5.0712,5.0712,5.0712,5.0712,5.0712,5.0712,4.8306,4.8306,4.8306,4.8306,4.8306,4.8306,4.8306,4.8306,4.8306,4.8306,4.8306,4.8306,4.8306,4.8306,4.8306,4.8306,4.8306,4.8306,4.8306,4.8306,4.8306,4.8306,4.8306,4.8306,4.8306,4.8306,4.8344,4.8402,4.8402,4.8604,4.8978,4.9043,4.946,5.0092,5.0159,5.0369,5.0712,5.0712,5.0712,5.0712,5.0712,5.0712,5.0712,5.0712,5.0712,5.0712,5.0712,5.0712,5.0712,5.0712,5.0712,5.0712,5.0712,5.0712,5.0712,5.0712,5.0712,5.0712,5.0712,5.0712,5.0712,5.0712,5.0712,5.0712,5.0712,5.0712,5.0712,5.0712,5.0712,5.0712,5.0712,5.0712,5.0712,5.0712,5.0721,5.0775,5.0886,5.0939,5.1017,5.1188,5.121,5.127,5.1386,5.1406,5.1406,5.1406,5.1406,5.1406,5.1406,5.1406,5.1406,5.1406,5.1406,5.1406,5.1406,5.1406,5.1406,5.1406,5.1267,5.1161,5.1108,5.0953,5.0839,5.0712,5.0712,5.0712,5.0712,5.0712,5.0712,5.0712,5.0712,5.0712,5.0712,5.0712,5.0712,5.0712,4.8306,4.8306,4.8306,4.8306,4.8306,4.8306,4.8306,4.8306,4.8306,4.8306,4.8306,4.8306,4.8306,4.8306,4.8306,4.8306,4.8306,4.8306,4.8306,4.8306,4.8306,4.8306,4.8306,4.8306,4.8306,4.8306,4.8477,4.8813,4.8813,4.9013,4.9416,4.976,4.9974,5.0104,5.0462,5.0634,5.0712,5.0712,5.0712,5.0712,5.0712,5.0712,5.0712,5.0712,5.0712,5.0712,5.0712,5.0712,5.0712,5.0712,5.0712,5.0712,5.0712,5.0712,5.0712,5.0712,5.0712,5.0712,5.0712,5.0712,5.0712,5.0712,5.0712,5.0712,5.0712,5.0712,5.0712,5.0712,5.0712,5.0712,5.0712,5.0712,5.0712,5.0712,5.0799,5.0871,5.0901,5.105,5.1177,5.1201,5.1296,5.1386,5.1406,5.1406,5.1406,5.1406,5.1406,5.1406,5.1406,5.1406,5.1406,5.1406,5.1406,5.1406,5.1406,5.1406,5.1406,5.1406,5.1267,5.1161,5.1108,5.0953,5.0839,5.0712,5.0712,5.0712,5.0712,5.0712,5.0712,5.0712,5.0712,5.0712,5.0712,5.0712,5.0712,5.0712,4.8306,4.8306,4.8306,4.8306,4.8306,4.8306,4.8306,4.8306,4.8306,4.8306,4.8306,4.8306,4.8306,4.8306,4.8306,4.8306,4.8306,4.8306,4.8306,4.8306,4.8306,4.8306,4.8306,4.8383,4.8622,4.8604,4.883,4.9218,4.9218,4.9431,4.9827,4.9999,5.0225,5.0432,5.0614,5.0712,5.0712,5.0712,5.0712,5.0712,5.0712,5.0712,5.0712,5.0712,5.0712,5.0712,5.0712,5.0712,5.0712,5.0712,5.0712,5.0712,5.0712,5.0712,5.0712,5.0712,5.0712,5.0712,5.0712,5.0712,5.0712,5.0712,5.0712,5.0712,5.0712,5.0712,5.0712,5.0712,5.0712,5.0712,5.0712,5.0757,5.0805,5.0805,5.0918,5.102,5.106,5.1138,5.1234,5.1296,5.1366,5.1406,5.1406,5.1406,5.1406,5.1406,5.1406,5.1406,5.1406,5.1406,5.1406,5.1406,5.1406,5.1406,5.1406,5.1406,5.1406,5.1406,5.1235,5.1128,5.1084,5.0886,5.0757,5.0712,5.0712,5.0712,5.0712,5.0712,5.0712,5.0712,5.0712,5.0712,5.0712,5.0712,5.0712,5.0712,4.8306,4.8306,4.8306,4.8306,4.8306,4.8306,4.8306,4.8306,4.8306,4.8306,4.8306,4.8306,4.8306,4.8306,4.8306,4.8306,4.8306,4.8306,4.8306,4.8306,4.8306,4.8306,4.8402,4.8586,4.8897,4.8978,4.9234,4.965,4.965,4.9859,5.0249,5.0249,5.041,5.0712,5.0712,5.0712,5.0712,5.0712,5.0712,5.0712,5.0712,5.0712,5.0712,5.0712,5.0712,5.0712,5.0712,5.0712,5.0712,5.0712,5.0712,5.0712,5.0712,5.0712,5.0712,5.0712,5.0712,5.0712,5.0712,5.0712,5.0712,5.0712,5.0712,5.0712,5.0712,5.0712,5.0712,5.0712,5.0712,5.0712,5.0712,5.0805,5.0908,5.0908,5.1031,5.1145,5.1196,5.1234,5.1273,5.1386,5.1406,5.1406,5.1406,5.1406,5.1406,5.1406,5.1406,5.1406,5.1406,5.1406,5.1406,5.1406,5.1406,5.1406,5.1406,5.1406,5.1406,5.1406,5.1219,5.1122,5.1084,5.084,5.0721,5.0712,5.0712,5.0712,5.0712,5.0712,5.0712,5.0712,5.0712,5.0712,5.0712,5.0712,5.0712,5.0712,4.8306,4.8306,4.8306,4.8306,4.8306,4.8306,4.8306,4.8306,4.8306,4.8306,4.8306,4.8306,4.8306,4.8306,4.8306,4.8306,4.8306,4.8306,4.8306,4.8306,4.8306,4.8306,4.8657,4.8863,4.8897,4.9265,4.9645,5.0056,5.0056,5.026,5.0663,5.0663,5.0673,5.0712,5.0712,5.0712,5.0712,5.0712,5.0712,5.0712,5.0712,5.0712,5.0712,5.0712,5.0712,5.0712,5.0712,5.0712,5.0712,5.0712,5.0712,5.0712,5.0712,5.0712,5.0712,5.0712,5.0712,5.0712,5.0712,5.0712,5.0712,5.0712,5.0712,5.0712,5.0712,5.0712,5.0712,5.0712,5.0712,5.0712,5.0712,5.0805,5.0908,5.0908,5.1054,5.1196,5.1201,5.1318,5.1386,5.1406,5.1406,5.1406,5.1406,5.1406,5.1406,5.1406,5.1406,5.1406,5.1406,5.1406,5.1406,5.1406,5.1406,5.1406,5.1406,5.1406,5.1406,5.1406,5.1263,5.1154,5.1108,5.0959,5.0822,5.0712,5.0712,5.0712,5.0712,5.0712,5.0712,5.0712,5.0712,5.0712,5.0712,5.0712,5.0712,5.0712,4.8306,4.8306,4.8306,4.8306,4.8306,4.8306,4.8306,4.8306,4.8306,4.8306,4.8306,4.8306,4.8306,4.8306,4.8306,4.8306,4.8306,4.8306,4.8306,4.8306,4.8402,4.8657,4.883,4.9139,4.9631,4.98,5.0068,5.0472,5.0472,5.0554,5.0712,5.0712,5.0712,5.0712,5.0712,5.0712,5.0712,5.0712,5.0712,5.0712,5.0712,5.0712,5.0712,5.0712,5.0712,5.0712,5.0712,5.0712,5.0712,5.0712,5.0712,5.0712,5.0712,5.0712,5.0712,5.0712,5.0712,5.0712,5.0712,5.0712,5.0712,5.0712,5.0712,5.0712,5.0712,5.0712,5.0712,5.0805,5.0811,5.0851,5.0932,5.1014,5.1081,5.1081,5.1223,5.1321,5.1321,5.1366,5.1406,5.1406,5.1406,5.1406,5.1406,5.1406,5.1406,5.1406,5.1406,5.1406,5.1406,5.1406,5.1406,5.1406,5.1406,5.1406,5.1406,5.1406,5.1406,5.1406,5.121,5.112,5.1084,5.0871,5.0758,5.0712,5.0712,5.0712,5.0712,5.0712,5.0712,5.0712,5.0712,5.0712,5.0712,5.0712,5.0712,5.0712,4.8306,4.8306,4.8306,4.8306,4.8306,4.8306,4.8306,4.8306,4.8306,4.8306,4.8306,4.8306,4.8306,4.8306,4.8306,4.8306,4.8306,4.8306,4.8306,4.8421,4.8622,4.8897,4.9139,4.9547,5.008,5.0206,5.0421,5.0712,5.0712,5.0712,5.0712,5.0712,5.0712,5.0712,5.0712,5.0712,5.0712,5.0712,5.0712,5.0712,5.0712,5.0712,5.0712,5.0712,5.0712,5.0712,5.0712,5.0712,5.0712,5.0712,5.0712,5.0712,5.0712,5.0712,5.0712,5.0712,5.0712,5.0712,5.0712,5.073,5.0748,5.0712,5.0712,5.0712,5.0748,5.0766,5.0789,5.0939,5.0953,5.0991,5.1074,5.1147,5.1204,5.1204,5.1319,5.1406,5.1406,5.1406,5.1406,5.1406,5.1406,5.1406,5.1406,5.1406,5.1406,5.1406,5.1406,5.1406,5.1406,5.1406,5.1406,5.1406,5.1406,5.1406,5.1406,5.1406,5.1406,5.1406,5.1224,5.1128,5.1124,5.0886,5.0766,5.0766,5.0721,5.0712,5.0712,5.0712,5.0712,5.0712,5.0712,5.0712,5.0712,5.0712,5.0712,5.0712,4.8306,4.8306,4.8306,4.8306,4.8306,4.8306,4.8306,4.8306,4.8306,4.8306,4.8306,4.8306,4.8306,4.8306,4.8306,4.8306,4.8306,4.8306,4.8306,4.8692,4.8913,4.8913,4.9673,5.0092,5.0092,5.0493,5.0712,5.0712,5.0712,5.0712,5.0712,5.0712,5.0712,5.0712,5.0712,5.0712,5.0712,5.0712,5.0712,5.0712,5.0712,5.0712,5.0712,5.0712,5.0712,5.0712,5.0712,5.0712,5.0712,5.0712,5.0712,5.0712,5.0712,5.0712,5.0712,5.0712,5.0712,5.0712,5.0693,5.0808,5.0863,5.074,5.0693,5.074,5.0863,5.0889,5.0945,5.1063,5.1094,5.1094,5.1094,5.1167,5.1204,5.1204,5.1319,5.1406,5.1406,5.1406,5.1406,5.1406,5.1406,5.1406,5.1406,5.1406,5.1406,5.1406,5.1406,5.1406,5.1406,5.1406,5.1406,5.1406,5.1406,5.1406,5.1406,5.1406,5.1406,5.1406,5.1267,5.1204,5.1196,5.0994,5.0908,5.0894,5.0757,5.0712,5.0712,5.0712,5.0712,5.0712,5.0712,5.0712,5.0712,5.0712,5.0712,5.0712,4.8306,4.8306,4.8306,4.8306,4.8306,4.8306,4.8306,4.8306,4.8306,4.8306,4.8306,4.8306,4.8306,4.8306,4.8306,4.8306,4.8306,4.8421,4.8692,4.9352,4.9728,4.9728,4.9974,5.0237,5.0504,5.0653,5.0712,5.0712,5.0712,5.0712,5.0712,5.0712,5.0712,5.0712,5.0712,5.0712,5.0712,5.0712,5.0712,5.0712,5.0712,5.0712,5.0712,5.0712,5.0712,5.0712,5.0712,5.0712,5.0712,5.0712,5.0712,5.0712,5.0712,5.0712,5.0712,5.0712,5.0712,5.0731,5.0814,5.0863,5.0894,5.0851,5.0903,5.0991,5.1039,5.105,5.1069,5.1151,5.1167,5.1205,5.1286,5.1339,5.1343,5.1343,5.1366,5.1406,5.1406,5.1406,5.1406,5.1406,5.1406,5.1406,5.1406,5.1406,5.1406,5.1406,5.1406,5.1406,5.1406,5.1406,5.1406,5.1406,5.1406,5.1406,5.1406,5.1406,5.1406,5.1406,5.1267,5.1174,5.1124,5.0979,5.0851,5.0757,5.0721,5.0712,5.0712,5.0712,5.0712,5.0712,5.0712,5.0712,5.0712,5.0712,5.0712,5.0712,4.8306,4.8306,4.8306,4.8306,4.8306,4.8306,4.8306,4.8306,4.8306,4.8306,4.8306,4.8306,4.8306,4.8306,4.8306,4.8306,4.8439,4.8779,4.9341,4.9827,5.0171,5.0336,5.0336,5.0442,5.0683,5.0712,5.0712,5.0712,5.0712,5.0712,5.0712,5.0712,5.0712,5.0712,5.0712,5.0712,5.0712,5.0712,5.0712,5.0712,5.0712,5.0712,5.0712,5.0712,5.0712,5.0712,5.0712,5.0712,5.0712,5.0712,5.0712,5.0712,5.0712,5.0712,5.0712,5.0766,5.0773,5.0805,5.0945,5.1008,5.1014,5.1014,5.1054,5.1103,5.1133,5.1145,5.117,5.1263,5.1271,5.1297,5.1386,5.1406,5.1406,5.1406,5.1406,5.1406,5.1406,5.1406,5.1406,5.1406,5.1406,5.1406,5.1406,5.1406,5.1406,5.1406,5.1406,5.1406,5.1406,5.1406,5.1406,5.1406,5.1406,5.1406,5.1406,5.1406,5.1406,5.1406,5.132,5.1225,5.1141,5.1031,5.0916,5.0773,5.0712,5.0712,5.0712,5.0712,5.0712,5.0712,5.0712,5.0712,5.0712,5.0712,5.0712,5.0712,4.8306,4.8306,4.8306,4.8306,4.8306,4.8306,4.8306,4.8306,4.8306,4.8306,4.8306,4.8306,4.8306,4.8306,4.8306,4.8306,4.871,4.9295,5.0056,5.0135,5.0325,5.0683,5.0712,5.0712,5.0712,5.0712,5.0712,5.0712,5.0712,5.0712,5.0712,5.0712,5.0712,5.0712,5.0712,5.0712,5.0712,5.0712,5.0712,5.0712,5.0712,5.0712,5.0712,5.0712,5.0712,5.0712,5.0712,5.0712,5.0712,5.0712,5.0712,5.0712,5.0712,5.0702,5.0749,5.0856,5.0903,5.0952,5.1074,5.1144,5.1204,5.121,5.1177,5.1133,5.1196,5.121,5.1244,5.1366,5.1406,5.1406,5.1406,5.1406,5.1406,5.1406,5.1406,5.1406,5.1406,5.1406,5.1406,5.1406,5.1406,5.1406,5.1406,5.1406,5.1406,5.1406,5.1406,5.1406,5.1406,5.1406,5.1406,5.1406,5.1406,5.1406,5.1406,5.1406,5.1406,5.1406,5.1406,5.1321,5.1191,5.1124,5.1027,5.0871,5.0748,5.0712,5.0712,5.0712,5.0712,5.0712,5.0712,5.0712,5.0712,5.0712,5.0712,5.0712,4.8306,4.8306,4.8306,4.8306,4.8306,4.8306,4.8306,4.8306,4.8306,4.8306,4.8306,4.8306,4.8306,4.8306,4.8306,4.8306,4.8947,4.9575,5.0068,5.038,5.0614,5.0702,5.0712,5.0712,5.0712,5.0712,5.0712,5.0712,5.0712,5.0712,5.0712,5.0712,5.0712,5.0712,5.0712,5.0712,5.0712,5.0712,5.0712,5.0712,5.0712,5.0712,5.0712,5.0712,5.0712,5.0712,5.0712,5.0712,5.0712,5.0712,5.0712,5.0712,5.0712,5.0764,5.0856,5.0894,5.0972,5.1079,5.1154,5.1191,5.1234,5.1322,5.1342,5.134,5.1344,5.1365,5.1366,5.1387,5.1406,5.1406,5.1406,5.1406,5.1406,5.1406,5.1406,5.1406,5.1406,5.1406,5.1406,5.1406,5.1406,5.1406,5.1406,5.1406,5.1406,5.1406,5.1406,5.1406,5.1406,5.1406,5.1406,5.1406,5.1406,5.1406,5.1406,5.1406,5.1406,5.1406,5.1406,5.1309,5.1111,5.1103,5.0966,5.0749,5.0712,5.0712,5.0712,5.0712,5.0712,5.0712,5.0712,5.0712,5.0712,5.0712,5.0712,5.0712,4.8306,4.8306,4.8306,4.8306,4.8306,4.8306,4.8306,4.8306,4.8306,4.8306,4.8306,4.8306,4.8306,4.8306,4.8458,4.883,4.9249,4.9746,5.0347,5.0575,5.0712,5.0712,5.0712,5.0712,5.0712,5.0712,5.0712,5.0712,5.0712,5.0712,5.0712,5.0712,5.0712,5.0712,5.0712,5.0712,5.0712,5.0712,5.0712,5.0712,5.0712,5.0712,5.0712,5.0712,5.0712,5.0712,5.0712,5.0712,5.0712,5.0712,5.0712,5.0712,5.0712,5.0799,5.0903,5.0972,5.1064,5.1177,5.1265,5.1295,5.1319,5.1386,5.1406,5.1406,5.1406,5.1406,5.1406,5.1406,5.1406,5.1406,5.1406,5.1406,5.1406,5.1406,5.1406,5.1406,5.1406,5.1406,5.1406,5.1406,5.1406,5.1406,5.1406,5.1406,5.1406,5.1406,5.1406,5.1406,5.1406,5.1406,5.1406,5.1406,5.1406,5.1406,5.1406,5.1406,5.1406,5.1406,5.1406,5.1285,5.1089,5.1089,5.0946,5.0712,5.0712,5.0712,5.0712,5.0712,5.0712,5.0712,5.0712,5.0712,5.0712,5.0712,5.0712,5.0712,4.8306,4.8306,4.8306,4.8306,4.8306,4.8306,4.8306,4.8306,4.8306,4.8306,4.8306,4.8306,4.8306,4.8364,4.8692,4.9431,4.9561,4.9924,5.0653,5.0712,5.0712,5.0712,5.0712,5.0712,5.0712,5.0712,5.0712,5.0712,5.0712,5.0712,5.0712,5.0712,5.0712,5.0712,5.0712,5.0712,5.0712,5.0712,5.0712,5.0712,5.0712,5.0712,5.0712,5.0712,5.0712,5.0712,5.0712,5.0712,5.0712,5.0712,5.0712,5.0693,5.0721,5.083,5.0953,5.1089,5.1161,5.1265,5.1366,5.1406,5.1406,5.1406,5.1406,5.1406,5.1406,5.1406,5.1406,5.1406,5.1406,5.1406,5.1406,5.1406,5.1406,5.1406,5.1406,5.1406,5.1406,5.1406,5.1406,5.1406,5.1406,5.1406,5.1406,5.1406,5.1406,5.1406,5.1406,5.1406,5.1406,5.1406,5.1406,5.1406,5.1406,5.1406,5.1406,5.1406,5.1406,5.1406,5.1406,5.1285,5.1089,5.1089,5.0946,5.0712,5.0712,5.0712,5.0712,5.0712,5.0712,5.0712,5.0712,5.0712,5.0712,5.0712,5.0712,5.0712,4.8306,4.8306,4.8306,4.8306,4.8306,4.8306,4.8306,4.8306,4.8306,4.8306,4.8306,4.8306,4.8306,4.8622,4.8994,4.946,4.9813,5.0206,5.0673,5.0712,5.0712,5.0712,5.0712,5.0712,5.0712,5.0712,5.0712,5.0712,5.0712,5.0712,5.0712,5.0712,5.0712,5.0712,5.0712,5.0712,5.0712,5.0712,5.0712,5.0712,5.0712,5.0712,5.0712,5.0712,5.0712,5.0712,5.0712,5.0712,5.0712,5.0712,5.0712,5.0731,5.0827,5.0959,5.1094,5.1164,5.1288,5.1386,5.1406,5.1406,5.1406,5.1406,5.1406,5.1406,5.1406,5.1406,5.1406,5.1406,5.1406,5.1406,5.1406,5.1406,5.1406,5.1406,5.1406,5.1406,5.1406,5.1406,5.1406,5.1406,5.1406,5.1406,5.1406,5.1406,5.1406,5.1406,5.1406,5.1406,5.1406,5.1406,5.1406,5.1406,5.1406,5.1406,5.1406,5.1406,5.1406,5.1406,5.1406,5.1285,5.1089,5.1089,5.0946,5.0712,5.0712,5.0712,5.0712,5.0712,5.0712,5.0712,5.0712,5.0712,5.0712,5.0712,5.0712,5.0712,4.8306,4.8306,4.8306,4.8306,4.8306,4.8306,4.8306,4.8306,4.8306,4.8306,4.8306,4.8306,4.8306,4.8657,4.9059,4.946,4.9872,5.0272,5.0673,5.0712,5.0712,5.0712,5.0712,5.0712,5.0712,5.0712,5.0712,5.0712,5.0712,5.0712,5.0712,5.0712,5.0712,5.0712,5.0712,5.0712,5.0712,5.0712,5.0712,5.0712,5.0712,5.0712,5.0712,5.0712,5.0712,5.0712,5.0712,5.0712,5.0712,5.0712,5.0712,5.0712,5.0867,5.0991,5.1117,5.1183,5.1295,5.1406,5.1406,5.1406,5.1406,5.1406,5.1406,5.1406,5.1406,5.1406,5.1406,5.1406,5.1406,5.1406,5.1406,5.1406,5.1406,5.1406,5.1406,5.1406,5.1406,5.1406,5.1406,5.1406,5.1406,5.1406,5.1406,5.1406,5.1406,5.1406,5.1406,5.1406,5.1406,5.1406,5.1406,5.1406,5.1406,5.1406,5.1406,5.1406,5.1406,5.1406,5.1406,5.1285,5.1089,5.1089,5.0946,5.0712,5.0712,5.0712,5.0712,5.0712,5.0712,5.0712,5.0712,5.0712,5.0712,5.0712,5.0712,5.0712]}]]